<?xml version="1.0" encoding="UTF-8" standalone="no" ?>
<gpx xmlns="http://www.topografix.com/GPX/1/1" xmlns:xsi="http://www.w3.org/2001/XMLSchema-instance" xsi:schemaLocation="http://www.topografix.com/GPX/1/1 http://www.topografix.com/GPX/1/1/gpx.xsd" version="1.1" creator="VisuGPX - https://www.visugpx.com">
  <metadata>
    <name>Alixan</name>
    <desc><![CDATA[Alixan Dist.51Km 3h54 Asc.145m.gpx]]></desc>
  </metadata>
  <trk>
    <name><![CDATA[Alixan]]></name>
    <trkseg>
      <trkpt lat="45.11574" lon="4.96419">
        <ele>208.26300048828</ele>
        <time>2009-05-20T11:21:51Z</time>
      </trkpt>
      <trkpt lat="45.11574" lon="4.96419">
        <ele>209.22399902344</ele>
        <time>2009-05-20T11:21:52Z</time>
      </trkpt>
      <trkpt lat="45.11571" lon="4.96423">
        <ele>206.33999633789</ele>
        <time>2009-05-20T11:22:05Z</time>
      </trkpt>
      <trkpt lat="45.1157" lon="4.96422">
        <ele>206.33999633789</ele>
        <time>2009-05-20T11:22:06Z</time>
      </trkpt>
      <trkpt lat="45.1157" lon="4.96422">
        <ele>206.33999633789</ele>
        <time>2009-05-20T11:22:07Z</time>
      </trkpt>
      <trkpt lat="45.1157" lon="4.96422">
        <ele>206.33999633789</ele>
        <time>2009-05-20T11:22:10Z</time>
      </trkpt>
      <trkpt lat="45.11563" lon="4.96425">
        <ele>205.85899353027</ele>
        <time>2009-05-20T11:22:14Z</time>
      </trkpt>
      <trkpt lat="45.11565" lon="4.96445">
        <ele>205.37899780273</ele>
        <time>2009-05-20T11:22:19Z</time>
      </trkpt>
      <trkpt lat="45.11572" lon="4.96451">
        <ele>205.37899780273</ele>
        <time>2009-05-20T11:22:22Z</time>
      </trkpt>
      <trkpt lat="45.11576" lon="4.96447">
        <ele>205.85899353027</ele>
        <time>2009-05-20T11:22:26Z</time>
      </trkpt>
      <trkpt lat="45.11578" lon="4.9645">
        <ele>205.85899353027</ele>
        <time>2009-05-20T11:22:30Z</time>
      </trkpt>
      <trkpt lat="45.1158" lon="4.96469">
        <ele>205.37899780273</ele>
        <time>2009-05-20T11:22:37Z</time>
      </trkpt>
      <trkpt lat="45.11579" lon="4.96487">
        <ele>204.41700744629</ele>
        <time>2009-05-20T11:22:42Z</time>
      </trkpt>
      <trkpt lat="45.11578" lon="4.96499">
        <ele>204.41700744629</ele>
        <time>2009-05-20T11:22:45Z</time>
      </trkpt>
      <trkpt lat="45.11584" lon="4.96524">
        <ele>204.41700744629</ele>
        <time>2009-05-20T11:22:49Z</time>
      </trkpt>
      <trkpt lat="45.11595" lon="4.9655">
        <ele>204.41700744629</ele>
        <time>2009-05-20T11:22:53Z</time>
      </trkpt>
      <trkpt lat="45.11603" lon="4.96572">
        <ele>204.41700744629</ele>
        <time>2009-05-20T11:22:56Z</time>
      </trkpt>
      <trkpt lat="45.11612" lon="4.96594">
        <ele>204.41700744629</ele>
        <time>2009-05-20T11:22:59Z</time>
      </trkpt>
      <trkpt lat="45.11621" lon="4.96618">
        <ele>204.41700744629</ele>
        <time>2009-05-20T11:23:02Z</time>
      </trkpt>
      <trkpt lat="45.11629" lon="4.96642">
        <ele>204.41700744629</ele>
        <time>2009-05-20T11:23:05Z</time>
      </trkpt>
      <trkpt lat="45.11639" lon="4.96665">
        <ele>204.41700744629</ele>
        <time>2009-05-20T11:23:08Z</time>
      </trkpt>
      <trkpt lat="45.11647" lon="4.96688">
        <ele>204.41700744629</ele>
        <time>2009-05-20T11:23:11Z</time>
      </trkpt>
      <trkpt lat="45.11656" lon="4.9671">
        <ele>204.89799499512</ele>
        <time>2009-05-20T11:23:14Z</time>
      </trkpt>
      <trkpt lat="45.11666" lon="4.96732">
        <ele>204.89799499512</ele>
        <time>2009-05-20T11:23:17Z</time>
      </trkpt>
      <trkpt lat="45.11677" lon="4.96753">
        <ele>205.85899353027</ele>
        <time>2009-05-20T11:23:20Z</time>
      </trkpt>
      <trkpt lat="45.11688" lon="4.96772">
        <ele>205.85899353027</ele>
        <time>2009-05-20T11:23:23Z</time>
      </trkpt>
      <trkpt lat="45.117" lon="4.96792">
        <ele>205.85899353027</ele>
        <time>2009-05-20T11:23:26Z</time>
      </trkpt>
      <trkpt lat="45.11713" lon="4.96812">
        <ele>205.85899353027</ele>
        <time>2009-05-20T11:23:29Z</time>
      </trkpt>
      <trkpt lat="45.11725" lon="4.96833">
        <ele>206.33999633789</ele>
        <time>2009-05-20T11:23:32Z</time>
      </trkpt>
      <trkpt lat="45.11738" lon="4.96866">
        <ele>205.85899353027</ele>
        <time>2009-05-20T11:23:36Z</time>
      </trkpt>
      <trkpt lat="45.11749" lon="4.96879">
        <ele>206.33999633789</ele>
        <time>2009-05-20T11:23:38Z</time>
      </trkpt>
      <trkpt lat="45.11774" lon="4.96912">
        <ele>206.82099914551</ele>
        <time>2009-05-20T11:23:43Z</time>
      </trkpt>
      <trkpt lat="45.11789" lon="4.96935">
        <ele>206.33999633789</ele>
        <time>2009-05-20T11:23:46Z</time>
      </trkpt>
      <trkpt lat="45.11804" lon="4.96958">
        <ele>206.33999633789</ele>
        <time>2009-05-20T11:23:49Z</time>
      </trkpt>
      <trkpt lat="45.11819" lon="4.96981">
        <ele>206.33999633789</ele>
        <time>2009-05-20T11:23:52Z</time>
      </trkpt>
      <trkpt lat="45.11824" lon="4.96988">
        <ele>206.82099914551</ele>
        <time>2009-05-20T11:23:53Z</time>
      </trkpt>
      <trkpt lat="45.11845" lon="4.97017">
        <ele>206.82099914551</ele>
        <time>2009-05-20T11:23:57Z</time>
      </trkpt>
      <trkpt lat="45.11861" lon="4.97038">
        <ele>206.82099914551</ele>
        <time>2009-05-20T11:24:00Z</time>
      </trkpt>
      <trkpt lat="45.11872" lon="4.97052">
        <ele>206.82099914551</ele>
        <time>2009-05-20T11:24:02Z</time>
      </trkpt>
      <trkpt lat="45.1188" lon="4.97092">
        <ele>206.33999633789</ele>
        <time>2009-05-20T11:24:06Z</time>
      </trkpt>
      <trkpt lat="45.11877" lon="4.97114">
        <ele>206.33999633789</ele>
        <time>2009-05-20T11:24:08Z</time>
      </trkpt>
      <trkpt lat="45.11875" lon="4.9717">
        <ele>204.89799499512</ele>
        <time>2009-05-20T11:24:13Z</time>
      </trkpt>
      <trkpt lat="45.1188" lon="4.97205">
        <ele>204.89799499512</ele>
        <time>2009-05-20T11:24:16Z</time>
      </trkpt>
      <trkpt lat="45.11886" lon="4.97238">
        <ele>204.41700744629</ele>
        <time>2009-05-20T11:24:19Z</time>
      </trkpt>
      <trkpt lat="45.11892" lon="4.97272">
        <ele>203.93699645996</ele>
        <time>2009-05-20T11:24:22Z</time>
      </trkpt>
      <trkpt lat="45.11898" lon="4.97306">
        <ele>203.93699645996</ele>
        <time>2009-05-20T11:24:25Z</time>
      </trkpt>
      <trkpt lat="45.11903" lon="4.9734">
        <ele>204.41700744629</ele>
        <time>2009-05-20T11:24:28Z</time>
      </trkpt>
      <trkpt lat="45.11909" lon="4.97373">
        <ele>204.41700744629</ele>
        <time>2009-05-20T11:24:31Z</time>
      </trkpt>
      <trkpt lat="45.11914" lon="4.97404">
        <ele>204.89799499512</ele>
        <time>2009-05-20T11:24:34Z</time>
      </trkpt>
      <trkpt lat="45.1192" lon="4.97435">
        <ele>204.89799499512</ele>
        <time>2009-05-20T11:24:37Z</time>
      </trkpt>
      <trkpt lat="45.11925" lon="4.97465">
        <ele>204.89799499512</ele>
        <time>2009-05-20T11:24:40Z</time>
      </trkpt>
      <trkpt lat="45.1193" lon="4.97493">
        <ele>205.37899780273</ele>
        <time>2009-05-20T11:24:43Z</time>
      </trkpt>
      <trkpt lat="45.11935" lon="4.97521">
        <ele>205.37899780273</ele>
        <time>2009-05-20T11:24:46Z</time>
      </trkpt>
      <trkpt lat="45.11939" lon="4.97547">
        <ele>205.85899353027</ele>
        <time>2009-05-20T11:24:49Z</time>
      </trkpt>
      <trkpt lat="45.11943" lon="4.97573">
        <ele>206.33999633789</ele>
        <time>2009-05-20T11:24:52Z</time>
      </trkpt>
      <trkpt lat="45.11945" lon="4.97581">
        <ele>206.33999633789</ele>
        <time>2009-05-20T11:24:53Z</time>
      </trkpt>
      <trkpt lat="45.11949" lon="4.97614">
        <ele>206.33999633789</ele>
        <time>2009-05-20T11:24:57Z</time>
      </trkpt>
      <trkpt lat="45.11956" lon="4.97647">
        <ele>206.82099914551</ele>
        <time>2009-05-20T11:25:01Z</time>
      </trkpt>
      <trkpt lat="45.11961" lon="4.97673">
        <ele>206.82099914551</ele>
        <time>2009-05-20T11:25:04Z</time>
      </trkpt>
      <trkpt lat="45.11966" lon="4.977">
        <ele>206.33999633789</ele>
        <time>2009-05-20T11:25:07Z</time>
      </trkpt>
      <trkpt lat="45.1197" lon="4.97726">
        <ele>207.30099487305</ele>
        <time>2009-05-20T11:25:10Z</time>
      </trkpt>
      <trkpt lat="45.11975" lon="4.97753">
        <ele>206.82099914551</ele>
        <time>2009-05-20T11:25:13Z</time>
      </trkpt>
      <trkpt lat="45.11979" lon="4.97779">
        <ele>207.30099487305</ele>
        <time>2009-05-20T11:25:16Z</time>
      </trkpt>
      <trkpt lat="45.11983" lon="4.97805">
        <ele>207.30099487305</ele>
        <time>2009-05-20T11:25:19Z</time>
      </trkpt>
      <trkpt lat="45.11988" lon="4.9783">
        <ele>207.30099487305</ele>
        <time>2009-05-20T11:25:22Z</time>
      </trkpt>
      <trkpt lat="45.11993" lon="4.97856">
        <ele>207.30099487305</ele>
        <time>2009-05-20T11:25:25Z</time>
      </trkpt>
      <trkpt lat="45.11997" lon="4.97881">
        <ele>207.78199768066</ele>
        <time>2009-05-20T11:25:28Z</time>
      </trkpt>
      <trkpt lat="45.12001" lon="4.97907">
        <ele>208.26300048828</ele>
        <time>2009-05-20T11:25:31Z</time>
      </trkpt>
      <trkpt lat="45.12006" lon="4.97932">
        <ele>208.26300048828</ele>
        <time>2009-05-20T11:25:34Z</time>
      </trkpt>
      <trkpt lat="45.12012" lon="4.97957">
        <ele>208.26300048828</ele>
        <time>2009-05-20T11:25:37Z</time>
      </trkpt>
      <trkpt lat="45.12019" lon="4.97982">
        <ele>208.74299621582</ele>
        <time>2009-05-20T11:25:40Z</time>
      </trkpt>
      <trkpt lat="45.12026" lon="4.98006">
        <ele>208.74299621582</ele>
        <time>2009-05-20T11:25:43Z</time>
      </trkpt>
      <trkpt lat="45.12032" lon="4.98031">
        <ele>208.74299621582</ele>
        <time>2009-05-20T11:25:46Z</time>
      </trkpt>
      <trkpt lat="45.12039" lon="4.98055">
        <ele>209.22399902344</ele>
        <time>2009-05-20T11:25:49Z</time>
      </trkpt>
      <trkpt lat="45.12045" lon="4.98079">
        <ele>209.22399902344</ele>
        <time>2009-05-20T11:25:52Z</time>
      </trkpt>
      <trkpt lat="45.12051" lon="4.98103">
        <ele>209.70500183106</ele>
        <time>2009-05-20T11:25:55Z</time>
      </trkpt>
      <trkpt lat="45.12056" lon="4.98127">
        <ele>209.70500183106</ele>
        <time>2009-05-20T11:25:58Z</time>
      </trkpt>
      <trkpt lat="45.1206" lon="4.98151">
        <ele>210.18499755859</ele>
        <time>2009-05-20T11:26:01Z</time>
      </trkpt>
      <trkpt lat="45.12063" lon="4.98175">
        <ele>210.18499755859</ele>
        <time>2009-05-20T11:26:04Z</time>
      </trkpt>
      <trkpt lat="45.12065" lon="4.982">
        <ele>210.66600036621</ele>
        <time>2009-05-20T11:26:07Z</time>
      </trkpt>
      <trkpt lat="45.12066" lon="4.98224">
        <ele>210.18499755859</ele>
        <time>2009-05-20T11:26:10Z</time>
      </trkpt>
      <trkpt lat="45.12064" lon="4.98249">
        <ele>210.18499755859</ele>
        <time>2009-05-20T11:26:13Z</time>
      </trkpt>
      <trkpt lat="45.12062" lon="4.98273">
        <ele>210.66600036621</ele>
        <time>2009-05-20T11:26:16Z</time>
      </trkpt>
      <trkpt lat="45.1206" lon="4.98298">
        <ele>211.14700317383</ele>
        <time>2009-05-20T11:26:19Z</time>
      </trkpt>
      <trkpt lat="45.12056" lon="4.98322">
        <ele>210.66600036621</ele>
        <time>2009-05-20T11:26:22Z</time>
      </trkpt>
      <trkpt lat="45.12052" lon="4.98345">
        <ele>211.14700317383</ele>
        <time>2009-05-20T11:26:25Z</time>
      </trkpt>
      <trkpt lat="45.12048" lon="4.98366">
        <ele>211.62699890137</ele>
        <time>2009-05-20T11:26:28Z</time>
      </trkpt>
      <trkpt lat="45.1204" lon="4.9839">
        <ele>212.10800170898</ele>
        <time>2009-05-20T11:26:32Z</time>
      </trkpt>
      <trkpt lat="45.12023" lon="4.98405">
        <ele>211.62699890137</ele>
        <time>2009-05-20T11:26:37Z</time>
      </trkpt>
      <trkpt lat="45.12012" lon="4.98401">
        <ele>210.66600036621</ele>
        <time>2009-05-20T11:26:39Z</time>
      </trkpt>
      <trkpt lat="45.11988" lon="4.98394">
        <ele>210.66600036621</ele>
        <time>2009-05-20T11:26:43Z</time>
      </trkpt>
      <trkpt lat="45.11968" lon="4.98402">
        <ele>210.18499755859</ele>
        <time>2009-05-20T11:26:47Z</time>
      </trkpt>
      <trkpt lat="45.1196" lon="4.98424">
        <ele>211.14700317383</ele>
        <time>2009-05-20T11:26:51Z</time>
      </trkpt>
      <trkpt lat="45.1197" lon="4.98441">
        <ele>211.14700317383</ele>
        <time>2009-05-20T11:26:55Z</time>
      </trkpt>
      <trkpt lat="45.11977" lon="4.98441">
        <ele>211.62699890137</ele>
        <time>2009-05-20T11:26:57Z</time>
      </trkpt>
      <trkpt lat="45.11995" lon="4.98439">
        <ele>211.62699890137</ele>
        <time>2009-05-20T11:27:02Z</time>
      </trkpt>
      <trkpt lat="45.12001" lon="4.98436">
        <ele>211.62699890137</ele>
        <time>2009-05-20T11:27:04Z</time>
      </trkpt>
      <trkpt lat="45.12015" lon="4.98448">
        <ele>212.10800170898</ele>
        <time>2009-05-20T11:27:09Z</time>
      </trkpt>
      <trkpt lat="45.12022" lon="4.98446">
        <ele>213.06900024414</ele>
        <time>2009-05-20T11:27:14Z</time>
      </trkpt>
      <trkpt lat="45.12028" lon="4.98446">
        <ele>212.5890045166</ele>
        <time>2009-05-20T11:34:43Z</time>
      </trkpt>
      <trkpt lat="45.12028" lon="4.98446">
        <ele>212.5890045166</ele>
        <time>2009-05-20T11:34:44Z</time>
      </trkpt>
      <trkpt lat="45.12024" lon="4.98448">
        <ele>212.5890045166</ele>
        <time>2009-05-20T11:39:31Z</time>
      </trkpt>
      <trkpt lat="45.12028" lon="4.98452">
        <ele>212.10800170898</ele>
        <time>2009-05-20T11:39:33Z</time>
      </trkpt>
      <trkpt lat="45.12041" lon="4.98442">
        <ele>212.10800170898</ele>
        <time>2009-05-20T11:39:39Z</time>
      </trkpt>
      <trkpt lat="45.12044" lon="4.98439">
        <ele>212.10800170898</ele>
        <time>2009-05-20T11:39:40Z</time>
      </trkpt>
      <trkpt lat="45.12054" lon="4.98425">
        <ele>212.10800170898</ele>
        <time>2009-05-20T11:39:44Z</time>
      </trkpt>
      <trkpt lat="45.12057" lon="4.98402">
        <ele>212.10800170898</ele>
        <time>2009-05-20T11:39:48Z</time>
      </trkpt>
      <trkpt lat="45.12056" lon="4.98397">
        <ele>212.10800170898</ele>
        <time>2009-05-20T11:39:49Z</time>
      </trkpt>
      <trkpt lat="45.12053" lon="4.9838">
        <ele>211.62699890137</ele>
        <time>2009-05-20T11:39:52Z</time>
      </trkpt>
      <trkpt lat="45.12055" lon="4.98367">
        <ele>211.14700317383</ele>
        <time>2009-05-20T11:39:54Z</time>
      </trkpt>
      <trkpt lat="45.12061" lon="4.98338">
        <ele>210.66600036621</ele>
        <time>2009-05-20T11:39:58Z</time>
      </trkpt>
      <trkpt lat="45.12064" lon="4.98314">
        <ele>210.18499755859</ele>
        <time>2009-05-20T11:40:01Z</time>
      </trkpt>
      <trkpt lat="45.12068" lon="4.98288">
        <ele>210.18499755859</ele>
        <time>2009-05-20T11:40:04Z</time>
      </trkpt>
      <trkpt lat="45.12071" lon="4.98263">
        <ele>210.66600036621</ele>
        <time>2009-05-20T11:40:07Z</time>
      </trkpt>
      <trkpt lat="45.12073" lon="4.98238">
        <ele>210.66600036621</ele>
        <time>2009-05-20T11:40:10Z</time>
      </trkpt>
      <trkpt lat="45.12073" lon="4.98214">
        <ele>210.66600036621</ele>
        <time>2009-05-20T11:40:13Z</time>
      </trkpt>
      <trkpt lat="45.12073" lon="4.9819">
        <ele>210.18499755859</ele>
        <time>2009-05-20T11:40:16Z</time>
      </trkpt>
      <trkpt lat="45.12071" lon="4.98167">
        <ele>209.70500183106</ele>
        <time>2009-05-20T11:40:19Z</time>
      </trkpt>
      <trkpt lat="45.12068" lon="4.98143">
        <ele>209.70500183106</ele>
        <time>2009-05-20T11:40:22Z</time>
      </trkpt>
      <trkpt lat="45.12064" lon="4.98119">
        <ele>209.70500183106</ele>
        <time>2009-05-20T11:40:25Z</time>
      </trkpt>
      <trkpt lat="45.12059" lon="4.98094">
        <ele>208.74299621582</ele>
        <time>2009-05-20T11:40:28Z</time>
      </trkpt>
      <trkpt lat="45.12053" lon="4.98069">
        <ele>208.74299621582</ele>
        <time>2009-05-20T11:40:31Z</time>
      </trkpt>
      <trkpt lat="45.12046" lon="4.98043">
        <ele>208.74299621582</ele>
        <time>2009-05-20T11:40:34Z</time>
      </trkpt>
      <trkpt lat="45.1204" lon="4.98017">
        <ele>208.26300048828</ele>
        <time>2009-05-20T11:40:37Z</time>
      </trkpt>
      <trkpt lat="45.12033" lon="4.97992">
        <ele>208.26300048828</ele>
        <time>2009-05-20T11:40:40Z</time>
      </trkpt>
      <trkpt lat="45.12026" lon="4.97968">
        <ele>208.26300048828</ele>
        <time>2009-05-20T11:40:43Z</time>
      </trkpt>
      <trkpt lat="45.1202" lon="4.97945">
        <ele>207.30099487305</ele>
        <time>2009-05-20T11:40:46Z</time>
      </trkpt>
      <trkpt lat="45.12015" lon="4.97921">
        <ele>207.30099487305</ele>
        <time>2009-05-20T11:40:49Z</time>
      </trkpt>
      <trkpt lat="45.1201" lon="4.97896">
        <ele>208.74299621582</ele>
        <time>2009-05-20T11:40:52Z</time>
      </trkpt>
      <trkpt lat="45.12009" lon="4.97888">
        <ele>208.26300048828</ele>
        <time>2009-05-20T11:40:53Z</time>
      </trkpt>
      <trkpt lat="45.12006" lon="4.97871">
        <ele>206.33999633789</ele>
        <time>2009-05-20T11:40:55Z</time>
      </trkpt>
      <trkpt lat="45.12001" lon="4.97846">
        <ele>206.33999633789</ele>
        <time>2009-05-20T11:40:58Z</time>
      </trkpt>
      <trkpt lat="45.11996" lon="4.9782">
        <ele>206.33999633789</ele>
        <time>2009-05-20T11:41:01Z</time>
      </trkpt>
      <trkpt lat="45.11992" lon="4.97793">
        <ele>206.33999633789</ele>
        <time>2009-05-20T11:41:04Z</time>
      </trkpt>
      <trkpt lat="45.11987" lon="4.97767">
        <ele>205.85899353027</ele>
        <time>2009-05-20T11:41:07Z</time>
      </trkpt>
      <trkpt lat="45.11983" lon="4.97741">
        <ele>205.85899353027</ele>
        <time>2009-05-20T11:41:10Z</time>
      </trkpt>
      <trkpt lat="45.11978" lon="4.97715">
        <ele>205.85899353027</ele>
        <time>2009-05-20T11:41:13Z</time>
      </trkpt>
      <trkpt lat="45.11974" lon="4.9769">
        <ele>205.85899353027</ele>
        <time>2009-05-20T11:41:16Z</time>
      </trkpt>
      <trkpt lat="45.11969" lon="4.97665">
        <ele>205.37899780273</ele>
        <time>2009-05-20T11:41:19Z</time>
      </trkpt>
      <trkpt lat="45.11965" lon="4.97641">
        <ele>205.85899353027</ele>
        <time>2009-05-20T11:41:22Z</time>
      </trkpt>
      <trkpt lat="45.11961" lon="4.97618">
        <ele>205.85899353027</ele>
        <time>2009-05-20T11:41:25Z</time>
      </trkpt>
      <trkpt lat="45.11959" lon="4.97611">
        <ele>205.85899353027</ele>
        <time>2009-05-20T11:41:26Z</time>
      </trkpt>
      <trkpt lat="45.11958" lon="4.97583">
        <ele>205.37899780273</ele>
        <time>2009-05-20T11:41:30Z</time>
      </trkpt>
      <trkpt lat="45.11951" lon="4.97563">
        <ele>205.37899780273</ele>
        <time>2009-05-20T11:41:33Z</time>
      </trkpt>
      <trkpt lat="45.11946" lon="4.97533">
        <ele>204.89799499512</ele>
        <time>2009-05-20T11:41:37Z</time>
      </trkpt>
      <trkpt lat="45.11942" lon="4.97508">
        <ele>204.89799499512</ele>
        <time>2009-05-20T11:41:40Z</time>
      </trkpt>
      <trkpt lat="45.11937" lon="4.97481">
        <ele>203.93699645996</ele>
        <time>2009-05-20T11:41:43Z</time>
      </trkpt>
      <trkpt lat="45.11932" lon="4.97454">
        <ele>203.93699645996</ele>
        <time>2009-05-20T11:41:46Z</time>
      </trkpt>
      <trkpt lat="45.11927" lon="4.97426">
        <ele>203.45599365234</ele>
        <time>2009-05-20T11:41:49Z</time>
      </trkpt>
      <trkpt lat="45.11922" lon="4.97397">
        <ele>203.93699645996</ele>
        <time>2009-05-20T11:41:52Z</time>
      </trkpt>
      <trkpt lat="45.11917" lon="4.97368">
        <ele>203.45599365234</ele>
        <time>2009-05-20T11:41:55Z</time>
      </trkpt>
      <trkpt lat="45.11912" lon="4.9734">
        <ele>202.49499511719</ele>
        <time>2009-05-20T11:41:58Z</time>
      </trkpt>
      <trkpt lat="45.11908" lon="4.97313">
        <ele>202.49499511719</ele>
        <time>2009-05-20T11:42:01Z</time>
      </trkpt>
      <trkpt lat="45.11903" lon="4.97287">
        <ele>202.97500610352</ele>
        <time>2009-05-20T11:42:04Z</time>
      </trkpt>
      <trkpt lat="45.11898" lon="4.97261">
        <ele>202.01400756836</ele>
        <time>2009-05-20T11:42:07Z</time>
      </trkpt>
      <trkpt lat="45.11894" lon="4.97235">
        <ele>202.97500610352</ele>
        <time>2009-05-20T11:42:10Z</time>
      </trkpt>
      <trkpt lat="45.1189" lon="4.97211">
        <ele>202.97500610352</ele>
        <time>2009-05-20T11:42:13Z</time>
      </trkpt>
      <trkpt lat="45.11886" lon="4.97189">
        <ele>203.45599365234</ele>
        <time>2009-05-20T11:42:16Z</time>
      </trkpt>
      <trkpt lat="45.11882" lon="4.97168">
        <ele>203.45599365234</ele>
        <time>2009-05-20T11:42:19Z</time>
      </trkpt>
      <trkpt lat="45.1188" lon="4.97154">
        <ele>203.93699645996</ele>
        <time>2009-05-20T11:42:21Z</time>
      </trkpt>
      <trkpt lat="45.1188" lon="4.97127">
        <ele>204.41700744629</ele>
        <time>2009-05-20T11:42:25Z</time>
      </trkpt>
      <trkpt lat="45.1189" lon="4.97099">
        <ele>204.89799499512</ele>
        <time>2009-05-20T11:42:30Z</time>
      </trkpt>
      <trkpt lat="45.11893" lon="4.97095">
        <ele>204.89799499512</ele>
        <time>2009-05-20T11:42:31Z</time>
      </trkpt>
      <trkpt lat="45.11901" lon="4.97064">
        <ele>205.37899780273</ele>
        <time>2009-05-20T11:42:37Z</time>
      </trkpt>
      <trkpt lat="45.11889" lon="4.97052">
        <ele>205.37899780273</ele>
        <time>2009-05-20T11:42:40Z</time>
      </trkpt>
      <trkpt lat="45.11875" lon="4.97039">
        <ele>204.89799499512</ele>
        <time>2009-05-20T11:42:43Z</time>
      </trkpt>
      <trkpt lat="45.11857" lon="4.97016">
        <ele>205.37899780273</ele>
        <time>2009-05-20T11:42:47Z</time>
      </trkpt>
      <trkpt lat="45.11843" lon="4.96998">
        <ele>204.89799499512</ele>
        <time>2009-05-20T11:42:50Z</time>
      </trkpt>
      <trkpt lat="45.11829" lon="4.96979">
        <ele>204.89799499512</ele>
        <time>2009-05-20T11:42:53Z</time>
      </trkpt>
      <trkpt lat="45.11816" lon="4.96959">
        <ele>204.89799499512</ele>
        <time>2009-05-20T11:42:56Z</time>
      </trkpt>
      <trkpt lat="45.11803" lon="4.9694">
        <ele>204.41700744629</ele>
        <time>2009-05-20T11:42:59Z</time>
      </trkpt>
      <trkpt lat="45.11791" lon="4.96921">
        <ele>204.89799499512</ele>
        <time>2009-05-20T11:43:02Z</time>
      </trkpt>
      <trkpt lat="45.11779" lon="4.96902">
        <ele>204.41700744629</ele>
        <time>2009-05-20T11:43:05Z</time>
      </trkpt>
      <trkpt lat="45.11771" lon="4.9689">
        <ele>204.41700744629</ele>
        <time>2009-05-20T11:43:07Z</time>
      </trkpt>
      <trkpt lat="45.11762" lon="4.96863">
        <ele>204.41700744629</ele>
        <time>2009-05-20T11:43:11Z</time>
      </trkpt>
      <trkpt lat="45.11762" lon="4.96856">
        <ele>204.41700744629</ele>
        <time>2009-05-20T11:43:12Z</time>
      </trkpt>
      <trkpt lat="45.11753" lon="4.96824">
        <ele>203.93699645996</ele>
        <time>2009-05-20T11:43:17Z</time>
      </trkpt>
      <trkpt lat="45.11743" lon="4.96819">
        <ele>204.41700744629</ele>
        <time>2009-05-20T11:43:19Z</time>
      </trkpt>
      <trkpt lat="45.11718" lon="4.96801">
        <ele>203.45599365234</ele>
        <time>2009-05-20T11:43:24Z</time>
      </trkpt>
      <trkpt lat="45.11703" lon="4.9678">
        <ele>203.45599365234</ele>
        <time>2009-05-20T11:43:28Z</time>
      </trkpt>
      <trkpt lat="45.11692" lon="4.96763">
        <ele>203.45599365234</ele>
        <time>2009-05-20T11:43:31Z</time>
      </trkpt>
      <trkpt lat="45.11682" lon="4.96745">
        <ele>203.45599365234</ele>
        <time>2009-05-20T11:43:34Z</time>
      </trkpt>
      <trkpt lat="45.11672" lon="4.96726">
        <ele>203.45599365234</ele>
        <time>2009-05-20T11:43:37Z</time>
      </trkpt>
      <trkpt lat="45.11663" lon="4.96706">
        <ele>202.49499511719</ele>
        <time>2009-05-20T11:43:40Z</time>
      </trkpt>
      <trkpt lat="45.11654" lon="4.96685">
        <ele>202.49499511719</ele>
        <time>2009-05-20T11:43:43Z</time>
      </trkpt>
      <trkpt lat="45.11645" lon="4.96663">
        <ele>202.49499511719</ele>
        <time>2009-05-20T11:43:46Z</time>
      </trkpt>
      <trkpt lat="45.11636" lon="4.96641">
        <ele>202.97500610352</ele>
        <time>2009-05-20T11:43:49Z</time>
      </trkpt>
      <trkpt lat="45.11628" lon="4.96618">
        <ele>202.97500610352</ele>
        <time>2009-05-20T11:43:52Z</time>
      </trkpt>
      <trkpt lat="45.11619" lon="4.96596">
        <ele>202.01400756836</ele>
        <time>2009-05-20T11:43:55Z</time>
      </trkpt>
      <trkpt lat="45.11611" lon="4.96574">
        <ele>201.53399658203</ele>
        <time>2009-05-20T11:43:58Z</time>
      </trkpt>
      <trkpt lat="45.11602" lon="4.96553">
        <ele>202.01400756836</ele>
        <time>2009-05-20T11:44:01Z</time>
      </trkpt>
      <trkpt lat="45.11594" lon="4.96532">
        <ele>202.01400756836</ele>
        <time>2009-05-20T11:44:04Z</time>
      </trkpt>
      <trkpt lat="45.11586" lon="4.96511">
        <ele>202.01400756836</ele>
        <time>2009-05-20T11:44:07Z</time>
      </trkpt>
      <trkpt lat="45.11576" lon="4.96491">
        <ele>202.01400756836</ele>
        <time>2009-05-20T11:44:10Z</time>
      </trkpt>
      <trkpt lat="45.11566" lon="4.96472">
        <ele>202.01400756836</ele>
        <time>2009-05-20T11:44:13Z</time>
      </trkpt>
      <trkpt lat="45.11556" lon="4.96455">
        <ele>202.49499511719</ele>
        <time>2009-05-20T11:44:16Z</time>
      </trkpt>
      <trkpt lat="45.11546" lon="4.96439">
        <ele>202.97500610352</ele>
        <time>2009-05-20T11:44:19Z</time>
      </trkpt>
      <trkpt lat="45.11533" lon="4.96418">
        <ele>202.01400756836</ele>
        <time>2009-05-20T11:44:23Z</time>
      </trkpt>
      <trkpt lat="45.11519" lon="4.96397">
        <ele>202.97500610352</ele>
        <time>2009-05-20T11:44:27Z</time>
      </trkpt>
      <trkpt lat="45.11509" lon="4.96381">
        <ele>203.45599365234</ele>
        <time>2009-05-20T11:44:30Z</time>
      </trkpt>
      <trkpt lat="45.11498" lon="4.96364">
        <ele>202.97500610352</ele>
        <time>2009-05-20T11:44:33Z</time>
      </trkpt>
      <trkpt lat="45.11487" lon="4.96347">
        <ele>203.93699645996</ele>
        <time>2009-05-20T11:44:36Z</time>
      </trkpt>
      <trkpt lat="45.11477" lon="4.96331">
        <ele>203.93699645996</ele>
        <time>2009-05-20T11:44:39Z</time>
      </trkpt>
      <trkpt lat="45.11466" lon="4.96315">
        <ele>204.41700744629</ele>
        <time>2009-05-20T11:44:42Z</time>
      </trkpt>
      <trkpt lat="45.11456" lon="4.96298">
        <ele>204.41700744629</ele>
        <time>2009-05-20T11:44:45Z</time>
      </trkpt>
      <trkpt lat="45.11445" lon="4.96281">
        <ele>204.89799499512</ele>
        <time>2009-05-20T11:44:48Z</time>
      </trkpt>
      <trkpt lat="45.11435" lon="4.96264">
        <ele>204.89799499512</ele>
        <time>2009-05-20T11:44:51Z</time>
      </trkpt>
      <trkpt lat="45.11426" lon="4.96246">
        <ele>204.89799499512</ele>
        <time>2009-05-20T11:44:54Z</time>
      </trkpt>
      <trkpt lat="45.11417" lon="4.96228">
        <ele>204.41700744629</ele>
        <time>2009-05-20T11:44:57Z</time>
      </trkpt>
      <trkpt lat="45.11407" lon="4.96209">
        <ele>204.41700744629</ele>
        <time>2009-05-20T11:45:00Z</time>
      </trkpt>
      <trkpt lat="45.11398" lon="4.96189">
        <ele>204.41700744629</ele>
        <time>2009-05-20T11:45:03Z</time>
      </trkpt>
      <trkpt lat="45.11388" lon="4.96169">
        <ele>203.93699645996</ele>
        <time>2009-05-20T11:45:06Z</time>
      </trkpt>
      <trkpt lat="45.11378" lon="4.96148">
        <ele>203.93699645996</ele>
        <time>2009-05-20T11:45:09Z</time>
      </trkpt>
      <trkpt lat="45.11368" lon="4.96128">
        <ele>202.97500610352</ele>
        <time>2009-05-20T11:45:12Z</time>
      </trkpt>
      <trkpt lat="45.11358" lon="4.96108">
        <ele>203.45599365234</ele>
        <time>2009-05-20T11:45:15Z</time>
      </trkpt>
      <trkpt lat="45.11348" lon="4.96087">
        <ele>203.93699645996</ele>
        <time>2009-05-20T11:45:18Z</time>
      </trkpt>
      <trkpt lat="45.11336" lon="4.96067">
        <ele>202.97500610352</ele>
        <time>2009-05-20T11:45:21Z</time>
      </trkpt>
      <trkpt lat="45.11323" lon="4.96046">
        <ele>202.49499511719</ele>
        <time>2009-05-20T11:45:24Z</time>
      </trkpt>
      <trkpt lat="45.1131" lon="4.96026">
        <ele>202.49499511719</ele>
        <time>2009-05-20T11:45:27Z</time>
      </trkpt>
      <trkpt lat="45.11293" lon="4.96">
        <ele>202.49499511719</ele>
        <time>2009-05-20T11:45:31Z</time>
      </trkpt>
      <trkpt lat="45.1128" lon="4.95978">
        <ele>202.49499511719</ele>
        <time>2009-05-20T11:45:34Z</time>
      </trkpt>
      <trkpt lat="45.11266" lon="4.95955">
        <ele>201.05299377441</ele>
        <time>2009-05-20T11:45:37Z</time>
      </trkpt>
      <trkpt lat="45.11254" lon="4.95933">
        <ele>200.57200622559</ele>
        <time>2009-05-20T11:45:40Z</time>
      </trkpt>
      <trkpt lat="45.1124" lon="4.95911">
        <ele>200.57200622559</ele>
        <time>2009-05-20T11:45:43Z</time>
      </trkpt>
      <trkpt lat="45.11227" lon="4.9589">
        <ele>200.09199523926</ele>
        <time>2009-05-20T11:45:46Z</time>
      </trkpt>
      <trkpt lat="45.11213" lon="4.9587">
        <ele>199.61099243164</ele>
        <time>2009-05-20T11:45:49Z</time>
      </trkpt>
      <trkpt lat="45.11199" lon="4.95851">
        <ele>200.09199523926</ele>
        <time>2009-05-20T11:45:52Z</time>
      </trkpt>
      <trkpt lat="45.11185" lon="4.95831">
        <ele>200.09199523926</ele>
        <time>2009-05-20T11:45:55Z</time>
      </trkpt>
      <trkpt lat="45.11172" lon="4.95812">
        <ele>200.09199523926</ele>
        <time>2009-05-20T11:45:58Z</time>
      </trkpt>
      <trkpt lat="45.11159" lon="4.95792">
        <ele>200.57200622559</ele>
        <time>2009-05-20T11:46:01Z</time>
      </trkpt>
      <trkpt lat="45.11147" lon="4.95771">
        <ele>200.57200622559</ele>
        <time>2009-05-20T11:46:04Z</time>
      </trkpt>
      <trkpt lat="45.11136" lon="4.9575">
        <ele>200.57200622559</ele>
        <time>2009-05-20T11:46:07Z</time>
      </trkpt>
      <trkpt lat="45.11126" lon="4.95729">
        <ele>200.57200622559</ele>
        <time>2009-05-20T11:46:10Z</time>
      </trkpt>
      <trkpt lat="45.11116" lon="4.95709">
        <ele>200.57200622559</ele>
        <time>2009-05-20T11:46:13Z</time>
      </trkpt>
      <trkpt lat="45.11108" lon="4.95696">
        <ele>200.57200622559</ele>
        <time>2009-05-20T11:46:15Z</time>
      </trkpt>
      <trkpt lat="45.11092" lon="4.95674">
        <ele>201.05299377441</ele>
        <time>2009-05-20T11:46:19Z</time>
      </trkpt>
      <trkpt lat="45.11079" lon="4.95661">
        <ele>201.05299377441</ele>
        <time>2009-05-20T11:46:22Z</time>
      </trkpt>
      <trkpt lat="45.11065" lon="4.95649">
        <ele>200.57200622559</ele>
        <time>2009-05-20T11:46:25Z</time>
      </trkpt>
      <trkpt lat="45.11052" lon="4.95636">
        <ele>200.57200622559</ele>
        <time>2009-05-20T11:46:28Z</time>
      </trkpt>
      <trkpt lat="45.11039" lon="4.95623">
        <ele>201.05299377441</ele>
        <time>2009-05-20T11:46:31Z</time>
      </trkpt>
      <trkpt lat="45.11027" lon="4.95608">
        <ele>200.57200622559</ele>
        <time>2009-05-20T11:46:34Z</time>
      </trkpt>
      <trkpt lat="45.11015" lon="4.95591">
        <ele>200.57200622559</ele>
        <time>2009-05-20T11:46:37Z</time>
      </trkpt>
      <trkpt lat="45.11002" lon="4.95573">
        <ele>199.61099243164</ele>
        <time>2009-05-20T11:46:40Z</time>
      </trkpt>
      <trkpt lat="45.1099" lon="4.95553">
        <ele>200.09199523926</ele>
        <time>2009-05-20T11:46:43Z</time>
      </trkpt>
      <trkpt lat="45.10979" lon="4.95532">
        <ele>199.13000488281</ele>
        <time>2009-05-20T11:46:46Z</time>
      </trkpt>
      <trkpt lat="45.1097" lon="4.95509">
        <ele>198.16900634766</ele>
        <time>2009-05-20T11:46:49Z</time>
      </trkpt>
      <trkpt lat="45.10962" lon="4.95484">
        <ele>198.16900634766</ele>
        <time>2009-05-20T11:46:52Z</time>
      </trkpt>
      <trkpt lat="45.10954" lon="4.95459">
        <ele>197.20799255371</ele>
        <time>2009-05-20T11:46:55Z</time>
      </trkpt>
      <trkpt lat="45.10947" lon="4.95432">
        <ele>197.20799255371</ele>
        <time>2009-05-20T11:46:58Z</time>
      </trkpt>
      <trkpt lat="45.10941" lon="4.95405">
        <ele>197.68800354004</ele>
        <time>2009-05-20T11:47:01Z</time>
      </trkpt>
      <trkpt lat="45.10934" lon="4.95379">
        <ele>198.16900634766</ele>
        <time>2009-05-20T11:47:04Z</time>
      </trkpt>
      <trkpt lat="45.10928" lon="4.95354">
        <ele>198.16900634766</ele>
        <time>2009-05-20T11:47:07Z</time>
      </trkpt>
      <trkpt lat="45.1092" lon="4.9533">
        <ele>197.68800354004</ele>
        <time>2009-05-20T11:47:10Z</time>
      </trkpt>
      <trkpt lat="45.10911" lon="4.95306">
        <ele>197.68800354004</ele>
        <time>2009-05-20T11:47:13Z</time>
      </trkpt>
      <trkpt lat="45.10903" lon="4.95284">
        <ele>197.68800354004</ele>
        <time>2009-05-20T11:47:16Z</time>
      </trkpt>
      <trkpt lat="45.10896" lon="4.95263">
        <ele>197.20799255371</ele>
        <time>2009-05-20T11:47:19Z</time>
      </trkpt>
      <trkpt lat="45.10889" lon="4.95243">
        <ele>199.13000488281</ele>
        <time>2009-05-20T11:47:22Z</time>
      </trkpt>
      <trkpt lat="45.10887" lon="4.95237">
        <ele>198.64999389648</ele>
        <time>2009-05-20T11:47:23Z</time>
      </trkpt>
      <trkpt lat="45.10879" lon="4.95212">
        <ele>199.61099243164</ele>
        <time>2009-05-20T11:47:27Z</time>
      </trkpt>
      <trkpt lat="45.10871" lon="4.95189">
        <ele>200.57200622559</ele>
        <time>2009-05-20T11:47:31Z</time>
      </trkpt>
      <trkpt lat="45.10863" lon="4.95167">
        <ele>201.05299377441</ele>
        <time>2009-05-20T11:47:35Z</time>
      </trkpt>
      <trkpt lat="45.10857" lon="4.95145">
        <ele>201.05299377441</ele>
        <time>2009-05-20T11:47:39Z</time>
      </trkpt>
      <trkpt lat="45.10853" lon="4.95122">
        <ele>202.49499511719</ele>
        <time>2009-05-20T11:47:43Z</time>
      </trkpt>
      <trkpt lat="45.1085" lon="4.95099">
        <ele>202.97500610352</ele>
        <time>2009-05-20T11:47:47Z</time>
      </trkpt>
      <trkpt lat="45.10849" lon="4.95093">
        <ele>203.93699645996</ele>
        <time>2009-05-20T11:47:48Z</time>
      </trkpt>
      <trkpt lat="45.10848" lon="4.95065">
        <ele>205.37899780273</ele>
        <time>2009-05-20T11:47:53Z</time>
      </trkpt>
      <trkpt lat="45.10849" lon="4.95042">
        <ele>207.30099487305</ele>
        <time>2009-05-20T11:47:57Z</time>
      </trkpt>
      <trkpt lat="45.10851" lon="4.95019">
        <ele>207.78199768066</ele>
        <time>2009-05-20T11:48:01Z</time>
      </trkpt>
      <trkpt lat="45.10851" lon="4.95008">
        <ele>208.26300048828</ele>
        <time>2009-05-20T11:48:03Z</time>
      </trkpt>
      <trkpt lat="45.10853" lon="4.94986">
        <ele>210.18499755859</ele>
        <time>2009-05-20T11:48:07Z</time>
      </trkpt>
      <trkpt lat="45.10854" lon="4.94965">
        <ele>211.62699890137</ele>
        <time>2009-05-20T11:48:11Z</time>
      </trkpt>
      <trkpt lat="45.10855" lon="4.94941">
        <ele>212.5890045166</ele>
        <time>2009-05-20T11:48:15Z</time>
      </trkpt>
      <trkpt lat="45.10858" lon="4.94918">
        <ele>214.03100585938</ele>
        <time>2009-05-20T11:48:19Z</time>
      </trkpt>
      <trkpt lat="45.10859" lon="4.94895">
        <ele>214.51100158691</ele>
        <time>2009-05-20T11:48:23Z</time>
      </trkpt>
      <trkpt lat="45.1086" lon="4.94873">
        <ele>214.99200439453</ele>
        <time>2009-05-20T11:48:27Z</time>
      </trkpt>
      <trkpt lat="45.10863" lon="4.94855">
        <ele>215.47300720215</ele>
        <time>2009-05-20T11:48:31Z</time>
      </trkpt>
      <trkpt lat="45.10869" lon="4.9484">
        <ele>216.43400573731</ele>
        <time>2009-05-20T11:48:35Z</time>
      </trkpt>
      <trkpt lat="45.10875" lon="4.94826">
        <ele>217.39500427246</ele>
        <time>2009-05-20T11:48:40Z</time>
      </trkpt>
      <trkpt lat="45.10873" lon="4.94811">
        <ele>217.87600708008</ele>
        <time>2009-05-20T11:48:45Z</time>
      </trkpt>
      <trkpt lat="45.10875" lon="4.94796">
        <ele>217.87600708008</ele>
        <time>2009-05-20T11:48:50Z</time>
      </trkpt>
      <trkpt lat="45.10878" lon="4.94783">
        <ele>217.39500427246</ele>
        <time>2009-05-20T11:48:54Z</time>
      </trkpt>
      <trkpt lat="45.10883" lon="4.9477">
        <ele>217.87600708008</ele>
        <time>2009-05-20T11:48:58Z</time>
      </trkpt>
      <trkpt lat="45.10887" lon="4.94755">
        <ele>217.39500427246</ele>
        <time>2009-05-20T11:49:02Z</time>
      </trkpt>
      <trkpt lat="45.10893" lon="4.94733">
        <ele>217.87600708008</ele>
        <time>2009-05-20T11:49:06Z</time>
      </trkpt>
      <trkpt lat="45.10901" lon="4.94708">
        <ele>217.87600708008</ele>
        <time>2009-05-20T11:49:10Z</time>
      </trkpt>
      <trkpt lat="45.10907" lon="4.94687">
        <ele>217.87600708008</ele>
        <time>2009-05-20T11:49:13Z</time>
      </trkpt>
      <trkpt lat="45.10913" lon="4.94665">
        <ele>217.39500427246</ele>
        <time>2009-05-20T11:49:16Z</time>
      </trkpt>
      <trkpt lat="45.10919" lon="4.94642">
        <ele>217.39500427246</ele>
        <time>2009-05-20T11:49:19Z</time>
      </trkpt>
      <trkpt lat="45.10924" lon="4.94617">
        <ele>216.91499328613</ele>
        <time>2009-05-20T11:49:22Z</time>
      </trkpt>
      <trkpt lat="45.10928" lon="4.94592">
        <ele>216.91499328613</ele>
        <time>2009-05-20T11:49:25Z</time>
      </trkpt>
      <trkpt lat="45.10929" lon="4.94566">
        <ele>216.91499328613</ele>
        <time>2009-05-20T11:49:28Z</time>
      </trkpt>
      <trkpt lat="45.10929" lon="4.9454">
        <ele>216.91499328613</ele>
        <time>2009-05-20T11:49:31Z</time>
      </trkpt>
      <trkpt lat="45.10928" lon="4.94513">
        <ele>216.43400573731</ele>
        <time>2009-05-20T11:49:34Z</time>
      </trkpt>
      <trkpt lat="45.10927" lon="4.94486">
        <ele>216.43400573731</ele>
        <time>2009-05-20T11:49:37Z</time>
      </trkpt>
      <trkpt lat="45.10926" lon="4.9446">
        <ele>215.95300292969</ele>
        <time>2009-05-20T11:49:40Z</time>
      </trkpt>
      <trkpt lat="45.10924" lon="4.94433">
        <ele>216.43400573731</ele>
        <time>2009-05-20T11:49:43Z</time>
      </trkpt>
      <trkpt lat="45.10923" lon="4.94407">
        <ele>216.43400573731</ele>
        <time>2009-05-20T11:49:46Z</time>
      </trkpt>
      <trkpt lat="45.10921" lon="4.94381">
        <ele>216.91499328613</ele>
        <time>2009-05-20T11:49:49Z</time>
      </trkpt>
      <trkpt lat="45.1092" lon="4.94356">
        <ele>216.91499328613</ele>
        <time>2009-05-20T11:49:52Z</time>
      </trkpt>
      <trkpt lat="45.10918" lon="4.94339">
        <ele>216.43400573731</ele>
        <time>2009-05-20T11:49:54Z</time>
      </trkpt>
      <trkpt lat="45.10909" lon="4.94309">
        <ele>216.43400573731</ele>
        <time>2009-05-20T11:49:58Z</time>
      </trkpt>
      <trkpt lat="45.10893" lon="4.94282">
        <ele>214.99200439453</ele>
        <time>2009-05-20T11:50:02Z</time>
      </trkpt>
      <trkpt lat="45.1088" lon="4.94266">
        <ele>214.99200439453</ele>
        <time>2009-05-20T11:50:05Z</time>
      </trkpt>
      <trkpt lat="45.10866" lon="4.9425">
        <ele>216.43400573731</ele>
        <time>2009-05-20T11:50:08Z</time>
      </trkpt>
      <trkpt lat="45.10852" lon="4.94233">
        <ele>214.99200439453</ele>
        <time>2009-05-20T11:50:11Z</time>
      </trkpt>
      <trkpt lat="45.10838" lon="4.94217">
        <ele>214.51100158691</ele>
        <time>2009-05-20T11:50:14Z</time>
      </trkpt>
      <trkpt lat="45.10823" lon="4.94201">
        <ele>214.99200439453</ele>
        <time>2009-05-20T11:50:17Z</time>
      </trkpt>
      <trkpt lat="45.1081" lon="4.94185">
        <ele>214.99200439453</ele>
        <time>2009-05-20T11:50:20Z</time>
      </trkpt>
      <trkpt lat="45.10797" lon="4.9417">
        <ele>214.99200439453</ele>
        <time>2009-05-20T11:50:23Z</time>
      </trkpt>
      <trkpt lat="45.10784" lon="4.94154">
        <ele>215.47300720215</ele>
        <time>2009-05-20T11:50:26Z</time>
      </trkpt>
      <trkpt lat="45.10772" lon="4.94138">
        <ele>215.47300720215</ele>
        <time>2009-05-20T11:50:29Z</time>
      </trkpt>
      <trkpt lat="45.10761" lon="4.94122">
        <ele>216.43400573731</ele>
        <time>2009-05-20T11:50:32Z</time>
      </trkpt>
      <trkpt lat="45.10751" lon="4.94105">
        <ele>216.91499328613</ele>
        <time>2009-05-20T11:50:35Z</time>
      </trkpt>
      <trkpt lat="45.10741" lon="4.94088">
        <ele>217.39500427246</ele>
        <time>2009-05-20T11:50:38Z</time>
      </trkpt>
      <trkpt lat="45.10732" lon="4.94069">
        <ele>217.87600708008</ele>
        <time>2009-05-20T11:50:41Z</time>
      </trkpt>
      <trkpt lat="45.10723" lon="4.9405">
        <ele>218.35699462891</ele>
        <time>2009-05-20T11:50:44Z</time>
      </trkpt>
      <trkpt lat="45.10716" lon="4.94029">
        <ele>218.35699462891</ele>
        <time>2009-05-20T11:50:47Z</time>
      </trkpt>
      <trkpt lat="45.10709" lon="4.94008">
        <ele>219.31799316406</ele>
        <time>2009-05-20T11:50:50Z</time>
      </trkpt>
      <trkpt lat="45.10703" lon="4.93986">
        <ele>219.79899597168</ele>
        <time>2009-05-20T11:50:53Z</time>
      </trkpt>
      <trkpt lat="45.10698" lon="4.93964">
        <ele>220.27900695801</ele>
        <time>2009-05-20T11:50:56Z</time>
      </trkpt>
      <trkpt lat="45.10695" lon="4.93942">
        <ele>220.75999450684</ele>
        <time>2009-05-20T11:50:59Z</time>
      </trkpt>
      <trkpt lat="45.10691" lon="4.93919">
        <ele>220.27900695801</ele>
        <time>2009-05-20T11:51:02Z</time>
      </trkpt>
      <trkpt lat="45.10688" lon="4.93896">
        <ele>220.75999450684</ele>
        <time>2009-05-20T11:51:05Z</time>
      </trkpt>
      <trkpt lat="45.10685" lon="4.93872">
        <ele>220.27900695801</ele>
        <time>2009-05-20T11:51:08Z</time>
      </trkpt>
      <trkpt lat="45.10683" lon="4.93847">
        <ele>219.79899597168</ele>
        <time>2009-05-20T11:51:11Z</time>
      </trkpt>
      <trkpt lat="45.1068" lon="4.93822">
        <ele>219.79899597168</ele>
        <time>2009-05-20T11:51:14Z</time>
      </trkpt>
      <trkpt lat="45.10677" lon="4.93796">
        <ele>219.79899597168</ele>
        <time>2009-05-20T11:51:17Z</time>
      </trkpt>
      <trkpt lat="45.10674" lon="4.93769">
        <ele>219.31799316406</ele>
        <time>2009-05-20T11:51:20Z</time>
      </trkpt>
      <trkpt lat="45.10671" lon="4.9374">
        <ele>218.35699462891</ele>
        <time>2009-05-20T11:51:23Z</time>
      </trkpt>
      <trkpt lat="45.10667" lon="4.93709">
        <ele>217.39500427246</ele>
        <time>2009-05-20T11:51:26Z</time>
      </trkpt>
      <trkpt lat="45.10664" lon="4.93675">
        <ele>215.47300720215</ele>
        <time>2009-05-20T11:51:29Z</time>
      </trkpt>
      <trkpt lat="45.10659" lon="4.93639">
        <ele>213.55000305176</ele>
        <time>2009-05-20T11:51:32Z</time>
      </trkpt>
      <trkpt lat="45.10653" lon="4.936">
        <ele>211.62699890137</ele>
        <time>2009-05-20T11:51:35Z</time>
      </trkpt>
      <trkpt lat="45.10645" lon="4.93559">
        <ele>209.70500183106</ele>
        <time>2009-05-20T11:51:38Z</time>
      </trkpt>
      <trkpt lat="45.10638" lon="4.93516">
        <ele>207.30099487305</ele>
        <time>2009-05-20T11:51:41Z</time>
      </trkpt>
      <trkpt lat="45.10629" lon="4.93471">
        <ele>205.37899780273</ele>
        <time>2009-05-20T11:51:44Z</time>
      </trkpt>
      <trkpt lat="45.1062" lon="4.93428">
        <ele>203.93699645996</ele>
        <time>2009-05-20T11:51:47Z</time>
      </trkpt>
      <trkpt lat="45.10611" lon="4.93385">
        <ele>202.97500610352</ele>
        <time>2009-05-20T11:51:50Z</time>
      </trkpt>
      <trkpt lat="45.10603" lon="4.93344">
        <ele>202.01400756836</ele>
        <time>2009-05-20T11:51:53Z</time>
      </trkpt>
      <trkpt lat="45.106" lon="4.93332">
        <ele>202.01400756836</ele>
        <time>2009-05-20T11:51:54Z</time>
      </trkpt>
      <trkpt lat="45.10593" lon="4.93295">
        <ele>201.53399658203</ele>
        <time>2009-05-20T11:51:57Z</time>
      </trkpt>
      <trkpt lat="45.10587" lon="4.9326">
        <ele>201.05299377441</ele>
        <time>2009-05-20T11:52:00Z</time>
      </trkpt>
      <trkpt lat="45.1058" lon="4.93225">
        <ele>200.09199523926</ele>
        <time>2009-05-20T11:52:03Z</time>
      </trkpt>
      <trkpt lat="45.10573" lon="4.93192">
        <ele>200.57200622559</ele>
        <time>2009-05-20T11:52:06Z</time>
      </trkpt>
      <trkpt lat="45.10567" lon="4.93161">
        <ele>200.09199523926</ele>
        <time>2009-05-20T11:52:09Z</time>
      </trkpt>
      <trkpt lat="45.10561" lon="4.93129">
        <ele>199.61099243164</ele>
        <time>2009-05-20T11:52:12Z</time>
      </trkpt>
      <trkpt lat="45.10555" lon="4.93099">
        <ele>199.61099243164</ele>
        <time>2009-05-20T11:52:15Z</time>
      </trkpt>
      <trkpt lat="45.1055" lon="4.93072">
        <ele>199.61099243164</ele>
        <time>2009-05-20T11:52:18Z</time>
      </trkpt>
      <trkpt lat="45.10545" lon="4.93046">
        <ele>199.61099243164</ele>
        <time>2009-05-20T11:52:21Z</time>
      </trkpt>
      <trkpt lat="45.1054" lon="4.93019">
        <ele>199.61099243164</ele>
        <time>2009-05-20T11:52:24Z</time>
      </trkpt>
      <trkpt lat="45.10534" lon="4.92992">
        <ele>199.13000488281</ele>
        <time>2009-05-20T11:52:27Z</time>
      </trkpt>
      <trkpt lat="45.10529" lon="4.92965">
        <ele>199.61099243164</ele>
        <time>2009-05-20T11:52:30Z</time>
      </trkpt>
      <trkpt lat="45.10524" lon="4.92938">
        <ele>199.13000488281</ele>
        <time>2009-05-20T11:52:33Z</time>
      </trkpt>
      <trkpt lat="45.10518" lon="4.92911">
        <ele>198.64999389648</ele>
        <time>2009-05-20T11:52:36Z</time>
      </trkpt>
      <trkpt lat="45.10513" lon="4.92884">
        <ele>198.64999389648</ele>
        <time>2009-05-20T11:52:39Z</time>
      </trkpt>
      <trkpt lat="45.10508" lon="4.92857">
        <ele>198.64999389648</ele>
        <time>2009-05-20T11:52:42Z</time>
      </trkpt>
      <trkpt lat="45.10503" lon="4.92831">
        <ele>198.64999389648</ele>
        <time>2009-05-20T11:52:45Z</time>
      </trkpt>
      <trkpt lat="45.10498" lon="4.92805">
        <ele>199.13000488281</ele>
        <time>2009-05-20T11:52:48Z</time>
      </trkpt>
      <trkpt lat="45.10493" lon="4.92779">
        <ele>198.64999389648</ele>
        <time>2009-05-20T11:52:51Z</time>
      </trkpt>
      <trkpt lat="45.1049" lon="4.92763">
        <ele>199.13000488281</ele>
        <time>2009-05-20T11:52:53Z</time>
      </trkpt>
      <trkpt lat="45.10482" lon="4.92732">
        <ele>198.64999389648</ele>
        <time>2009-05-20T11:52:57Z</time>
      </trkpt>
      <trkpt lat="45.10477" lon="4.92709">
        <ele>198.64999389648</ele>
        <time>2009-05-20T11:53:00Z</time>
      </trkpt>
      <trkpt lat="45.10472" lon="4.92686">
        <ele>198.64999389648</ele>
        <time>2009-05-20T11:53:03Z</time>
      </trkpt>
      <trkpt lat="45.10468" lon="4.92661">
        <ele>198.64999389648</ele>
        <time>2009-05-20T11:53:06Z</time>
      </trkpt>
      <trkpt lat="45.10464" lon="4.92635">
        <ele>198.64999389648</ele>
        <time>2009-05-20T11:53:09Z</time>
      </trkpt>
      <trkpt lat="45.1046" lon="4.92611">
        <ele>198.64999389648</ele>
        <time>2009-05-20T11:53:12Z</time>
      </trkpt>
      <trkpt lat="45.10456" lon="4.92587">
        <ele>198.16900634766</ele>
        <time>2009-05-20T11:53:15Z</time>
      </trkpt>
      <trkpt lat="45.10452" lon="4.9256">
        <ele>197.68800354004</ele>
        <time>2009-05-20T11:53:18Z</time>
      </trkpt>
      <trkpt lat="45.10447" lon="4.92531">
        <ele>197.68800354004</ele>
        <time>2009-05-20T11:53:21Z</time>
      </trkpt>
      <trkpt lat="45.10442" lon="4.92502">
        <ele>197.20799255371</ele>
        <time>2009-05-20T11:53:24Z</time>
      </trkpt>
      <trkpt lat="45.10436" lon="4.92472">
        <ele>196.24600219727</ele>
        <time>2009-05-20T11:53:27Z</time>
      </trkpt>
      <trkpt lat="45.10431" lon="4.92442">
        <ele>195.76600646973</ele>
        <time>2009-05-20T11:53:30Z</time>
      </trkpt>
      <trkpt lat="45.10426" lon="4.92412">
        <ele>195.28500366211</ele>
        <time>2009-05-20T11:53:33Z</time>
      </trkpt>
      <trkpt lat="45.1042" lon="4.92382">
        <ele>194.80400085449</ele>
        <time>2009-05-20T11:53:36Z</time>
      </trkpt>
      <trkpt lat="45.10415" lon="4.92352">
        <ele>194.80400085449</ele>
        <time>2009-05-20T11:53:39Z</time>
      </trkpt>
      <trkpt lat="45.1041" lon="4.92322">
        <ele>194.32400512695</ele>
        <time>2009-05-20T11:53:42Z</time>
      </trkpt>
      <trkpt lat="45.10404" lon="4.92292">
        <ele>194.32400512695</ele>
        <time>2009-05-20T11:53:45Z</time>
      </trkpt>
      <trkpt lat="45.10399" lon="4.92264">
        <ele>194.80400085449</ele>
        <time>2009-05-20T11:53:48Z</time>
      </trkpt>
      <trkpt lat="45.10394" lon="4.92236">
        <ele>194.32400512695</ele>
        <time>2009-05-20T11:53:51Z</time>
      </trkpt>
      <trkpt lat="45.10389" lon="4.92207">
        <ele>194.32400512695</ele>
        <time>2009-05-20T11:53:54Z</time>
      </trkpt>
      <trkpt lat="45.10384" lon="4.9218">
        <ele>194.32400512695</ele>
        <time>2009-05-20T11:53:57Z</time>
      </trkpt>
      <trkpt lat="45.10379" lon="4.92153">
        <ele>194.80400085449</ele>
        <time>2009-05-20T11:54:00Z</time>
      </trkpt>
      <trkpt lat="45.10374" lon="4.92125">
        <ele>194.80400085449</ele>
        <time>2009-05-20T11:54:03Z</time>
      </trkpt>
      <trkpt lat="45.10369" lon="4.92098">
        <ele>194.80400085449</ele>
        <time>2009-05-20T11:54:06Z</time>
      </trkpt>
      <trkpt lat="45.10365" lon="4.92072">
        <ele>194.80400085449</ele>
        <time>2009-05-20T11:54:09Z</time>
      </trkpt>
      <trkpt lat="45.1036" lon="4.92046">
        <ele>195.28500366211</ele>
        <time>2009-05-20T11:54:12Z</time>
      </trkpt>
      <trkpt lat="45.10356" lon="4.92021">
        <ele>195.28500366211</ele>
        <time>2009-05-20T11:54:15Z</time>
      </trkpt>
      <trkpt lat="45.10352" lon="4.91996">
        <ele>195.28500366211</ele>
        <time>2009-05-20T11:54:18Z</time>
      </trkpt>
      <trkpt lat="45.10347" lon="4.91972">
        <ele>195.28500366211</ele>
        <time>2009-05-20T11:54:21Z</time>
      </trkpt>
      <trkpt lat="45.10343" lon="4.91948">
        <ele>195.28500366211</ele>
        <time>2009-05-20T11:54:24Z</time>
      </trkpt>
      <trkpt lat="45.10339" lon="4.91923">
        <ele>195.76600646973</ele>
        <time>2009-05-20T11:54:27Z</time>
      </trkpt>
      <trkpt lat="45.10334" lon="4.91899">
        <ele>195.76600646973</ele>
        <time>2009-05-20T11:54:30Z</time>
      </trkpt>
      <trkpt lat="45.1033" lon="4.91875">
        <ele>196.72700500488</ele>
        <time>2009-05-20T11:54:33Z</time>
      </trkpt>
      <trkpt lat="45.10326" lon="4.91851">
        <ele>196.72700500488</ele>
        <time>2009-05-20T11:54:36Z</time>
      </trkpt>
      <trkpt lat="45.10321" lon="4.91828">
        <ele>196.72700500488</ele>
        <time>2009-05-20T11:54:39Z</time>
      </trkpt>
      <trkpt lat="45.10318" lon="4.91805">
        <ele>197.68800354004</ele>
        <time>2009-05-20T11:54:42Z</time>
      </trkpt>
      <trkpt lat="45.10316" lon="4.91789">
        <ele>197.20799255371</ele>
        <time>2009-05-20T11:54:44Z</time>
      </trkpt>
      <trkpt lat="45.10305" lon="4.91764">
        <ele>197.68800354004</ele>
        <time>2009-05-20T11:54:48Z</time>
      </trkpt>
      <trkpt lat="45.1029" lon="4.91756">
        <ele>197.68800354004</ele>
        <time>2009-05-20T11:54:51Z</time>
      </trkpt>
      <trkpt lat="45.10284" lon="4.91757">
        <ele>198.16900634766</ele>
        <time>2009-05-20T11:54:52Z</time>
      </trkpt>
      <trkpt lat="45.10261" lon="4.9176">
        <ele>198.16900634766</ele>
        <time>2009-05-20T11:54:56Z</time>
      </trkpt>
      <trkpt lat="45.10243" lon="4.91762">
        <ele>197.68800354004</ele>
        <time>2009-05-20T11:54:59Z</time>
      </trkpt>
      <trkpt lat="45.10225" lon="4.91766">
        <ele>198.16900634766</ele>
        <time>2009-05-20T11:55:02Z</time>
      </trkpt>
      <trkpt lat="45.10207" lon="4.91769">
        <ele>197.20799255371</ele>
        <time>2009-05-20T11:55:05Z</time>
      </trkpt>
      <trkpt lat="45.10191" lon="4.91771">
        <ele>195.28500366211</ele>
        <time>2009-05-20T11:55:08Z</time>
      </trkpt>
      <trkpt lat="45.10174" lon="4.91774">
        <ele>195.76600646973</ele>
        <time>2009-05-20T11:55:11Z</time>
      </trkpt>
      <trkpt lat="45.10158" lon="4.91776">
        <ele>196.24600219727</ele>
        <time>2009-05-20T11:55:14Z</time>
      </trkpt>
      <trkpt lat="45.10141" lon="4.91779">
        <ele>196.24600219727</ele>
        <time>2009-05-20T11:55:17Z</time>
      </trkpt>
      <trkpt lat="45.10125" lon="4.91781">
        <ele>196.24600219727</ele>
        <time>2009-05-20T11:55:20Z</time>
      </trkpt>
      <trkpt lat="45.10108" lon="4.91784">
        <ele>196.24600219727</ele>
        <time>2009-05-20T11:55:23Z</time>
      </trkpt>
      <trkpt lat="45.10092" lon="4.91787">
        <ele>197.20799255371</ele>
        <time>2009-05-20T11:55:26Z</time>
      </trkpt>
      <trkpt lat="45.10075" lon="4.91789">
        <ele>196.72700500488</ele>
        <time>2009-05-20T11:55:29Z</time>
      </trkpt>
      <trkpt lat="45.10058" lon="4.91792">
        <ele>196.72700500488</ele>
        <time>2009-05-20T11:55:32Z</time>
      </trkpt>
      <trkpt lat="45.10042" lon="4.91795">
        <ele>196.72700500488</ele>
        <time>2009-05-20T11:55:35Z</time>
      </trkpt>
      <trkpt lat="45.10026" lon="4.91798">
        <ele>197.20799255371</ele>
        <time>2009-05-20T11:55:38Z</time>
      </trkpt>
      <trkpt lat="45.1001" lon="4.91801">
        <ele>196.72700500488</ele>
        <time>2009-05-20T11:55:41Z</time>
      </trkpt>
      <trkpt lat="45.09994" lon="4.91805">
        <ele>196.72700500488</ele>
        <time>2009-05-20T11:55:44Z</time>
      </trkpt>
      <trkpt lat="45.09978" lon="4.91808">
        <ele>197.20799255371</ele>
        <time>2009-05-20T11:55:47Z</time>
      </trkpt>
      <trkpt lat="45.09963" lon="4.91811">
        <ele>197.20799255371</ele>
        <time>2009-05-20T11:55:50Z</time>
      </trkpt>
      <trkpt lat="45.09948" lon="4.91814">
        <ele>197.68800354004</ele>
        <time>2009-05-20T11:55:53Z</time>
      </trkpt>
      <trkpt lat="45.09932" lon="4.91817">
        <ele>197.20799255371</ele>
        <time>2009-05-20T11:55:56Z</time>
      </trkpt>
      <trkpt lat="45.09916" lon="4.91821">
        <ele>197.68800354004</ele>
        <time>2009-05-20T11:55:59Z</time>
      </trkpt>
      <trkpt lat="45.09901" lon="4.91823">
        <ele>198.16900634766</ele>
        <time>2009-05-20T11:56:02Z</time>
      </trkpt>
      <trkpt lat="45.09885" lon="4.91827">
        <ele>197.68800354004</ele>
        <time>2009-05-20T11:56:05Z</time>
      </trkpt>
      <trkpt lat="45.0987" lon="4.91829">
        <ele>197.68800354004</ele>
        <time>2009-05-20T11:56:08Z</time>
      </trkpt>
      <trkpt lat="45.09854" lon="4.91833">
        <ele>198.16900634766</ele>
        <time>2009-05-20T11:56:11Z</time>
      </trkpt>
      <trkpt lat="45.09838" lon="4.91836">
        <ele>198.16900634766</ele>
        <time>2009-05-20T11:56:14Z</time>
      </trkpt>
      <trkpt lat="45.09822" lon="4.91839">
        <ele>197.68800354004</ele>
        <time>2009-05-20T11:56:17Z</time>
      </trkpt>
      <trkpt lat="45.09807" lon="4.91841">
        <ele>198.16900634766</ele>
        <time>2009-05-20T11:56:20Z</time>
      </trkpt>
      <trkpt lat="45.09792" lon="4.91844">
        <ele>198.64999389648</ele>
        <time>2009-05-20T11:56:23Z</time>
      </trkpt>
      <trkpt lat="45.09777" lon="4.91847">
        <ele>199.13000488281</ele>
        <time>2009-05-20T11:56:26Z</time>
      </trkpt>
      <trkpt lat="45.09762" lon="4.9185">
        <ele>199.61099243164</ele>
        <time>2009-05-20T11:56:29Z</time>
      </trkpt>
      <trkpt lat="45.09747" lon="4.91853">
        <ele>199.61099243164</ele>
        <time>2009-05-20T11:56:32Z</time>
      </trkpt>
      <trkpt lat="45.09731" lon="4.91855">
        <ele>200.09199523926</ele>
        <time>2009-05-20T11:56:35Z</time>
      </trkpt>
      <trkpt lat="45.09716" lon="4.91858">
        <ele>200.57200622559</ele>
        <time>2009-05-20T11:56:38Z</time>
      </trkpt>
      <trkpt lat="45.09701" lon="4.91861">
        <ele>200.57200622559</ele>
        <time>2009-05-20T11:56:41Z</time>
      </trkpt>
      <trkpt lat="45.09681" lon="4.91865">
        <ele>200.57200622559</ele>
        <time>2009-05-20T11:56:45Z</time>
      </trkpt>
      <trkpt lat="45.09662" lon="4.91868">
        <ele>201.53399658203</ele>
        <time>2009-05-20T11:56:49Z</time>
      </trkpt>
      <trkpt lat="45.09642" lon="4.91871">
        <ele>202.01400756836</ele>
        <time>2009-05-20T11:56:53Z</time>
      </trkpt>
      <trkpt lat="45.09623" lon="4.91874">
        <ele>202.01400756836</ele>
        <time>2009-05-20T11:56:57Z</time>
      </trkpt>
      <trkpt lat="45.09604" lon="4.91877">
        <ele>202.49499511719</ele>
        <time>2009-05-20T11:57:01Z</time>
      </trkpt>
      <trkpt lat="45.09584" lon="4.9188">
        <ele>202.49499511719</ele>
        <time>2009-05-20T11:57:05Z</time>
      </trkpt>
      <trkpt lat="45.09565" lon="4.91884">
        <ele>203.45599365234</ele>
        <time>2009-05-20T11:57:09Z</time>
      </trkpt>
      <trkpt lat="45.09545" lon="4.91886">
        <ele>202.97500610352</ele>
        <time>2009-05-20T11:57:13Z</time>
      </trkpt>
      <trkpt lat="45.09526" lon="4.91889">
        <ele>203.93699645996</ele>
        <time>2009-05-20T11:57:17Z</time>
      </trkpt>
      <trkpt lat="45.09508" lon="4.91889">
        <ele>203.93699645996</ele>
        <time>2009-05-20T11:57:21Z</time>
      </trkpt>
      <trkpt lat="45.09489" lon="4.91887">
        <ele>204.41700744629</ele>
        <time>2009-05-20T11:57:25Z</time>
      </trkpt>
      <trkpt lat="45.0947" lon="4.91882">
        <ele>204.89799499512</ele>
        <time>2009-05-20T11:57:29Z</time>
      </trkpt>
      <trkpt lat="45.09452" lon="4.91876">
        <ele>205.85899353027</ele>
        <time>2009-05-20T11:57:33Z</time>
      </trkpt>
      <trkpt lat="45.09436" lon="4.9187">
        <ele>207.30099487305</ele>
        <time>2009-05-20T11:57:37Z</time>
      </trkpt>
      <trkpt lat="45.0942" lon="4.91864">
        <ele>207.78199768066</ele>
        <time>2009-05-20T11:57:41Z</time>
      </trkpt>
      <trkpt lat="45.09405" lon="4.91859">
        <ele>208.26300048828</ele>
        <time>2009-05-20T11:57:45Z</time>
      </trkpt>
      <trkpt lat="45.09389" lon="4.91854">
        <ele>209.22399902344</ele>
        <time>2009-05-20T11:57:49Z</time>
      </trkpt>
      <trkpt lat="45.09374" lon="4.91848">
        <ele>210.18499755859</ele>
        <time>2009-05-20T11:57:53Z</time>
      </trkpt>
      <trkpt lat="45.09359" lon="4.91843">
        <ele>211.14700317383</ele>
        <time>2009-05-20T11:57:57Z</time>
      </trkpt>
      <trkpt lat="45.09343" lon="4.91837">
        <ele>211.62699890137</ele>
        <time>2009-05-20T11:58:01Z</time>
      </trkpt>
      <trkpt lat="45.09328" lon="4.91832">
        <ele>212.10800170898</ele>
        <time>2009-05-20T11:58:05Z</time>
      </trkpt>
      <trkpt lat="45.09313" lon="4.91826">
        <ele>213.55000305176</ele>
        <time>2009-05-20T11:58:09Z</time>
      </trkpt>
      <trkpt lat="45.09298" lon="4.91821">
        <ele>213.55000305176</ele>
        <time>2009-05-20T11:58:13Z</time>
      </trkpt>
      <trkpt lat="45.09283" lon="4.91815">
        <ele>214.51100158691</ele>
        <time>2009-05-20T11:58:17Z</time>
      </trkpt>
      <trkpt lat="45.09267" lon="4.9181">
        <ele>215.95300292969</ele>
        <time>2009-05-20T11:58:21Z</time>
      </trkpt>
      <trkpt lat="45.09253" lon="4.91806">
        <ele>215.95300292969</ele>
        <time>2009-05-20T11:58:25Z</time>
      </trkpt>
      <trkpt lat="45.09238" lon="4.91804">
        <ele>217.39500427246</ele>
        <time>2009-05-20T11:58:29Z</time>
      </trkpt>
      <trkpt lat="45.09224" lon="4.91804">
        <ele>218.35699462891</ele>
        <time>2009-05-20T11:58:33Z</time>
      </trkpt>
      <trkpt lat="45.09211" lon="4.91806">
        <ele>218.83700561523</ele>
        <time>2009-05-20T11:58:37Z</time>
      </trkpt>
      <trkpt lat="45.09197" lon="4.9181">
        <ele>219.79899597168</ele>
        <time>2009-05-20T11:58:41Z</time>
      </trkpt>
      <trkpt lat="45.09184" lon="4.91815">
        <ele>220.75999450684</ele>
        <time>2009-05-20T11:58:45Z</time>
      </trkpt>
      <trkpt lat="45.09171" lon="4.91819">
        <ele>221.72099304199</ele>
        <time>2009-05-20T11:58:49Z</time>
      </trkpt>
      <trkpt lat="45.09158" lon="4.91824">
        <ele>223.16299438477</ele>
        <time>2009-05-20T11:58:53Z</time>
      </trkpt>
      <trkpt lat="45.09144" lon="4.91829">
        <ele>224.125</ele>
        <time>2009-05-20T11:58:57Z</time>
      </trkpt>
      <trkpt lat="45.09131" lon="4.91834">
        <ele>224.60499572754</ele>
        <time>2009-05-20T11:59:01Z</time>
      </trkpt>
      <trkpt lat="45.09118" lon="4.91838">
        <ele>225.08599853516</ele>
        <time>2009-05-20T11:59:05Z</time>
      </trkpt>
      <trkpt lat="45.09104" lon="4.91844">
        <ele>225.56700134277</ele>
        <time>2009-05-20T11:59:09Z</time>
      </trkpt>
      <trkpt lat="45.0909" lon="4.91849">
        <ele>226.52799987793</ele>
        <time>2009-05-20T11:59:13Z</time>
      </trkpt>
      <trkpt lat="45.09077" lon="4.91854">
        <ele>227.48899841309</ele>
        <time>2009-05-20T11:59:17Z</time>
      </trkpt>
      <trkpt lat="45.09063" lon="4.91859">
        <ele>228.44999694824</ele>
        <time>2009-05-20T11:59:21Z</time>
      </trkpt>
      <trkpt lat="45.09049" lon="4.91864">
        <ele>228.93099975586</ele>
        <time>2009-05-20T11:59:25Z</time>
      </trkpt>
      <trkpt lat="45.09035" lon="4.91868">
        <ele>229.41200256348</ele>
        <time>2009-05-20T11:59:29Z</time>
      </trkpt>
      <trkpt lat="45.0902" lon="4.91871">
        <ele>229.89199829102</ele>
        <time>2009-05-20T11:59:33Z</time>
      </trkpt>
      <trkpt lat="45.09005" lon="4.91875">
        <ele>230.85400390625</ele>
        <time>2009-05-20T11:59:37Z</time>
      </trkpt>
      <trkpt lat="45.0899" lon="4.91878">
        <ele>231.33399963379</ele>
        <time>2009-05-20T11:59:41Z</time>
      </trkpt>
      <trkpt lat="45.08974" lon="4.91881">
        <ele>231.81500244141</ele>
        <time>2009-05-20T11:59:45Z</time>
      </trkpt>
      <trkpt lat="45.08958" lon="4.91885">
        <ele>232.29600524902</ele>
        <time>2009-05-20T11:59:49Z</time>
      </trkpt>
      <trkpt lat="45.08943" lon="4.91889">
        <ele>232.77600097656</ele>
        <time>2009-05-20T11:59:53Z</time>
      </trkpt>
      <trkpt lat="45.08927" lon="4.91892">
        <ele>233.25700378418</ele>
        <time>2009-05-20T11:59:57Z</time>
      </trkpt>
      <trkpt lat="45.08912" lon="4.91895">
        <ele>233.7380065918</ele>
        <time>2009-05-20T12:00:01Z</time>
      </trkpt>
      <trkpt lat="45.08895" lon="4.91899">
        <ele>234.21800231934</ele>
        <time>2009-05-20T12:00:05Z</time>
      </trkpt>
      <trkpt lat="45.08879" lon="4.91901">
        <ele>234.69900512695</ele>
        <time>2009-05-20T12:00:09Z</time>
      </trkpt>
      <trkpt lat="45.08863" lon="4.91903">
        <ele>235.66000366211</ele>
        <time>2009-05-20T12:00:13Z</time>
      </trkpt>
      <trkpt lat="45.08847" lon="4.91904">
        <ele>236.14100646973</ele>
        <time>2009-05-20T12:00:17Z</time>
      </trkpt>
      <trkpt lat="45.08831" lon="4.91906">
        <ele>236.14100646973</ele>
        <time>2009-05-20T12:00:21Z</time>
      </trkpt>
      <trkpt lat="45.08815" lon="4.91907">
        <ele>236.62199401856</ele>
        <time>2009-05-20T12:00:25Z</time>
      </trkpt>
      <trkpt lat="45.08799" lon="4.91909">
        <ele>237.10200500488</ele>
        <time>2009-05-20T12:00:29Z</time>
      </trkpt>
      <trkpt lat="45.08783" lon="4.9191">
        <ele>237.58299255371</ele>
        <time>2009-05-20T12:00:33Z</time>
      </trkpt>
      <trkpt lat="45.08767" lon="4.91911">
        <ele>238.06399536133</ele>
        <time>2009-05-20T12:00:37Z</time>
      </trkpt>
      <trkpt lat="45.08751" lon="4.91913">
        <ele>239.02499389648</ele>
        <time>2009-05-20T12:00:41Z</time>
      </trkpt>
      <trkpt lat="45.08734" lon="4.91914">
        <ele>239.02499389648</ele>
        <time>2009-05-20T12:00:45Z</time>
      </trkpt>
      <trkpt lat="45.08717" lon="4.91915">
        <ele>239.50500488281</ele>
        <time>2009-05-20T12:00:49Z</time>
      </trkpt>
      <trkpt lat="45.08701" lon="4.91916">
        <ele>240.46699523926</ele>
        <time>2009-05-20T12:00:53Z</time>
      </trkpt>
      <trkpt lat="45.08686" lon="4.91918">
        <ele>240.94799804688</ele>
        <time>2009-05-20T12:00:57Z</time>
      </trkpt>
      <trkpt lat="45.0867" lon="4.91919">
        <ele>241.42799377441</ele>
        <time>2009-05-20T12:01:01Z</time>
      </trkpt>
      <trkpt lat="45.08655" lon="4.9192">
        <ele>242.38999938965</ele>
        <time>2009-05-20T12:01:05Z</time>
      </trkpt>
      <trkpt lat="45.08639" lon="4.91921">
        <ele>242.86999511719</ele>
        <time>2009-05-20T12:01:09Z</time>
      </trkpt>
      <trkpt lat="45.08623" lon="4.91923">
        <ele>243.35099792481</ele>
        <time>2009-05-20T12:01:13Z</time>
      </trkpt>
      <trkpt lat="45.08607" lon="4.91925">
        <ele>244.31199645996</ele>
        <time>2009-05-20T12:01:17Z</time>
      </trkpt>
      <trkpt lat="45.08592" lon="4.91929">
        <ele>244.79299926758</ele>
        <time>2009-05-20T12:01:21Z</time>
      </trkpt>
      <trkpt lat="45.08576" lon="4.91934">
        <ele>245.27299499512</ele>
        <time>2009-05-20T12:01:25Z</time>
      </trkpt>
      <trkpt lat="45.08561" lon="4.9194">
        <ele>245.75399780273</ele>
        <time>2009-05-20T12:01:29Z</time>
      </trkpt>
      <trkpt lat="45.08546" lon="4.91947">
        <ele>246.71499633789</ele>
        <time>2009-05-20T12:01:33Z</time>
      </trkpt>
      <trkpt lat="45.08532" lon="4.91953">
        <ele>247.19599914551</ele>
        <time>2009-05-20T12:01:37Z</time>
      </trkpt>
      <trkpt lat="45.08516" lon="4.91959">
        <ele>247.19599914551</ele>
        <time>2009-05-20T12:01:41Z</time>
      </trkpt>
      <trkpt lat="45.085" lon="4.91966">
        <ele>248.15800476074</ele>
        <time>2009-05-20T12:01:45Z</time>
      </trkpt>
      <trkpt lat="45.08484" lon="4.91973">
        <ele>247.67700195312</ele>
        <time>2009-05-20T12:01:49Z</time>
      </trkpt>
      <trkpt lat="45.08465" lon="4.9198">
        <ele>247.67700195312</ele>
        <time>2009-05-20T12:01:53Z</time>
      </trkpt>
      <trkpt lat="45.08447" lon="4.91989">
        <ele>247.67700195312</ele>
        <time>2009-05-20T12:01:57Z</time>
      </trkpt>
      <trkpt lat="45.08432" lon="4.91995">
        <ele>247.19599914551</ele>
        <time>2009-05-20T12:02:00Z</time>
      </trkpt>
      <trkpt lat="45.08413" lon="4.92003">
        <ele>246.71499633789</ele>
        <time>2009-05-20T12:02:04Z</time>
      </trkpt>
      <trkpt lat="45.08398" lon="4.92009">
        <ele>246.23500061035</ele>
        <time>2009-05-20T12:02:07Z</time>
      </trkpt>
      <trkpt lat="45.08382" lon="4.92016">
        <ele>246.23500061035</ele>
        <time>2009-05-20T12:02:10Z</time>
      </trkpt>
      <trkpt lat="45.08363" lon="4.92025">
        <ele>245.75399780273</ele>
        <time>2009-05-20T12:02:14Z</time>
      </trkpt>
      <trkpt lat="45.08353" lon="4.92029">
        <ele>245.75399780273</ele>
        <time>2009-05-20T12:02:16Z</time>
      </trkpt>
      <trkpt lat="45.08333" lon="4.92031">
        <ele>245.27299499512</ele>
        <time>2009-05-20T12:02:20Z</time>
      </trkpt>
      <trkpt lat="45.0831" lon="4.92033">
        <ele>244.79299926758</ele>
        <time>2009-05-20T12:02:24Z</time>
      </trkpt>
      <trkpt lat="45.08304" lon="4.92034">
        <ele>245.27299499512</ele>
        <time>2009-05-20T12:02:25Z</time>
      </trkpt>
      <trkpt lat="45.08282" lon="4.92033">
        <ele>246.23500061035</ele>
        <time>2009-05-20T12:02:29Z</time>
      </trkpt>
      <trkpt lat="45.08262" lon="4.92035">
        <ele>246.71499633789</ele>
        <time>2009-05-20T12:02:33Z</time>
      </trkpt>
      <trkpt lat="45.08257" lon="4.92035">
        <ele>247.19599914551</ele>
        <time>2009-05-20T12:02:34Z</time>
      </trkpt>
      <trkpt lat="45.08236" lon="4.92027">
        <ele>248.15800476074</ele>
        <time>2009-05-20T12:02:39Z</time>
      </trkpt>
      <trkpt lat="45.08228" lon="4.92023">
        <ele>248.15800476074</ele>
        <time>2009-05-20T12:02:41Z</time>
      </trkpt>
      <trkpt lat="45.0821" lon="4.92003">
        <ele>249.1190032959</ele>
        <time>2009-05-20T12:02:46Z</time>
      </trkpt>
      <trkpt lat="45.08199" lon="4.91985">
        <ele>249.59899902344</ele>
        <time>2009-05-20T12:02:50Z</time>
      </trkpt>
      <trkpt lat="45.08191" lon="4.91966">
        <ele>250.08000183106</ele>
        <time>2009-05-20T12:02:54Z</time>
      </trkpt>
      <trkpt lat="45.08183" lon="4.91946">
        <ele>250.56100463867</ele>
        <time>2009-05-20T12:02:58Z</time>
      </trkpt>
      <trkpt lat="45.08175" lon="4.91925">
        <ele>250.56100463867</ele>
        <time>2009-05-20T12:03:02Z</time>
      </trkpt>
      <trkpt lat="45.08168" lon="4.91907">
        <ele>250.08000183106</ele>
        <time>2009-05-20T12:03:06Z</time>
      </trkpt>
      <trkpt lat="45.08162" lon="4.91891">
        <ele>249.1190032959</ele>
        <time>2009-05-20T12:03:10Z</time>
      </trkpt>
      <trkpt lat="45.08159" lon="4.91888">
        <ele>249.1190032959</ele>
        <time>2009-05-20T12:03:11Z</time>
      </trkpt>
      <trkpt lat="45.08141" lon="4.91874">
        <ele>248.63800048828</ele>
        <time>2009-05-20T12:03:15Z</time>
      </trkpt>
      <trkpt lat="45.08126" lon="4.91863">
        <ele>248.63800048828</ele>
        <time>2009-05-20T12:03:18Z</time>
      </trkpt>
      <trkpt lat="45.0811" lon="4.91853">
        <ele>248.63800048828</ele>
        <time>2009-05-20T12:03:21Z</time>
      </trkpt>
      <trkpt lat="45.08092" lon="4.91846">
        <ele>248.15800476074</ele>
        <time>2009-05-20T12:03:24Z</time>
      </trkpt>
      <trkpt lat="45.08075" lon="4.9184">
        <ele>248.63800048828</ele>
        <time>2009-05-20T12:03:27Z</time>
      </trkpt>
      <trkpt lat="45.08059" lon="4.91834">
        <ele>249.1190032959</ele>
        <time>2009-05-20T12:03:30Z</time>
      </trkpt>
      <trkpt lat="45.08043" lon="4.91831">
        <ele>249.59899902344</ele>
        <time>2009-05-20T12:03:33Z</time>
      </trkpt>
      <trkpt lat="45.08037" lon="4.91829">
        <ele>249.59899902344</ele>
        <time>2009-05-20T12:03:34Z</time>
      </trkpt>
      <trkpt lat="45.08017" lon="4.91825">
        <ele>250.08000183106</ele>
        <time>2009-05-20T12:03:38Z</time>
      </trkpt>
      <trkpt lat="45.08012" lon="4.91824">
        <ele>250.56100463867</ele>
        <time>2009-05-20T12:03:39Z</time>
      </trkpt>
      <trkpt lat="45.07991" lon="4.91809">
        <ele>251.04100036621</ele>
        <time>2009-05-20T12:03:44Z</time>
      </trkpt>
      <trkpt lat="45.07973" lon="4.91788">
        <ele>251.52200317383</ele>
        <time>2009-05-20T12:03:49Z</time>
      </trkpt>
      <trkpt lat="45.07961" lon="4.91772">
        <ele>252.48300170898</ele>
        <time>2009-05-20T12:03:53Z</time>
      </trkpt>
      <trkpt lat="45.07948" lon="4.91755">
        <ele>253.44500732422</ele>
        <time>2009-05-20T12:03:57Z</time>
      </trkpt>
      <trkpt lat="45.07936" lon="4.91738">
        <ele>254.40600585938</ele>
        <time>2009-05-20T12:04:01Z</time>
      </trkpt>
      <trkpt lat="45.07928" lon="4.91724">
        <ele>254.8869934082</ele>
        <time>2009-05-20T12:04:04Z</time>
      </trkpt>
      <trkpt lat="45.07915" lon="4.91699">
        <ele>254.8869934082</ele>
        <time>2009-05-20T12:04:09Z</time>
      </trkpt>
      <trkpt lat="45.07905" lon="4.91678">
        <ele>255.36700439453</ele>
        <time>2009-05-20T12:04:13Z</time>
      </trkpt>
      <trkpt lat="45.07892" lon="4.91657">
        <ele>254.8869934082</ele>
        <time>2009-05-20T12:04:17Z</time>
      </trkpt>
      <trkpt lat="45.0788" lon="4.9164">
        <ele>254.40600585938</ele>
        <time>2009-05-20T12:04:20Z</time>
      </trkpt>
      <trkpt lat="45.07868" lon="4.91622">
        <ele>253.92500305176</ele>
        <time>2009-05-20T12:04:23Z</time>
      </trkpt>
      <trkpt lat="45.07854" lon="4.91604">
        <ele>252.9640045166</ele>
        <time>2009-05-20T12:04:26Z</time>
      </trkpt>
      <trkpt lat="45.0784" lon="4.91584">
        <ele>251.52200317383</ele>
        <time>2009-05-20T12:04:29Z</time>
      </trkpt>
      <trkpt lat="45.07824" lon="4.91565">
        <ele>251.52200317383</ele>
        <time>2009-05-20T12:04:32Z</time>
      </trkpt>
      <trkpt lat="45.07808" lon="4.91546">
        <ele>250.08000183106</ele>
        <time>2009-05-20T12:04:35Z</time>
      </trkpt>
      <trkpt lat="45.07791" lon="4.91526">
        <ele>249.1190032959</ele>
        <time>2009-05-20T12:04:38Z</time>
      </trkpt>
      <trkpt lat="45.07775" lon="4.91503">
        <ele>247.67700195312</ele>
        <time>2009-05-20T12:04:41Z</time>
      </trkpt>
      <trkpt lat="45.07758" lon="4.91479">
        <ele>247.19599914551</ele>
        <time>2009-05-20T12:04:44Z</time>
      </trkpt>
      <trkpt lat="45.0774" lon="4.91456">
        <ele>245.75399780273</ele>
        <time>2009-05-20T12:04:47Z</time>
      </trkpt>
      <trkpt lat="45.07721" lon="4.91433">
        <ele>245.27299499512</ele>
        <time>2009-05-20T12:04:50Z</time>
      </trkpt>
      <trkpt lat="45.07701" lon="4.91411">
        <ele>244.31199645996</ele>
        <time>2009-05-20T12:04:53Z</time>
      </trkpt>
      <trkpt lat="45.07682" lon="4.91392">
        <ele>243.83200073242</ele>
        <time>2009-05-20T12:04:56Z</time>
      </trkpt>
      <trkpt lat="45.07661" lon="4.91369">
        <ele>241.90899658203</ele>
        <time>2009-05-20T12:04:59Z</time>
      </trkpt>
      <trkpt lat="45.0764" lon="4.91332">
        <ele>240.46699523926</ele>
        <time>2009-05-20T12:05:03Z</time>
      </trkpt>
      <trkpt lat="45.07628" lon="4.91298">
        <ele>237.58299255371</ele>
        <time>2009-05-20T12:05:06Z</time>
      </trkpt>
      <trkpt lat="45.07623" lon="4.91287">
        <ele>237.58299255371</ele>
        <time>2009-05-20T12:05:07Z</time>
      </trkpt>
      <trkpt lat="45.0761" lon="4.9125">
        <ele>234.69900512695</ele>
        <time>2009-05-20T12:05:10Z</time>
      </trkpt>
      <trkpt lat="45.07601" lon="4.91223">
        <ele>232.77600097656</ele>
        <time>2009-05-20T12:05:12Z</time>
      </trkpt>
      <trkpt lat="45.07594" lon="4.91195">
        <ele>231.33399963379</ele>
        <time>2009-05-20T12:05:14Z</time>
      </trkpt>
      <trkpt lat="45.07591" lon="4.91181">
        <ele>231.33399963379</ele>
        <time>2009-05-20T12:05:15Z</time>
      </trkpt>
      <trkpt lat="45.07573" lon="4.91128">
        <ele>229.89199829102</ele>
        <time>2009-05-20T12:05:19Z</time>
      </trkpt>
      <trkpt lat="45.07559" lon="4.91091">
        <ele>229.89199829102</ele>
        <time>2009-05-20T12:05:22Z</time>
      </trkpt>
      <trkpt lat="45.07545" lon="4.9106">
        <ele>229.41200256348</ele>
        <time>2009-05-20T12:05:25Z</time>
      </trkpt>
      <trkpt lat="45.0753" lon="4.91033">
        <ele>229.89199829102</ele>
        <time>2009-05-20T12:05:28Z</time>
      </trkpt>
      <trkpt lat="45.0752" lon="4.91018">
        <ele>229.89199829102</ele>
        <time>2009-05-20T12:05:30Z</time>
      </trkpt>
      <trkpt lat="45.07495" lon="4.91001">
        <ele>230.37300109863</ele>
        <time>2009-05-20T12:05:34Z</time>
      </trkpt>
      <trkpt lat="45.07481" lon="4.90999">
        <ele>230.37300109863</ele>
        <time>2009-05-20T12:05:36Z</time>
      </trkpt>
      <trkpt lat="45.07453" lon="4.90998">
        <ele>229.41200256348</ele>
        <time>2009-05-20T12:05:40Z</time>
      </trkpt>
      <trkpt lat="45.07438" lon="4.90998">
        <ele>228.93099975586</ele>
        <time>2009-05-20T12:05:42Z</time>
      </trkpt>
      <trkpt lat="45.07413" lon="4.90995">
        <ele>227.9700012207</ele>
        <time>2009-05-20T12:05:45Z</time>
      </trkpt>
      <trkpt lat="45.07388" lon="4.90995">
        <ele>227.48899841309</ele>
        <time>2009-05-20T12:05:48Z</time>
      </trkpt>
      <trkpt lat="45.07362" lon="4.91">
        <ele>227.00900268555</ele>
        <time>2009-05-20T12:05:51Z</time>
      </trkpt>
      <trkpt lat="45.07337" lon="4.91005">
        <ele>225.56700134277</ele>
        <time>2009-05-20T12:05:54Z</time>
      </trkpt>
      <trkpt lat="45.0731" lon="4.91005">
        <ele>224.60499572754</ele>
        <time>2009-05-20T12:05:57Z</time>
      </trkpt>
      <trkpt lat="45.07283" lon="4.91004">
        <ele>223.64399719238</ele>
        <time>2009-05-20T12:06:00Z</time>
      </trkpt>
      <trkpt lat="45.07254" lon="4.91005">
        <ele>222.68200683594</ele>
        <time>2009-05-20T12:06:03Z</time>
      </trkpt>
      <trkpt lat="45.07225" lon="4.91011">
        <ele>222.20199584961</ele>
        <time>2009-05-20T12:06:06Z</time>
      </trkpt>
      <trkpt lat="45.07198" lon="4.91013">
        <ele>221.24099731445</ele>
        <time>2009-05-20T12:06:09Z</time>
      </trkpt>
      <trkpt lat="45.0717" lon="4.91011">
        <ele>220.75999450684</ele>
        <time>2009-05-20T12:06:12Z</time>
      </trkpt>
      <trkpt lat="45.07145" lon="4.91007">
        <ele>220.75999450684</ele>
        <time>2009-05-20T12:06:15Z</time>
      </trkpt>
      <trkpt lat="45.0712" lon="4.91003">
        <ele>220.27900695801</ele>
        <time>2009-05-20T12:06:18Z</time>
      </trkpt>
      <trkpt lat="45.07096" lon="4.91">
        <ele>219.79899597168</ele>
        <time>2009-05-20T12:06:21Z</time>
      </trkpt>
      <trkpt lat="45.0707" lon="4.90997">
        <ele>217.87600708008</ele>
        <time>2009-05-20T12:06:24Z</time>
      </trkpt>
      <trkpt lat="45.07046" lon="4.90991">
        <ele>217.39500427246</ele>
        <time>2009-05-20T12:06:27Z</time>
      </trkpt>
      <trkpt lat="45.07022" lon="4.90984">
        <ele>217.39500427246</ele>
        <time>2009-05-20T12:06:30Z</time>
      </trkpt>
      <trkpt lat="45.06998" lon="4.90978">
        <ele>216.43400573731</ele>
        <time>2009-05-20T12:06:33Z</time>
      </trkpt>
      <trkpt lat="45.06973" lon="4.90972">
        <ele>214.99200439453</ele>
        <time>2009-05-20T12:06:36Z</time>
      </trkpt>
      <trkpt lat="45.06947" lon="4.90966">
        <ele>214.03100585938</ele>
        <time>2009-05-20T12:06:39Z</time>
      </trkpt>
      <trkpt lat="45.06921" lon="4.90959">
        <ele>213.55000305176</ele>
        <time>2009-05-20T12:06:42Z</time>
      </trkpt>
      <trkpt lat="45.06896" lon="4.9095">
        <ele>213.06900024414</ele>
        <time>2009-05-20T12:06:45Z</time>
      </trkpt>
      <trkpt lat="45.06887" lon="4.90947">
        <ele>212.5890045166</ele>
        <time>2009-05-20T12:06:46Z</time>
      </trkpt>
      <trkpt lat="45.06863" lon="4.90944">
        <ele>210.66600036621</ele>
        <time>2009-05-20T12:06:49Z</time>
      </trkpt>
      <trkpt lat="45.06824" lon="4.90953">
        <ele>204.41700744629</ele>
        <time>2009-05-20T12:06:53Z</time>
      </trkpt>
      <trkpt lat="45.06801" lon="4.90958">
        <ele>201.05299377441</ele>
        <time>2009-05-20T12:06:55Z</time>
      </trkpt>
      <trkpt lat="45.06776" lon="4.90963">
        <ele>197.68800354004</ele>
        <time>2009-05-20T12:06:57Z</time>
      </trkpt>
      <trkpt lat="45.06763" lon="4.90967">
        <ele>195.76600646973</ele>
        <time>2009-05-20T12:06:58Z</time>
      </trkpt>
      <trkpt lat="45.06729" lon="4.90999">
        <ele>190.95899963379</ele>
        <time>2009-05-20T12:07:01Z</time>
      </trkpt>
      <trkpt lat="45.06721" lon="4.91015">
        <ele>189.51699829102</ele>
        <time>2009-05-20T12:07:02Z</time>
      </trkpt>
      <trkpt lat="45.06699" lon="4.91062">
        <ele>186.15199279785</ele>
        <time>2009-05-20T12:07:05Z</time>
      </trkpt>
      <trkpt lat="45.0669" lon="4.91076">
        <ele>185.19099426269</ele>
        <time>2009-05-20T12:07:06Z</time>
      </trkpt>
      <trkpt lat="45.06652" lon="4.91095">
        <ele>182.30700683594</ele>
        <time>2009-05-20T12:07:09Z</time>
      </trkpt>
      <trkpt lat="45.06641" lon="4.91093">
        <ele>182.30700683594</ele>
        <time>2009-05-20T12:07:10Z</time>
      </trkpt>
      <trkpt lat="45.06604" lon="4.9109">
        <ele>181.34599304199</ele>
        <time>2009-05-20T12:07:13Z</time>
      </trkpt>
      <trkpt lat="45.06581" lon="4.9109">
        <ele>180.86500549316</ele>
        <time>2009-05-20T12:07:15Z</time>
      </trkpt>
      <trkpt lat="45.06548" lon="4.91091">
        <ele>179.90400695801</ele>
        <time>2009-05-20T12:07:18Z</time>
      </trkpt>
      <trkpt lat="45.06537" lon="4.9109">
        <ele>179.90400695801</ele>
        <time>2009-05-20T12:07:19Z</time>
      </trkpt>
      <trkpt lat="45.06497" lon="4.91071">
        <ele>180.38499450684</ele>
        <time>2009-05-20T12:07:23Z</time>
      </trkpt>
      <trkpt lat="45.06489" lon="4.91067">
        <ele>180.86500549316</ele>
        <time>2009-05-20T12:07:24Z</time>
      </trkpt>
      <trkpt lat="45.06459" lon="4.91052">
        <ele>181.34599304199</ele>
        <time>2009-05-20T12:07:28Z</time>
      </trkpt>
      <trkpt lat="45.06439" lon="4.91042">
        <ele>181.82600402832</ele>
        <time>2009-05-20T12:07:31Z</time>
      </trkpt>
      <trkpt lat="45.06433" lon="4.91038">
        <ele>181.34599304199</ele>
        <time>2009-05-20T12:07:32Z</time>
      </trkpt>
      <trkpt lat="45.06409" lon="4.91019">
        <ele>180.86500549316</ele>
        <time>2009-05-20T12:07:36Z</time>
      </trkpt>
      <trkpt lat="45.06393" lon="4.91002">
        <ele>180.38499450684</ele>
        <time>2009-05-20T12:07:39Z</time>
      </trkpt>
      <trkpt lat="45.06387" lon="4.90995">
        <ele>179.90400695801</ele>
        <time>2009-05-20T12:07:40Z</time>
      </trkpt>
      <trkpt lat="45.06378" lon="4.90979">
        <ele>179.42300415039</ele>
        <time>2009-05-20T12:07:42Z</time>
      </trkpt>
      <trkpt lat="45.06369" lon="4.90962">
        <ele>177.98100280762</ele>
        <time>2009-05-20T12:07:44Z</time>
      </trkpt>
      <trkpt lat="45.06343" lon="4.90938">
        <ele>175.09700012207</ele>
        <time>2009-05-20T12:07:48Z</time>
      </trkpt>
      <trkpt lat="45.06318" lon="4.90934">
        <ele>173.6549987793</ele>
        <time>2009-05-20T12:07:51Z</time>
      </trkpt>
      <trkpt lat="45.06291" lon="4.90915">
        <ele>172.69400024414</ele>
        <time>2009-05-20T12:07:56Z</time>
      </trkpt>
      <trkpt lat="45.06291" lon="4.90907">
        <ele>172.21299743652</ele>
        <time>2009-05-20T12:07:57Z</time>
      </trkpt>
      <trkpt lat="45.06295" lon="4.90878">
        <ele>171.25199890137</ele>
        <time>2009-05-20T12:08:00Z</time>
      </trkpt>
      <trkpt lat="45.0629" lon="4.9084">
        <ele>170.29100036621</ele>
        <time>2009-05-20T12:08:04Z</time>
      </trkpt>
      <trkpt lat="45.06272" lon="4.90821">
        <ele>169.32899475098</ele>
        <time>2009-05-20T12:08:07Z</time>
      </trkpt>
      <trkpt lat="45.06244" lon="4.908">
        <ele>168.36799621582</ele>
        <time>2009-05-20T12:08:11Z</time>
      </trkpt>
      <trkpt lat="45.06222" lon="4.90783">
        <ele>166.92599487305</ele>
        <time>2009-05-20T12:08:14Z</time>
      </trkpt>
      <trkpt lat="45.06202" lon="4.90765">
        <ele>166.44500732422</ele>
        <time>2009-05-20T12:08:17Z</time>
      </trkpt>
      <trkpt lat="45.0618" lon="4.90747">
        <ele>165.48399353027</ele>
        <time>2009-05-20T12:08:20Z</time>
      </trkpt>
      <trkpt lat="45.06159" lon="4.90731">
        <ele>165.00300598144</ele>
        <time>2009-05-20T12:08:23Z</time>
      </trkpt>
      <trkpt lat="45.06138" lon="4.90717">
        <ele>164.52299499512</ele>
        <time>2009-05-20T12:08:26Z</time>
      </trkpt>
      <trkpt lat="45.06118" lon="4.90702">
        <ele>163.56199645996</ele>
        <time>2009-05-20T12:08:29Z</time>
      </trkpt>
      <trkpt lat="45.061" lon="4.90686">
        <ele>163.08099365234</ele>
        <time>2009-05-20T12:08:32Z</time>
      </trkpt>
      <trkpt lat="45.06081" lon="4.90671">
        <ele>162.11999511719</ele>
        <time>2009-05-20T12:08:35Z</time>
      </trkpt>
      <trkpt lat="45.06069" lon="4.90662">
        <ele>161.63900756836</ele>
        <time>2009-05-20T12:08:37Z</time>
      </trkpt>
      <trkpt lat="45.06051" lon="4.90633">
        <ele>162.11999511719</ele>
        <time>2009-05-20T12:08:41Z</time>
      </trkpt>
      <trkpt lat="45.06034" lon="4.90614">
        <ele>161.63900756836</ele>
        <time>2009-05-20T12:08:44Z</time>
      </trkpt>
      <trkpt lat="45.06027" lon="4.9061">
        <ele>160.67700195312</ele>
        <time>2009-05-20T12:08:45Z</time>
      </trkpt>
      <trkpt lat="45.05998" lon="4.90593">
        <ele>159.71600341797</ele>
        <time>2009-05-20T12:08:49Z</time>
      </trkpt>
      <trkpt lat="45.05974" lon="4.90579">
        <ele>157.79400634766</ele>
        <time>2009-05-20T12:08:52Z</time>
      </trkpt>
      <trkpt lat="45.05951" lon="4.90561">
        <ele>155.38999938965</ele>
        <time>2009-05-20T12:08:55Z</time>
      </trkpt>
      <trkpt lat="45.05943" lon="4.90555">
        <ele>155.38999938965</ele>
        <time>2009-05-20T12:08:56Z</time>
      </trkpt>
      <trkpt lat="45.05922" lon="4.90535">
        <ele>154.91000366211</ele>
        <time>2009-05-20T12:08:59Z</time>
      </trkpt>
      <trkpt lat="45.05901" lon="4.90515">
        <ele>154.91000366211</ele>
        <time>2009-05-20T12:09:02Z</time>
      </trkpt>
      <trkpt lat="45.0588" lon="4.90496">
        <ele>153.94799804688</ele>
        <time>2009-05-20T12:09:05Z</time>
      </trkpt>
      <trkpt lat="45.05861" lon="4.90479">
        <ele>153.94799804688</ele>
        <time>2009-05-20T12:09:08Z</time>
      </trkpt>
      <trkpt lat="45.05842" lon="4.90461">
        <ele>154.42900085449</ele>
        <time>2009-05-20T12:09:11Z</time>
      </trkpt>
      <trkpt lat="45.05824" lon="4.90445">
        <ele>153.94799804688</ele>
        <time>2009-05-20T12:09:14Z</time>
      </trkpt>
      <trkpt lat="45.05806" lon="4.90429">
        <ele>153.94799804688</ele>
        <time>2009-05-20T12:09:17Z</time>
      </trkpt>
      <trkpt lat="45.05789" lon="4.90412">
        <ele>153.94799804688</ele>
        <time>2009-05-20T12:09:20Z</time>
      </trkpt>
      <trkpt lat="45.05773" lon="4.90396">
        <ele>153.94799804688</ele>
        <time>2009-05-20T12:09:23Z</time>
      </trkpt>
      <trkpt lat="45.05757" lon="4.90379">
        <ele>153.46800231934</ele>
        <time>2009-05-20T12:09:26Z</time>
      </trkpt>
      <trkpt lat="45.05742" lon="4.90364">
        <ele>153.46800231934</ele>
        <time>2009-05-20T12:09:29Z</time>
      </trkpt>
      <trkpt lat="45.05726" lon="4.90348">
        <ele>153.94799804688</ele>
        <time>2009-05-20T12:09:32Z</time>
      </trkpt>
      <trkpt lat="45.05711" lon="4.90331">
        <ele>154.42900085449</ele>
        <time>2009-05-20T12:09:35Z</time>
      </trkpt>
      <trkpt lat="45.05696" lon="4.90315">
        <ele>153.94799804688</ele>
        <time>2009-05-20T12:09:38Z</time>
      </trkpt>
      <trkpt lat="45.05682" lon="4.903">
        <ele>153.46800231934</ele>
        <time>2009-05-20T12:09:41Z</time>
      </trkpt>
      <trkpt lat="45.05667" lon="4.90284">
        <ele>153.94799804688</ele>
        <time>2009-05-20T12:09:44Z</time>
      </trkpt>
      <trkpt lat="45.05653" lon="4.90269">
        <ele>153.46800231934</ele>
        <time>2009-05-20T12:09:47Z</time>
      </trkpt>
      <trkpt lat="45.05638" lon="4.90255">
        <ele>153.46800231934</ele>
        <time>2009-05-20T12:09:50Z</time>
      </trkpt>
      <trkpt lat="45.05624" lon="4.9024">
        <ele>153.94799804688</ele>
        <time>2009-05-20T12:09:53Z</time>
      </trkpt>
      <trkpt lat="45.05608" lon="4.90227">
        <ele>153.94799804688</ele>
        <time>2009-05-20T12:09:56Z</time>
      </trkpt>
      <trkpt lat="45.05592" lon="4.90214">
        <ele>154.42900085449</ele>
        <time>2009-05-20T12:09:59Z</time>
      </trkpt>
      <trkpt lat="45.05577" lon="4.902">
        <ele>153.94799804688</ele>
        <time>2009-05-20T12:10:02Z</time>
      </trkpt>
      <trkpt lat="45.05562" lon="4.90187">
        <ele>153.46800231934</ele>
        <time>2009-05-20T12:10:05Z</time>
      </trkpt>
      <trkpt lat="45.05547" lon="4.90174">
        <ele>153.94799804688</ele>
        <time>2009-05-20T12:10:08Z</time>
      </trkpt>
      <trkpt lat="45.05531" lon="4.90161">
        <ele>154.42900085449</ele>
        <time>2009-05-20T12:10:11Z</time>
      </trkpt>
      <trkpt lat="45.05516" lon="4.90149">
        <ele>153.94799804688</ele>
        <time>2009-05-20T12:10:14Z</time>
      </trkpt>
      <trkpt lat="45.055" lon="4.90137">
        <ele>153.94799804688</ele>
        <time>2009-05-20T12:10:17Z</time>
      </trkpt>
      <trkpt lat="45.05486" lon="4.90124">
        <ele>153.94799804688</ele>
        <time>2009-05-20T12:10:20Z</time>
      </trkpt>
      <trkpt lat="45.0547" lon="4.90111">
        <ele>153.94799804688</ele>
        <time>2009-05-20T12:10:23Z</time>
      </trkpt>
      <trkpt lat="45.05456" lon="4.90099">
        <ele>153.94799804688</ele>
        <time>2009-05-20T12:10:26Z</time>
      </trkpt>
      <trkpt lat="45.05441" lon="4.90088">
        <ele>153.94799804688</ele>
        <time>2009-05-20T12:10:29Z</time>
      </trkpt>
      <trkpt lat="45.05427" lon="4.90076">
        <ele>153.46800231934</ele>
        <time>2009-05-20T12:10:32Z</time>
      </trkpt>
      <trkpt lat="45.05412" lon="4.90065">
        <ele>153.46800231934</ele>
        <time>2009-05-20T12:10:35Z</time>
      </trkpt>
      <trkpt lat="45.05402" lon="4.90057">
        <ele>153.46800231934</ele>
        <time>2009-05-20T12:10:37Z</time>
      </trkpt>
      <trkpt lat="45.05383" lon="4.9004">
        <ele>153.46800231934</ele>
        <time>2009-05-20T12:10:41Z</time>
      </trkpt>
      <trkpt lat="45.05365" lon="4.9002">
        <ele>153.94799804688</ele>
        <time>2009-05-20T12:10:45Z</time>
      </trkpt>
      <trkpt lat="45.0536" lon="4.90015">
        <ele>153.94799804688</ele>
        <time>2009-05-20T12:10:46Z</time>
      </trkpt>
      <trkpt lat="45.05344" lon="4.8999">
        <ele>153.46800231934</ele>
        <time>2009-05-20T12:10:50Z</time>
      </trkpt>
      <trkpt lat="45.05333" lon="4.8997">
        <ele>152.98699951172</ele>
        <time>2009-05-20T12:10:53Z</time>
      </trkpt>
      <trkpt lat="45.05322" lon="4.89949">
        <ele>152.5059967041</ele>
        <time>2009-05-20T12:10:56Z</time>
      </trkpt>
      <trkpt lat="45.05311" lon="4.89929">
        <ele>152.5059967041</ele>
        <time>2009-05-20T12:10:59Z</time>
      </trkpt>
      <trkpt lat="45.053" lon="4.89908">
        <ele>152.98699951172</ele>
        <time>2009-05-20T12:11:02Z</time>
      </trkpt>
      <trkpt lat="45.05289" lon="4.89887">
        <ele>152.98699951172</ele>
        <time>2009-05-20T12:11:05Z</time>
      </trkpt>
      <trkpt lat="45.05279" lon="4.89866">
        <ele>152.98699951172</ele>
        <time>2009-05-20T12:11:08Z</time>
      </trkpt>
      <trkpt lat="45.05268" lon="4.89846">
        <ele>152.98699951172</ele>
        <time>2009-05-20T12:11:11Z</time>
      </trkpt>
      <trkpt lat="45.05257" lon="4.89825">
        <ele>152.5059967041</ele>
        <time>2009-05-20T12:11:14Z</time>
      </trkpt>
      <trkpt lat="45.05245" lon="4.89806">
        <ele>152.5059967041</ele>
        <time>2009-05-20T12:11:17Z</time>
      </trkpt>
      <trkpt lat="45.05232" lon="4.89788">
        <ele>152.02600097656</ele>
        <time>2009-05-20T12:11:20Z</time>
      </trkpt>
      <trkpt lat="45.05218" lon="4.89772">
        <ele>152.02600097656</ele>
        <time>2009-05-20T12:11:23Z</time>
      </trkpt>
      <trkpt lat="45.05204" lon="4.89756">
        <ele>152.02600097656</ele>
        <time>2009-05-20T12:11:26Z</time>
      </trkpt>
      <trkpt lat="45.05189" lon="4.89742">
        <ele>151.54499816894</ele>
        <time>2009-05-20T12:11:29Z</time>
      </trkpt>
      <trkpt lat="45.05173" lon="4.89727">
        <ele>151.06399536133</ele>
        <time>2009-05-20T12:11:32Z</time>
      </trkpt>
      <trkpt lat="45.05158" lon="4.89712">
        <ele>151.54499816894</ele>
        <time>2009-05-20T12:11:35Z</time>
      </trkpt>
      <trkpt lat="45.05142" lon="4.89698">
        <ele>151.54499816894</ele>
        <time>2009-05-20T12:11:38Z</time>
      </trkpt>
      <trkpt lat="45.05126" lon="4.89685">
        <ele>151.54499816894</ele>
        <time>2009-05-20T12:11:41Z</time>
      </trkpt>
      <trkpt lat="45.0511" lon="4.89674">
        <ele>151.54499816894</ele>
        <time>2009-05-20T12:11:44Z</time>
      </trkpt>
      <trkpt lat="45.05093" lon="4.89663">
        <ele>151.54499816894</ele>
        <time>2009-05-20T12:11:47Z</time>
      </trkpt>
      <trkpt lat="45.05078" lon="4.89652">
        <ele>151.54499816894</ele>
        <time>2009-05-20T12:11:50Z</time>
      </trkpt>
      <trkpt lat="45.05062" lon="4.89642">
        <ele>151.06399536133</ele>
        <time>2009-05-20T12:11:53Z</time>
      </trkpt>
      <trkpt lat="45.05047" lon="4.89631">
        <ele>151.54499816894</ele>
        <time>2009-05-20T12:11:56Z</time>
      </trkpt>
      <trkpt lat="45.05032" lon="4.89621">
        <ele>151.54499816894</ele>
        <time>2009-05-20T12:11:59Z</time>
      </trkpt>
      <trkpt lat="45.05017" lon="4.8961">
        <ele>151.06399536133</ele>
        <time>2009-05-20T12:12:02Z</time>
      </trkpt>
      <trkpt lat="45.05003" lon="4.89599">
        <ele>151.54499816894</ele>
        <time>2009-05-20T12:12:05Z</time>
      </trkpt>
      <trkpt lat="45.04988" lon="4.89588">
        <ele>151.54499816894</ele>
        <time>2009-05-20T12:12:08Z</time>
      </trkpt>
      <trkpt lat="45.04974" lon="4.89577">
        <ele>152.02600097656</ele>
        <time>2009-05-20T12:12:11Z</time>
      </trkpt>
      <trkpt lat="45.04959" lon="4.89568">
        <ele>151.54499816894</ele>
        <time>2009-05-20T12:12:14Z</time>
      </trkpt>
      <trkpt lat="45.04944" lon="4.89558">
        <ele>152.02600097656</ele>
        <time>2009-05-20T12:12:17Z</time>
      </trkpt>
      <trkpt lat="45.04929" lon="4.89549">
        <ele>151.54499816894</ele>
        <time>2009-05-20T12:12:20Z</time>
      </trkpt>
      <trkpt lat="45.04914" lon="4.8954">
        <ele>152.02600097656</ele>
        <time>2009-05-20T12:12:23Z</time>
      </trkpt>
      <trkpt lat="45.04903" lon="4.89534">
        <ele>152.02600097656</ele>
        <time>2009-05-20T12:12:25Z</time>
      </trkpt>
      <trkpt lat="45.04882" lon="4.89523">
        <ele>151.54499816894</ele>
        <time>2009-05-20T12:12:29Z</time>
      </trkpt>
      <trkpt lat="45.04866" lon="4.89514">
        <ele>151.54499816894</ele>
        <time>2009-05-20T12:12:32Z</time>
      </trkpt>
      <trkpt lat="45.0485" lon="4.89505">
        <ele>151.06399536133</ele>
        <time>2009-05-20T12:12:35Z</time>
      </trkpt>
      <trkpt lat="45.04833" lon="4.89496">
        <ele>151.06399536133</ele>
        <time>2009-05-20T12:12:38Z</time>
      </trkpt>
      <trkpt lat="45.04816" lon="4.89485">
        <ele>151.06399536133</ele>
        <time>2009-05-20T12:12:41Z</time>
      </trkpt>
      <trkpt lat="45.048" lon="4.89475">
        <ele>151.54499816894</ele>
        <time>2009-05-20T12:12:44Z</time>
      </trkpt>
      <trkpt lat="45.04784" lon="4.89463">
        <ele>151.06399536133</ele>
        <time>2009-05-20T12:12:47Z</time>
      </trkpt>
      <trkpt lat="45.04768" lon="4.89451">
        <ele>151.54499816894</ele>
        <time>2009-05-20T12:12:50Z</time>
      </trkpt>
      <trkpt lat="45.04753" lon="4.89438">
        <ele>151.54499816894</ele>
        <time>2009-05-20T12:12:53Z</time>
      </trkpt>
      <trkpt lat="45.04739" lon="4.89423">
        <ele>151.54499816894</ele>
        <time>2009-05-20T12:12:56Z</time>
      </trkpt>
      <trkpt lat="45.04724" lon="4.89407">
        <ele>151.54499816894</ele>
        <time>2009-05-20T12:12:59Z</time>
      </trkpt>
      <trkpt lat="45.0471" lon="4.89392">
        <ele>151.54499816894</ele>
        <time>2009-05-20T12:13:02Z</time>
      </trkpt>
      <trkpt lat="45.04695" lon="4.89376">
        <ele>151.54499816894</ele>
        <time>2009-05-20T12:13:05Z</time>
      </trkpt>
      <trkpt lat="45.0468" lon="4.89361">
        <ele>151.54499816894</ele>
        <time>2009-05-20T12:13:08Z</time>
      </trkpt>
      <trkpt lat="45.04664" lon="4.89345">
        <ele>151.06399536133</ele>
        <time>2009-05-20T12:13:11Z</time>
      </trkpt>
      <trkpt lat="45.04649" lon="4.89328">
        <ele>151.06399536133</ele>
        <time>2009-05-20T12:13:14Z</time>
      </trkpt>
      <trkpt lat="45.04633" lon="4.89312">
        <ele>150.58399963379</ele>
        <time>2009-05-20T12:13:17Z</time>
      </trkpt>
      <trkpt lat="45.04617" lon="4.89296">
        <ele>150.58399963379</ele>
        <time>2009-05-20T12:13:20Z</time>
      </trkpt>
      <trkpt lat="45.04602" lon="4.8928">
        <ele>150.58399963379</ele>
        <time>2009-05-20T12:13:23Z</time>
      </trkpt>
      <trkpt lat="45.04587" lon="4.89265">
        <ele>150.58399963379</ele>
        <time>2009-05-20T12:13:26Z</time>
      </trkpt>
      <trkpt lat="45.04572" lon="4.8925">
        <ele>150.58399963379</ele>
        <time>2009-05-20T12:13:29Z</time>
      </trkpt>
      <trkpt lat="45.04556" lon="4.89234">
        <ele>150.10299682617</ele>
        <time>2009-05-20T12:13:32Z</time>
      </trkpt>
      <trkpt lat="45.04542" lon="4.89219">
        <ele>150.10299682617</ele>
        <time>2009-05-20T12:13:35Z</time>
      </trkpt>
      <trkpt lat="45.04527" lon="4.89204">
        <ele>150.10299682617</ele>
        <time>2009-05-20T12:13:38Z</time>
      </trkpt>
      <trkpt lat="45.04514" lon="4.89189">
        <ele>150.10299682617</ele>
        <time>2009-05-20T12:13:41Z</time>
      </trkpt>
      <trkpt lat="45.045" lon="4.89174">
        <ele>149.62199401856</ele>
        <time>2009-05-20T12:13:44Z</time>
      </trkpt>
      <trkpt lat="45.04487" lon="4.8916">
        <ele>150.10299682617</ele>
        <time>2009-05-20T12:13:47Z</time>
      </trkpt>
      <trkpt lat="45.04473" lon="4.89147">
        <ele>150.10299682617</ele>
        <time>2009-05-20T12:13:50Z</time>
      </trkpt>
      <trkpt lat="45.04459" lon="4.89134">
        <ele>150.58399963379</ele>
        <time>2009-05-20T12:13:53Z</time>
      </trkpt>
      <trkpt lat="45.04445" lon="4.89121">
        <ele>151.06399536133</ele>
        <time>2009-05-20T12:13:56Z</time>
      </trkpt>
      <trkpt lat="45.0443" lon="4.89109">
        <ele>151.06399536133</ele>
        <time>2009-05-20T12:13:59Z</time>
      </trkpt>
      <trkpt lat="45.04414" lon="4.89097">
        <ele>150.10299682617</ele>
        <time>2009-05-20T12:14:02Z</time>
      </trkpt>
      <trkpt lat="45.04398" lon="4.89085">
        <ele>150.58399963379</ele>
        <time>2009-05-20T12:14:05Z</time>
      </trkpt>
      <trkpt lat="45.04382" lon="4.89073">
        <ele>150.10299682617</ele>
        <time>2009-05-20T12:14:08Z</time>
      </trkpt>
      <trkpt lat="45.04366" lon="4.8906">
        <ele>150.10299682617</ele>
        <time>2009-05-20T12:14:11Z</time>
      </trkpt>
      <trkpt lat="45.0435" lon="4.89047">
        <ele>150.58399963379</ele>
        <time>2009-05-20T12:14:14Z</time>
      </trkpt>
      <trkpt lat="45.04334" lon="4.89035">
        <ele>149.62199401856</ele>
        <time>2009-05-20T12:14:17Z</time>
      </trkpt>
      <trkpt lat="45.04319" lon="4.89021">
        <ele>149.62199401856</ele>
        <time>2009-05-20T12:14:20Z</time>
      </trkpt>
      <trkpt lat="45.04304" lon="4.89009">
        <ele>149.62199401856</ele>
        <time>2009-05-20T12:14:23Z</time>
      </trkpt>
      <trkpt lat="45.04288" lon="4.88996">
        <ele>150.10299682617</ele>
        <time>2009-05-20T12:14:26Z</time>
      </trkpt>
      <trkpt lat="45.04274" lon="4.88984">
        <ele>150.10299682617</ele>
        <time>2009-05-20T12:14:29Z</time>
      </trkpt>
      <trkpt lat="45.04259" lon="4.88971">
        <ele>150.10299682617</ele>
        <time>2009-05-20T12:14:32Z</time>
      </trkpt>
      <trkpt lat="45.04244" lon="4.88959">
        <ele>149.62199401856</ele>
        <time>2009-05-20T12:14:35Z</time>
      </trkpt>
      <trkpt lat="45.04228" lon="4.88947">
        <ele>150.10299682617</ele>
        <time>2009-05-20T12:14:38Z</time>
      </trkpt>
      <trkpt lat="45.04212" lon="4.88934">
        <ele>150.10299682617</ele>
        <time>2009-05-20T12:14:41Z</time>
      </trkpt>
      <trkpt lat="45.04197" lon="4.88921">
        <ele>150.58399963379</ele>
        <time>2009-05-20T12:14:44Z</time>
      </trkpt>
      <trkpt lat="45.04182" lon="4.88909">
        <ele>150.10299682617</ele>
        <time>2009-05-20T12:14:47Z</time>
      </trkpt>
      <trkpt lat="45.04166" lon="4.88897">
        <ele>150.58399963379</ele>
        <time>2009-05-20T12:14:50Z</time>
      </trkpt>
      <trkpt lat="45.04152" lon="4.88884">
        <ele>150.58399963379</ele>
        <time>2009-05-20T12:14:53Z</time>
      </trkpt>
      <trkpt lat="45.04136" lon="4.88871">
        <ele>150.10299682617</ele>
        <time>2009-05-20T12:14:56Z</time>
      </trkpt>
      <trkpt lat="45.04119" lon="4.88858">
        <ele>149.14199829102</ele>
        <time>2009-05-20T12:14:59Z</time>
      </trkpt>
      <trkpt lat="45.04102" lon="4.88843">
        <ele>149.14199829102</ele>
        <time>2009-05-20T12:15:02Z</time>
      </trkpt>
      <trkpt lat="45.04085" lon="4.88828">
        <ele>148.17999267578</ele>
        <time>2009-05-20T12:15:05Z</time>
      </trkpt>
      <trkpt lat="45.0407" lon="4.88813">
        <ele>148.17999267578</ele>
        <time>2009-05-20T12:15:08Z</time>
      </trkpt>
      <trkpt lat="45.04055" lon="4.88799">
        <ele>148.17999267578</ele>
        <time>2009-05-20T12:15:11Z</time>
      </trkpt>
      <trkpt lat="45.04041" lon="4.88784">
        <ele>148.17999267578</ele>
        <time>2009-05-20T12:15:14Z</time>
      </trkpt>
      <trkpt lat="45.04028" lon="4.88769">
        <ele>148.17999267578</ele>
        <time>2009-05-20T12:15:17Z</time>
      </trkpt>
      <trkpt lat="45.04013" lon="4.88754">
        <ele>148.17999267578</ele>
        <time>2009-05-20T12:15:20Z</time>
      </trkpt>
      <trkpt lat="45.04" lon="4.88739">
        <ele>148.17999267578</ele>
        <time>2009-05-20T12:15:23Z</time>
      </trkpt>
      <trkpt lat="45.03991" lon="4.88729">
        <ele>148.6609954834</ele>
        <time>2009-05-20T12:15:25Z</time>
      </trkpt>
      <trkpt lat="45.0398" lon="4.88711">
        <ele>147.69999694824</ele>
        <time>2009-05-20T12:15:28Z</time>
      </trkpt>
      <trkpt lat="45.03971" lon="4.88699">
        <ele>147.69999694824</ele>
        <time>2009-05-20T12:15:30Z</time>
      </trkpt>
      <trkpt lat="45.03953" lon="4.88684">
        <ele>149.14199829102</ele>
        <time>2009-05-20T12:15:34Z</time>
      </trkpt>
      <trkpt lat="45.03948" lon="4.8868">
        <ele>149.14199829102</ele>
        <time>2009-05-20T12:15:35Z</time>
      </trkpt>
      <trkpt lat="45.0393" lon="4.88684">
        <ele>149.62199401856</ele>
        <time>2009-05-20T12:15:39Z</time>
      </trkpt>
      <trkpt lat="45.03918" lon="4.88701">
        <ele>149.62199401856</ele>
        <time>2009-05-20T12:15:42Z</time>
      </trkpt>
      <trkpt lat="45.03913" lon="4.88704">
        <ele>149.14199829102</ele>
        <time>2009-05-20T12:15:43Z</time>
      </trkpt>
      <trkpt lat="45.03886" lon="4.88719">
        <ele>149.14199829102</ele>
        <time>2009-05-20T12:15:48Z</time>
      </trkpt>
      <trkpt lat="45.03876" lon="4.88729">
        <ele>149.14199829102</ele>
        <time>2009-05-20T12:15:50Z</time>
      </trkpt>
      <trkpt lat="45.03866" lon="4.88739">
        <ele>148.6609954834</ele>
        <time>2009-05-20T12:15:52Z</time>
      </trkpt>
      <trkpt lat="45.03846" lon="4.88758">
        <ele>148.6609954834</ele>
        <time>2009-05-20T12:15:56Z</time>
      </trkpt>
      <trkpt lat="45.03831" lon="4.88772">
        <ele>149.14199829102</ele>
        <time>2009-05-20T12:15:59Z</time>
      </trkpt>
      <trkpt lat="45.03817" lon="4.88786">
        <ele>149.62199401856</ele>
        <time>2009-05-20T12:16:02Z</time>
      </trkpt>
      <trkpt lat="45.03804" lon="4.88798">
        <ele>149.62199401856</ele>
        <time>2009-05-20T12:16:05Z</time>
      </trkpt>
      <trkpt lat="45.0379" lon="4.88812">
        <ele>149.62199401856</ele>
        <time>2009-05-20T12:16:08Z</time>
      </trkpt>
      <trkpt lat="45.03776" lon="4.88825">
        <ele>149.62199401856</ele>
        <time>2009-05-20T12:16:11Z</time>
      </trkpt>
      <trkpt lat="45.03762" lon="4.88839">
        <ele>150.10299682617</ele>
        <time>2009-05-20T12:16:14Z</time>
      </trkpt>
      <trkpt lat="45.03748" lon="4.88852">
        <ele>150.10299682617</ele>
        <time>2009-05-20T12:16:17Z</time>
      </trkpt>
      <trkpt lat="45.03733" lon="4.88866">
        <ele>150.10299682617</ele>
        <time>2009-05-20T12:16:20Z</time>
      </trkpt>
      <trkpt lat="45.03719" lon="4.8888">
        <ele>150.10299682617</ele>
        <time>2009-05-20T12:16:23Z</time>
      </trkpt>
      <trkpt lat="45.03705" lon="4.88893">
        <ele>150.10299682617</ele>
        <time>2009-05-20T12:16:26Z</time>
      </trkpt>
      <trkpt lat="45.03691" lon="4.88907">
        <ele>149.62199401856</ele>
        <time>2009-05-20T12:16:29Z</time>
      </trkpt>
      <trkpt lat="45.03676" lon="4.88921">
        <ele>149.62199401856</ele>
        <time>2009-05-20T12:16:32Z</time>
      </trkpt>
      <trkpt lat="45.03661" lon="4.88936">
        <ele>150.10299682617</ele>
        <time>2009-05-20T12:16:35Z</time>
      </trkpt>
      <trkpt lat="45.03647" lon="4.8895">
        <ele>150.10299682617</ele>
        <time>2009-05-20T12:16:38Z</time>
      </trkpt>
      <trkpt lat="45.03632" lon="4.88965">
        <ele>150.10299682617</ele>
        <time>2009-05-20T12:16:41Z</time>
      </trkpt>
      <trkpt lat="45.03616" lon="4.8898">
        <ele>149.62199401856</ele>
        <time>2009-05-20T12:16:44Z</time>
      </trkpt>
      <trkpt lat="45.036" lon="4.88996">
        <ele>149.14199829102</ele>
        <time>2009-05-20T12:16:47Z</time>
      </trkpt>
      <trkpt lat="45.03584" lon="4.89011">
        <ele>148.6609954834</ele>
        <time>2009-05-20T12:16:50Z</time>
      </trkpt>
      <trkpt lat="45.03568" lon="4.89027">
        <ele>148.6609954834</ele>
        <time>2009-05-20T12:16:53Z</time>
      </trkpt>
      <trkpt lat="45.03551" lon="4.89043">
        <ele>149.14199829102</ele>
        <time>2009-05-20T12:16:56Z</time>
      </trkpt>
      <trkpt lat="45.03535" lon="4.89058">
        <ele>148.6609954834</ele>
        <time>2009-05-20T12:16:59Z</time>
      </trkpt>
      <trkpt lat="45.03519" lon="4.89074">
        <ele>149.62199401856</ele>
        <time>2009-05-20T12:17:02Z</time>
      </trkpt>
      <trkpt lat="45.03503" lon="4.89089">
        <ele>148.6609954834</ele>
        <time>2009-05-20T12:17:05Z</time>
      </trkpt>
      <trkpt lat="45.03488" lon="4.89104">
        <ele>149.14199829102</ele>
        <time>2009-05-20T12:17:08Z</time>
      </trkpt>
      <trkpt lat="45.03473" lon="4.89118">
        <ele>149.14199829102</ele>
        <time>2009-05-20T12:17:11Z</time>
      </trkpt>
      <trkpt lat="45.03456" lon="4.89133">
        <ele>149.14199829102</ele>
        <time>2009-05-20T12:17:14Z</time>
      </trkpt>
      <trkpt lat="45.0344" lon="4.89149">
        <ele>148.6609954834</ele>
        <time>2009-05-20T12:17:17Z</time>
      </trkpt>
      <trkpt lat="45.03423" lon="4.89164">
        <ele>148.17999267578</ele>
        <time>2009-05-20T12:17:20Z</time>
      </trkpt>
      <trkpt lat="45.03407" lon="4.89179">
        <ele>148.17999267578</ele>
        <time>2009-05-20T12:17:23Z</time>
      </trkpt>
      <trkpt lat="45.03391" lon="4.89194">
        <ele>148.6609954834</ele>
        <time>2009-05-20T12:17:26Z</time>
      </trkpt>
      <trkpt lat="45.03374" lon="4.89209">
        <ele>148.17999267578</ele>
        <time>2009-05-20T12:17:29Z</time>
      </trkpt>
      <trkpt lat="45.03358" lon="4.89223">
        <ele>148.17999267578</ele>
        <time>2009-05-20T12:17:32Z</time>
      </trkpt>
      <trkpt lat="45.03342" lon="4.89238">
        <ele>148.17999267578</ele>
        <time>2009-05-20T12:17:35Z</time>
      </trkpt>
      <trkpt lat="45.03326" lon="4.89253">
        <ele>147.69999694824</ele>
        <time>2009-05-20T12:17:38Z</time>
      </trkpt>
      <trkpt lat="45.0331" lon="4.89268">
        <ele>147.21899414062</ele>
        <time>2009-05-20T12:17:41Z</time>
      </trkpt>
      <trkpt lat="45.03293" lon="4.89284">
        <ele>147.21899414062</ele>
        <time>2009-05-20T12:17:44Z</time>
      </trkpt>
      <trkpt lat="45.03276" lon="4.89299">
        <ele>146.7380065918</ele>
        <time>2009-05-20T12:17:47Z</time>
      </trkpt>
      <trkpt lat="45.03259" lon="4.89315">
        <ele>146.7380065918</ele>
        <time>2009-05-20T12:17:50Z</time>
      </trkpt>
      <trkpt lat="45.03241" lon="4.89331">
        <ele>146.7380065918</ele>
        <time>2009-05-20T12:17:53Z</time>
      </trkpt>
      <trkpt lat="45.03224" lon="4.89348">
        <ele>146.25799560547</ele>
        <time>2009-05-20T12:17:56Z</time>
      </trkpt>
      <trkpt lat="45.03205" lon="4.89364">
        <ele>146.25799560547</ele>
        <time>2009-05-20T12:17:59Z</time>
      </trkpt>
      <trkpt lat="45.03187" lon="4.89382">
        <ele>145.77699279785</ele>
        <time>2009-05-20T12:18:02Z</time>
      </trkpt>
      <trkpt lat="45.03168" lon="4.89399">
        <ele>145.29600524902</ele>
        <time>2009-05-20T12:18:05Z</time>
      </trkpt>
      <trkpt lat="45.03149" lon="4.89417">
        <ele>145.29600524902</ele>
        <time>2009-05-20T12:18:08Z</time>
      </trkpt>
      <trkpt lat="45.0313" lon="4.89433">
        <ele>145.29600524902</ele>
        <time>2009-05-20T12:18:11Z</time>
      </trkpt>
      <trkpt lat="45.03111" lon="4.89451">
        <ele>144.81599426269</ele>
        <time>2009-05-20T12:18:14Z</time>
      </trkpt>
      <trkpt lat="45.03092" lon="4.89468">
        <ele>145.29600524902</ele>
        <time>2009-05-20T12:18:17Z</time>
      </trkpt>
      <trkpt lat="45.03074" lon="4.89485">
        <ele>145.29600524902</ele>
        <time>2009-05-20T12:18:20Z</time>
      </trkpt>
      <trkpt lat="45.03055" lon="4.89501">
        <ele>145.29600524902</ele>
        <time>2009-05-20T12:18:23Z</time>
      </trkpt>
      <trkpt lat="45.03037" lon="4.89518">
        <ele>144.81599426269</ele>
        <time>2009-05-20T12:18:26Z</time>
      </trkpt>
      <trkpt lat="45.03018" lon="4.89536">
        <ele>144.33500671387</ele>
        <time>2009-05-20T12:18:29Z</time>
      </trkpt>
      <trkpt lat="45.02999" lon="4.89553">
        <ele>144.33500671387</ele>
        <time>2009-05-20T12:18:32Z</time>
      </trkpt>
      <trkpt lat="45.02979" lon="4.89571">
        <ele>144.33500671387</ele>
        <time>2009-05-20T12:18:35Z</time>
      </trkpt>
      <trkpt lat="45.02959" lon="4.89589">
        <ele>142.89300537109</ele>
        <time>2009-05-20T12:18:38Z</time>
      </trkpt>
      <trkpt lat="45.02938" lon="4.89608">
        <ele>142.41200256348</ele>
        <time>2009-05-20T12:18:41Z</time>
      </trkpt>
      <trkpt lat="45.02916" lon="4.89628">
        <ele>141.93200683594</ele>
        <time>2009-05-20T12:18:44Z</time>
      </trkpt>
      <trkpt lat="45.02894" lon="4.89649">
        <ele>140.9700012207</ele>
        <time>2009-05-20T12:18:47Z</time>
      </trkpt>
      <trkpt lat="45.02871" lon="4.8967">
        <ele>140.49000549316</ele>
        <time>2009-05-20T12:18:50Z</time>
      </trkpt>
      <trkpt lat="45.02849" lon="4.89689">
        <ele>140.00900268555</ele>
        <time>2009-05-20T12:18:53Z</time>
      </trkpt>
      <trkpt lat="45.02827" lon="4.89709">
        <ele>139.52799987793</ele>
        <time>2009-05-20T12:18:56Z</time>
      </trkpt>
      <trkpt lat="45.02805" lon="4.89726">
        <ele>139.04800415039</ele>
        <time>2009-05-20T12:18:59Z</time>
      </trkpt>
      <trkpt lat="45.02785" lon="4.89744">
        <ele>138.56700134277</ele>
        <time>2009-05-20T12:19:02Z</time>
      </trkpt>
      <trkpt lat="45.02766" lon="4.8976">
        <ele>139.04800415039</ele>
        <time>2009-05-20T12:19:05Z</time>
      </trkpt>
      <trkpt lat="45.02747" lon="4.89776">
        <ele>139.04800415039</ele>
        <time>2009-05-20T12:19:08Z</time>
      </trkpt>
      <trkpt lat="45.02729" lon="4.8979">
        <ele>139.04800415039</ele>
        <time>2009-05-20T12:19:11Z</time>
      </trkpt>
      <trkpt lat="45.02712" lon="4.89804">
        <ele>139.04800415039</ele>
        <time>2009-05-20T12:19:14Z</time>
      </trkpt>
      <trkpt lat="45.02695" lon="4.89819">
        <ele>139.52799987793</ele>
        <time>2009-05-20T12:19:17Z</time>
      </trkpt>
      <trkpt lat="45.02679" lon="4.89834">
        <ele>140.00900268555</ele>
        <time>2009-05-20T12:19:20Z</time>
      </trkpt>
      <trkpt lat="45.02665" lon="4.89852">
        <ele>139.04800415039</ele>
        <time>2009-05-20T12:19:23Z</time>
      </trkpt>
      <trkpt lat="45.02653" lon="4.89875">
        <ele>139.04800415039</ele>
        <time>2009-05-20T12:19:26Z</time>
      </trkpt>
      <trkpt lat="45.02643" lon="4.8991">
        <ele>139.04800415039</ele>
        <time>2009-05-20T12:19:30Z</time>
      </trkpt>
      <trkpt lat="45.02639" lon="4.89938">
        <ele>139.04800415039</ele>
        <time>2009-05-20T12:19:33Z</time>
      </trkpt>
      <trkpt lat="45.02634" lon="4.89967">
        <ele>138.56700134277</ele>
        <time>2009-05-20T12:19:36Z</time>
      </trkpt>
      <trkpt lat="45.0263" lon="4.89997">
        <ele>139.04800415039</ele>
        <time>2009-05-20T12:19:39Z</time>
      </trkpt>
      <trkpt lat="45.02625" lon="4.90026">
        <ele>138.56700134277</ele>
        <time>2009-05-20T12:19:42Z</time>
      </trkpt>
      <trkpt lat="45.0262" lon="4.90056">
        <ele>138.56700134277</ele>
        <time>2009-05-20T12:19:45Z</time>
      </trkpt>
      <trkpt lat="45.02614" lon="4.90086">
        <ele>139.04800415039</ele>
        <time>2009-05-20T12:19:48Z</time>
      </trkpt>
      <trkpt lat="45.02608" lon="4.90114">
        <ele>138.56700134277</ele>
        <time>2009-05-20T12:19:51Z</time>
      </trkpt>
      <trkpt lat="45.02602" lon="4.90142">
        <ele>138.56700134277</ele>
        <time>2009-05-20T12:19:54Z</time>
      </trkpt>
      <trkpt lat="45.02595" lon="4.90169">
        <ele>138.56700134277</ele>
        <time>2009-05-20T12:19:57Z</time>
      </trkpt>
      <trkpt lat="45.02589" lon="4.90196">
        <ele>138.08700561523</ele>
        <time>2009-05-20T12:20:00Z</time>
      </trkpt>
      <trkpt lat="45.02583" lon="4.90223">
        <ele>138.56700134277</ele>
        <time>2009-05-20T12:20:03Z</time>
      </trkpt>
      <trkpt lat="45.02577" lon="4.9025">
        <ele>138.56700134277</ele>
        <time>2009-05-20T12:20:06Z</time>
      </trkpt>
      <trkpt lat="45.0257" lon="4.90277">
        <ele>138.08700561523</ele>
        <time>2009-05-20T12:20:09Z</time>
      </trkpt>
      <trkpt lat="45.02565" lon="4.90304">
        <ele>138.08700561523</ele>
        <time>2009-05-20T12:20:12Z</time>
      </trkpt>
      <trkpt lat="45.02559" lon="4.9033">
        <ele>138.08700561523</ele>
        <time>2009-05-20T12:20:15Z</time>
      </trkpt>
      <trkpt lat="45.02553" lon="4.90356">
        <ele>138.56700134277</ele>
        <time>2009-05-20T12:20:18Z</time>
      </trkpt>
      <trkpt lat="45.02547" lon="4.90382">
        <ele>138.56700134277</ele>
        <time>2009-05-20T12:20:21Z</time>
      </trkpt>
      <trkpt lat="45.02541" lon="4.90408">
        <ele>138.56700134277</ele>
        <time>2009-05-20T12:20:24Z</time>
      </trkpt>
      <trkpt lat="45.02535" lon="4.90433">
        <ele>138.56700134277</ele>
        <time>2009-05-20T12:20:27Z</time>
      </trkpt>
      <trkpt lat="45.0253" lon="4.9046">
        <ele>138.56700134277</ele>
        <time>2009-05-20T12:20:30Z</time>
      </trkpt>
      <trkpt lat="45.02523" lon="4.90487">
        <ele>138.08700561523</ele>
        <time>2009-05-20T12:20:33Z</time>
      </trkpt>
      <trkpt lat="45.02517" lon="4.90514">
        <ele>138.08700561523</ele>
        <time>2009-05-20T12:20:36Z</time>
      </trkpt>
      <trkpt lat="45.02511" lon="4.90542">
        <ele>138.56700134277</ele>
        <time>2009-05-20T12:20:39Z</time>
      </trkpt>
      <trkpt lat="45.02505" lon="4.90569">
        <ele>138.08700561523</ele>
        <time>2009-05-20T12:20:42Z</time>
      </trkpt>
      <trkpt lat="45.02499" lon="4.90596">
        <ele>138.08700561523</ele>
        <time>2009-05-20T12:20:45Z</time>
      </trkpt>
      <trkpt lat="45.02493" lon="4.90625">
        <ele>137.60600280762</ele>
        <time>2009-05-20T12:20:48Z</time>
      </trkpt>
      <trkpt lat="45.02487" lon="4.90654">
        <ele>137.60600280762</ele>
        <time>2009-05-20T12:20:51Z</time>
      </trkpt>
      <trkpt lat="45.02481" lon="4.90685">
        <ele>136.64500427246</ele>
        <time>2009-05-20T12:20:54Z</time>
      </trkpt>
      <trkpt lat="45.02475" lon="4.90716">
        <ele>136.16400146484</ele>
        <time>2009-05-20T12:20:57Z</time>
      </trkpt>
      <trkpt lat="45.02469" lon="4.90748">
        <ele>136.64500427246</ele>
        <time>2009-05-20T12:21:00Z</time>
      </trkpt>
      <trkpt lat="45.02461" lon="4.90781">
        <ele>135.68299865723</ele>
        <time>2009-05-20T12:21:03Z</time>
      </trkpt>
      <trkpt lat="45.02454" lon="4.90814">
        <ele>135.68299865723</ele>
        <time>2009-05-20T12:21:06Z</time>
      </trkpt>
      <trkpt lat="45.02446" lon="4.90846">
        <ele>135.68299865723</ele>
        <time>2009-05-20T12:21:09Z</time>
      </trkpt>
      <trkpt lat="45.02438" lon="4.90875">
        <ele>135.20300292969</ele>
        <time>2009-05-20T12:21:12Z</time>
      </trkpt>
      <trkpt lat="45.0242" lon="4.90904">
        <ele>135.20300292969</ele>
        <time>2009-05-20T12:21:16Z</time>
      </trkpt>
      <trkpt lat="45.02408" lon="4.90909">
        <ele>134.72200012207</ele>
        <time>2009-05-20T12:21:18Z</time>
      </trkpt>
      <trkpt lat="45.02394" lon="4.90912">
        <ele>133.75999450684</ele>
        <time>2009-05-20T12:21:21Z</time>
      </trkpt>
      <trkpt lat="45.0238" lon="4.90929">
        <ele>134.72200012207</ele>
        <time>2009-05-20T12:21:25Z</time>
      </trkpt>
      <trkpt lat="45.02364" lon="4.90962">
        <ele>134.72200012207</ele>
        <time>2009-05-20T12:21:30Z</time>
      </trkpt>
      <trkpt lat="45.02362" lon="4.9098">
        <ele>135.20300292969</ele>
        <time>2009-05-20T12:21:32Z</time>
      </trkpt>
      <trkpt lat="45.02365" lon="4.91018">
        <ele>135.20300292969</ele>
        <time>2009-05-20T12:21:36Z</time>
      </trkpt>
      <trkpt lat="45.02365" lon="4.91038">
        <ele>135.20300292969</ele>
        <time>2009-05-20T12:21:38Z</time>
      </trkpt>
      <trkpt lat="45.02361" lon="4.91075">
        <ele>134.72200012207</ele>
        <time>2009-05-20T12:21:42Z</time>
      </trkpt>
      <trkpt lat="45.02354" lon="4.91103">
        <ele>135.20300292969</ele>
        <time>2009-05-20T12:21:45Z</time>
      </trkpt>
      <trkpt lat="45.02345" lon="4.91129">
        <ele>135.20300292969</ele>
        <time>2009-05-20T12:21:48Z</time>
      </trkpt>
      <trkpt lat="45.02336" lon="4.91156">
        <ele>135.68299865723</ele>
        <time>2009-05-20T12:21:51Z</time>
      </trkpt>
      <trkpt lat="45.02328" lon="4.91182">
        <ele>135.68299865723</ele>
        <time>2009-05-20T12:21:54Z</time>
      </trkpt>
      <trkpt lat="45.02322" lon="4.912">
        <ele>135.68299865723</ele>
        <time>2009-05-20T12:21:56Z</time>
      </trkpt>
      <trkpt lat="45.02311" lon="4.91235">
        <ele>135.68299865723</ele>
        <time>2009-05-20T12:22:00Z</time>
      </trkpt>
      <trkpt lat="45.02302" lon="4.91262">
        <ele>135.68299865723</ele>
        <time>2009-05-20T12:22:03Z</time>
      </trkpt>
      <trkpt lat="45.02294" lon="4.91288">
        <ele>135.68299865723</ele>
        <time>2009-05-20T12:22:06Z</time>
      </trkpt>
      <trkpt lat="45.02285" lon="4.91314">
        <ele>136.16400146484</ele>
        <time>2009-05-20T12:22:09Z</time>
      </trkpt>
      <trkpt lat="45.02276" lon="4.9134">
        <ele>136.64500427246</ele>
        <time>2009-05-20T12:22:12Z</time>
      </trkpt>
      <trkpt lat="45.02267" lon="4.91366">
        <ele>136.16400146484</ele>
        <time>2009-05-20T12:22:15Z</time>
      </trkpt>
      <trkpt lat="45.02264" lon="4.91375">
        <ele>136.64500427246</ele>
        <time>2009-05-20T12:22:16Z</time>
      </trkpt>
      <trkpt lat="45.02249" lon="4.91408">
        <ele>137.125</ele>
        <time>2009-05-20T12:22:20Z</time>
      </trkpt>
      <trkpt lat="45.02237" lon="4.9143">
        <ele>137.125</ele>
        <time>2009-05-20T12:22:23Z</time>
      </trkpt>
      <trkpt lat="45.02224" lon="4.91452">
        <ele>136.64500427246</ele>
        <time>2009-05-20T12:22:26Z</time>
      </trkpt>
      <trkpt lat="45.02211" lon="4.91472">
        <ele>136.64500427246</ele>
        <time>2009-05-20T12:22:29Z</time>
      </trkpt>
      <trkpt lat="45.02199" lon="4.91492">
        <ele>137.125</ele>
        <time>2009-05-20T12:22:32Z</time>
      </trkpt>
      <trkpt lat="45.02187" lon="4.91512">
        <ele>136.64500427246</ele>
        <time>2009-05-20T12:22:35Z</time>
      </trkpt>
      <trkpt lat="45.02175" lon="4.91532">
        <ele>136.64500427246</ele>
        <time>2009-05-20T12:22:38Z</time>
      </trkpt>
      <trkpt lat="45.02164" lon="4.91549">
        <ele>137.125</ele>
        <time>2009-05-20T12:22:41Z</time>
      </trkpt>
      <trkpt lat="45.02154" lon="4.91567">
        <ele>137.60600280762</ele>
        <time>2009-05-20T12:22:44Z</time>
      </trkpt>
      <trkpt lat="45.02142" lon="4.91586">
        <ele>137.125</ele>
        <time>2009-05-20T12:22:47Z</time>
      </trkpt>
      <trkpt lat="45.02131" lon="4.91606">
        <ele>137.60600280762</ele>
        <time>2009-05-20T12:22:50Z</time>
      </trkpt>
      <trkpt lat="45.02119" lon="4.91627">
        <ele>138.08700561523</ele>
        <time>2009-05-20T12:22:53Z</time>
      </trkpt>
      <trkpt lat="45.02116" lon="4.91635">
        <ele>138.08700561523</ele>
        <time>2009-05-20T12:22:54Z</time>
      </trkpt>
      <trkpt lat="45.02104" lon="4.91667">
        <ele>138.08700561523</ele>
        <time>2009-05-20T12:22:58Z</time>
      </trkpt>
      <trkpt lat="45.02095" lon="4.91692">
        <ele>138.08700561523</ele>
        <time>2009-05-20T12:23:01Z</time>
      </trkpt>
      <trkpt lat="45.02087" lon="4.91719">
        <ele>137.60600280762</ele>
        <time>2009-05-20T12:23:04Z</time>
      </trkpt>
      <trkpt lat="45.02079" lon="4.91747">
        <ele>137.60600280762</ele>
        <time>2009-05-20T12:23:07Z</time>
      </trkpt>
      <trkpt lat="45.02072" lon="4.91765">
        <ele>137.125</ele>
        <time>2009-05-20T12:23:09Z</time>
      </trkpt>
      <trkpt lat="45.0205" lon="4.91794">
        <ele>136.64500427246</ele>
        <time>2009-05-20T12:23:13Z</time>
      </trkpt>
      <trkpt lat="45.02037" lon="4.91802">
        <ele>136.64500427246</ele>
        <time>2009-05-20T12:23:15Z</time>
      </trkpt>
      <trkpt lat="45.0201" lon="4.91813">
        <ele>137.125</ele>
        <time>2009-05-20T12:23:19Z</time>
      </trkpt>
      <trkpt lat="45.01991" lon="4.91822">
        <ele>137.60600280762</ele>
        <time>2009-05-20T12:23:22Z</time>
      </trkpt>
      <trkpt lat="45.01973" lon="4.91832">
        <ele>137.125</ele>
        <time>2009-05-20T12:23:25Z</time>
      </trkpt>
      <trkpt lat="45.01955" lon="4.91841">
        <ele>137.125</ele>
        <time>2009-05-20T12:23:28Z</time>
      </trkpt>
      <trkpt lat="45.01938" lon="4.91851">
        <ele>137.60600280762</ele>
        <time>2009-05-20T12:23:31Z</time>
      </trkpt>
      <trkpt lat="45.01921" lon="4.91862">
        <ele>138.08700561523</ele>
        <time>2009-05-20T12:23:34Z</time>
      </trkpt>
      <trkpt lat="45.01904" lon="4.91876">
        <ele>137.60600280762</ele>
        <time>2009-05-20T12:23:37Z</time>
      </trkpt>
      <trkpt lat="45.01889" lon="4.91892">
        <ele>138.08700561523</ele>
        <time>2009-05-20T12:23:40Z</time>
      </trkpt>
      <trkpt lat="45.01874" lon="4.91909">
        <ele>138.56700134277</ele>
        <time>2009-05-20T12:23:43Z</time>
      </trkpt>
      <trkpt lat="45.0186" lon="4.91923">
        <ele>138.56700134277</ele>
        <time>2009-05-20T12:23:46Z</time>
      </trkpt>
      <trkpt lat="45.01845" lon="4.91936">
        <ele>139.52799987793</ele>
        <time>2009-05-20T12:23:49Z</time>
      </trkpt>
      <trkpt lat="45.01836" lon="4.91944">
        <ele>139.52799987793</ele>
        <time>2009-05-20T12:23:51Z</time>
      </trkpt>
      <trkpt lat="45.01818" lon="4.91968">
        <ele>139.52799987793</ele>
        <time>2009-05-20T12:23:55Z</time>
      </trkpt>
      <trkpt lat="45.01813" lon="4.91974">
        <ele>139.52799987793</ele>
        <time>2009-05-20T12:23:56Z</time>
      </trkpt>
      <trkpt lat="45.01792" lon="4.91999">
        <ele>138.56700134277</ele>
        <time>2009-05-20T12:24:00Z</time>
      </trkpt>
      <trkpt lat="45.01778" lon="4.9202">
        <ele>138.08700561523</ele>
        <time>2009-05-20T12:24:03Z</time>
      </trkpt>
      <trkpt lat="45.01771" lon="4.92058">
        <ele>137.125</ele>
        <time>2009-05-20T12:24:07Z</time>
      </trkpt>
      <trkpt lat="45.01774" lon="4.92079">
        <ele>136.64500427246</ele>
        <time>2009-05-20T12:24:09Z</time>
      </trkpt>
      <trkpt lat="45.01775" lon="4.9212">
        <ele>136.16400146484</ele>
        <time>2009-05-20T12:24:13Z</time>
      </trkpt>
      <trkpt lat="45.01778" lon="4.92148">
        <ele>136.16400146484</ele>
        <time>2009-05-20T12:24:16Z</time>
      </trkpt>
      <trkpt lat="45.0178" lon="4.92177">
        <ele>135.68299865723</ele>
        <time>2009-05-20T12:24:19Z</time>
      </trkpt>
      <trkpt lat="45.01782" lon="4.92195">
        <ele>135.68299865723</ele>
        <time>2009-05-20T12:24:21Z</time>
      </trkpt>
      <trkpt lat="45.0178" lon="4.92235">
        <ele>135.68299865723</ele>
        <time>2009-05-20T12:24:25Z</time>
      </trkpt>
      <trkpt lat="45.01777" lon="4.92265">
        <ele>135.20300292969</ele>
        <time>2009-05-20T12:24:28Z</time>
      </trkpt>
      <trkpt lat="45.01775" lon="4.92295">
        <ele>135.68299865723</ele>
        <time>2009-05-20T12:24:31Z</time>
      </trkpt>
      <trkpt lat="45.01776" lon="4.92325">
        <ele>136.64500427246</ele>
        <time>2009-05-20T12:24:34Z</time>
      </trkpt>
      <trkpt lat="45.01776" lon="4.92355">
        <ele>136.64500427246</ele>
        <time>2009-05-20T12:24:37Z</time>
      </trkpt>
      <trkpt lat="45.01777" lon="4.92384">
        <ele>136.64500427246</ele>
        <time>2009-05-20T12:24:40Z</time>
      </trkpt>
      <trkpt lat="45.01778" lon="4.92413">
        <ele>136.64500427246</ele>
        <time>2009-05-20T12:24:43Z</time>
      </trkpt>
      <trkpt lat="45.0178" lon="4.92441">
        <ele>137.125</ele>
        <time>2009-05-20T12:24:46Z</time>
      </trkpt>
      <trkpt lat="45.0178" lon="4.92469">
        <ele>137.125</ele>
        <time>2009-05-20T12:24:49Z</time>
      </trkpt>
      <trkpt lat="45.01781" lon="4.92497">
        <ele>137.125</ele>
        <time>2009-05-20T12:24:52Z</time>
      </trkpt>
      <trkpt lat="45.0178" lon="4.92526">
        <ele>137.125</ele>
        <time>2009-05-20T12:24:55Z</time>
      </trkpt>
      <trkpt lat="45.01778" lon="4.92556">
        <ele>136.64500427246</ele>
        <time>2009-05-20T12:24:58Z</time>
      </trkpt>
      <trkpt lat="45.01778" lon="4.92587">
        <ele>136.64500427246</ele>
        <time>2009-05-20T12:25:01Z</time>
      </trkpt>
      <trkpt lat="45.0178" lon="4.92618">
        <ele>136.64500427246</ele>
        <time>2009-05-20T12:25:04Z</time>
      </trkpt>
      <trkpt lat="45.01783" lon="4.92649">
        <ele>136.64500427246</ele>
        <time>2009-05-20T12:25:07Z</time>
      </trkpt>
      <trkpt lat="45.01784" lon="4.92679">
        <ele>137.125</ele>
        <time>2009-05-20T12:25:10Z</time>
      </trkpt>
      <trkpt lat="45.01785" lon="4.9271">
        <ele>137.125</ele>
        <time>2009-05-20T12:25:13Z</time>
      </trkpt>
      <trkpt lat="45.01785" lon="4.92741">
        <ele>137.125</ele>
        <time>2009-05-20T12:25:16Z</time>
      </trkpt>
      <trkpt lat="45.01786" lon="4.92771">
        <ele>137.125</ele>
        <time>2009-05-20T12:25:19Z</time>
      </trkpt>
      <trkpt lat="45.01788" lon="4.92802">
        <ele>137.60600280762</ele>
        <time>2009-05-20T12:25:22Z</time>
      </trkpt>
      <trkpt lat="45.01796" lon="4.92843">
        <ele>137.125</ele>
        <time>2009-05-20T12:25:26Z</time>
      </trkpt>
      <trkpt lat="45.01803" lon="4.92872">
        <ele>137.60600280762</ele>
        <time>2009-05-20T12:25:29Z</time>
      </trkpt>
      <trkpt lat="45.01812" lon="4.92901">
        <ele>137.60600280762</ele>
        <time>2009-05-20T12:25:32Z</time>
      </trkpt>
      <trkpt lat="45.01821" lon="4.92929">
        <ele>137.60600280762</ele>
        <time>2009-05-20T12:25:35Z</time>
      </trkpt>
      <trkpt lat="45.0183" lon="4.92958">
        <ele>137.60600280762</ele>
        <time>2009-05-20T12:25:38Z</time>
      </trkpt>
      <trkpt lat="45.01839" lon="4.92987">
        <ele>137.125</ele>
        <time>2009-05-20T12:25:41Z</time>
      </trkpt>
      <trkpt lat="45.01847" lon="4.93017">
        <ele>137.60600280762</ele>
        <time>2009-05-20T12:25:44Z</time>
      </trkpt>
      <trkpt lat="45.01854" lon="4.93046">
        <ele>137.60600280762</ele>
        <time>2009-05-20T12:25:47Z</time>
      </trkpt>
      <trkpt lat="45.01859" lon="4.93069">
        <ele>137.60600280762</ele>
        <time>2009-05-20T12:25:51Z</time>
      </trkpt>
      <trkpt lat="45.01863" lon="4.93084">
        <ele>137.60600280762</ele>
        <time>2009-05-20T12:25:54Z</time>
      </trkpt>
      <trkpt lat="45.01868" lon="4.93106">
        <ele>137.60600280762</ele>
        <time>2009-05-20T12:25:58Z</time>
      </trkpt>
      <trkpt lat="45.01873" lon="4.93128">
        <ele>137.60600280762</ele>
        <time>2009-05-20T12:26:02Z</time>
      </trkpt>
      <trkpt lat="45.01874" lon="4.93142">
        <ele>138.08700561523</ele>
        <time>2009-05-20T12:26:06Z</time>
      </trkpt>
      <trkpt lat="45.01873" lon="4.93142">
        <ele>137.60600280762</ele>
        <time>2009-05-20T12:26:13Z</time>
      </trkpt>
      <trkpt lat="45.01873" lon="4.93141">
        <ele>138.08700561523</ele>
        <time>2009-05-20T12:26:14Z</time>
      </trkpt>
      <trkpt lat="45.01874" lon="4.93141">
        <ele>138.08700561523</ele>
        <time>2009-05-20T12:26:19Z</time>
      </trkpt>
      <trkpt lat="45.01877" lon="4.93154">
        <ele>138.08700561523</ele>
        <time>2009-05-20T12:26:23Z</time>
      </trkpt>
      <trkpt lat="45.01883" lon="4.93185">
        <ele>138.08700561523</ele>
        <time>2009-05-20T12:26:28Z</time>
      </trkpt>
      <trkpt lat="45.01888" lon="4.93207">
        <ele>138.56700134277</ele>
        <time>2009-05-20T12:26:31Z</time>
      </trkpt>
      <trkpt lat="45.01893" lon="4.93228">
        <ele>139.04800415039</ele>
        <time>2009-05-20T12:26:34Z</time>
      </trkpt>
      <trkpt lat="45.01899" lon="4.93249">
        <ele>139.52799987793</ele>
        <time>2009-05-20T12:26:37Z</time>
      </trkpt>
      <trkpt lat="45.01905" lon="4.93271">
        <ele>139.52799987793</ele>
        <time>2009-05-20T12:26:40Z</time>
      </trkpt>
      <trkpt lat="45.01913" lon="4.93292">
        <ele>139.52799987793</ele>
        <time>2009-05-20T12:26:43Z</time>
      </trkpt>
      <trkpt lat="45.01924" lon="4.93321">
        <ele>140.00900268555</ele>
        <time>2009-05-20T12:26:47Z</time>
      </trkpt>
      <trkpt lat="45.01932" lon="4.93343">
        <ele>140.00900268555</ele>
        <time>2009-05-20T12:26:50Z</time>
      </trkpt>
      <trkpt lat="45.01941" lon="4.93366">
        <ele>140.00900268555</ele>
        <time>2009-05-20T12:26:53Z</time>
      </trkpt>
      <trkpt lat="45.01951" lon="4.93389">
        <ele>140.49000549316</ele>
        <time>2009-05-20T12:26:56Z</time>
      </trkpt>
      <trkpt lat="45.0196" lon="4.93413">
        <ele>140.49000549316</ele>
        <time>2009-05-20T12:26:59Z</time>
      </trkpt>
      <trkpt lat="45.01967" lon="4.93439">
        <ele>140.49000549316</ele>
        <time>2009-05-20T12:27:02Z</time>
      </trkpt>
      <trkpt lat="45.01973" lon="4.93466">
        <ele>140.00900268555</ele>
        <time>2009-05-20T12:27:05Z</time>
      </trkpt>
      <trkpt lat="45.0198" lon="4.93494">
        <ele>140.00900268555</ele>
        <time>2009-05-20T12:27:08Z</time>
      </trkpt>
      <trkpt lat="45.01986" lon="4.93522">
        <ele>140.00900268555</ele>
        <time>2009-05-20T12:27:11Z</time>
      </trkpt>
      <trkpt lat="45.01988" lon="4.93531">
        <ele>140.00900268555</ele>
        <time>2009-05-20T12:27:12Z</time>
      </trkpt>
      <trkpt lat="45.0198" lon="4.93563">
        <ele>140.00900268555</ele>
        <time>2009-05-20T12:27:16Z</time>
      </trkpt>
      <trkpt lat="45.01955" lon="4.93587">
        <ele>139.04800415039</ele>
        <time>2009-05-20T12:27:20Z</time>
      </trkpt>
      <trkpt lat="45.01934" lon="4.93607">
        <ele>138.08700561523</ele>
        <time>2009-05-20T12:27:23Z</time>
      </trkpt>
      <trkpt lat="45.01912" lon="4.93626">
        <ele>137.60600280762</ele>
        <time>2009-05-20T12:27:26Z</time>
      </trkpt>
      <trkpt lat="45.01891" lon="4.93645">
        <ele>138.08700561523</ele>
        <time>2009-05-20T12:27:29Z</time>
      </trkpt>
      <trkpt lat="45.01871" lon="4.93662">
        <ele>138.56700134277</ele>
        <time>2009-05-20T12:27:32Z</time>
      </trkpt>
      <trkpt lat="45.01852" lon="4.9368">
        <ele>139.04800415039</ele>
        <time>2009-05-20T12:27:35Z</time>
      </trkpt>
      <trkpt lat="45.01832" lon="4.93696">
        <ele>137.60600280762</ele>
        <time>2009-05-20T12:27:38Z</time>
      </trkpt>
      <trkpt lat="45.0181" lon="4.93715">
        <ele>136.16400146484</ele>
        <time>2009-05-20T12:27:41Z</time>
      </trkpt>
      <trkpt lat="45.01789" lon="4.93734">
        <ele>135.20300292969</ele>
        <time>2009-05-20T12:27:44Z</time>
      </trkpt>
      <trkpt lat="45.01767" lon="4.93752">
        <ele>134.72200012207</ele>
        <time>2009-05-20T12:27:47Z</time>
      </trkpt>
      <trkpt lat="45.01748" lon="4.93769">
        <ele>135.68299865723</ele>
        <time>2009-05-20T12:27:50Z</time>
      </trkpt>
      <trkpt lat="45.0173" lon="4.93785">
        <ele>135.68299865723</ele>
        <time>2009-05-20T12:27:53Z</time>
      </trkpt>
      <trkpt lat="45.01713" lon="4.938">
        <ele>136.64500427246</ele>
        <time>2009-05-20T12:27:56Z</time>
      </trkpt>
      <trkpt lat="45.01695" lon="4.93816">
        <ele>135.68299865723</ele>
        <time>2009-05-20T12:27:59Z</time>
      </trkpt>
      <trkpt lat="45.01677" lon="4.93831">
        <ele>136.16400146484</ele>
        <time>2009-05-20T12:28:02Z</time>
      </trkpt>
      <trkpt lat="45.01659" lon="4.93847">
        <ele>135.68299865723</ele>
        <time>2009-05-20T12:28:05Z</time>
      </trkpt>
      <trkpt lat="45.01641" lon="4.93863">
        <ele>135.68299865723</ele>
        <time>2009-05-20T12:28:08Z</time>
      </trkpt>
      <trkpt lat="45.01623" lon="4.93878">
        <ele>135.20300292969</ele>
        <time>2009-05-20T12:28:11Z</time>
      </trkpt>
      <trkpt lat="45.01612" lon="4.93887">
        <ele>135.20300292969</ele>
        <time>2009-05-20T12:28:13Z</time>
      </trkpt>
      <trkpt lat="45.0159" lon="4.939">
        <ele>136.64500427246</ele>
        <time>2009-05-20T12:28:17Z</time>
      </trkpt>
      <trkpt lat="45.01576" lon="4.93911">
        <ele>137.125</ele>
        <time>2009-05-20T12:28:20Z</time>
      </trkpt>
      <trkpt lat="45.01563" lon="4.93922">
        <ele>137.60600280762</ele>
        <time>2009-05-20T12:28:23Z</time>
      </trkpt>
      <trkpt lat="45.0155" lon="4.93934">
        <ele>138.56700134277</ele>
        <time>2009-05-20T12:28:26Z</time>
      </trkpt>
      <trkpt lat="45.0154" lon="4.93947">
        <ele>139.04800415039</ele>
        <time>2009-05-20T12:28:29Z</time>
      </trkpt>
      <trkpt lat="45.01534" lon="4.93955">
        <ele>140.00900268555</ele>
        <time>2009-05-20T12:28:31Z</time>
      </trkpt>
      <trkpt lat="45.01519" lon="4.93972">
        <ele>142.41200256348</ele>
        <time>2009-05-20T12:28:35Z</time>
      </trkpt>
      <trkpt lat="45.01509" lon="4.93987">
        <ele>144.33500671387</ele>
        <time>2009-05-20T12:28:39Z</time>
      </trkpt>
      <trkpt lat="45.01501" lon="4.94002">
        <ele>144.81599426269</ele>
        <time>2009-05-20T12:28:43Z</time>
      </trkpt>
      <trkpt lat="45.01493" lon="4.94016">
        <ele>146.25799560547</ele>
        <time>2009-05-20T12:28:47Z</time>
      </trkpt>
      <trkpt lat="45.01488" lon="4.94034">
        <ele>147.69999694824</ele>
        <time>2009-05-20T12:28:51Z</time>
      </trkpt>
      <trkpt lat="45.01493" lon="4.94054">
        <ele>148.6609954834</ele>
        <time>2009-05-20T12:28:55Z</time>
      </trkpt>
      <trkpt lat="45.01502" lon="4.94074">
        <ele>149.14199829102</ele>
        <time>2009-05-20T12:28:59Z</time>
      </trkpt>
      <trkpt lat="45.0151" lon="4.94094">
        <ele>150.58399963379</ele>
        <time>2009-05-20T12:29:03Z</time>
      </trkpt>
      <trkpt lat="45.01516" lon="4.94115">
        <ele>151.54499816894</ele>
        <time>2009-05-20T12:29:07Z</time>
      </trkpt>
      <trkpt lat="45.01521" lon="4.9413">
        <ele>152.02600097656</ele>
        <time>2009-05-20T12:29:10Z</time>
      </trkpt>
      <trkpt lat="45.01532" lon="4.94159">
        <ele>153.46800231934</ele>
        <time>2009-05-20T12:29:15Z</time>
      </trkpt>
      <trkpt lat="45.01538" lon="4.94177">
        <ele>154.42900085449</ele>
        <time>2009-05-20T12:29:18Z</time>
      </trkpt>
      <trkpt lat="45.01551" lon="4.94199">
        <ele>155.87100219727</ele>
        <time>2009-05-20T12:29:23Z</time>
      </trkpt>
      <trkpt lat="45.01552" lon="4.94204">
        <ele>155.87100219727</ele>
        <time>2009-05-20T12:29:24Z</time>
      </trkpt>
      <trkpt lat="45.01561" lon="4.94231">
        <ele>157.31300354004</ele>
        <time>2009-05-20T12:29:29Z</time>
      </trkpt>
      <trkpt lat="45.01568" lon="4.9425">
        <ele>157.79400634766</ele>
        <time>2009-05-20T12:29:33Z</time>
      </trkpt>
      <trkpt lat="45.01577" lon="4.94272">
        <ele>159.23500061035</ele>
        <time>2009-05-20T12:29:37Z</time>
      </trkpt>
      <trkpt lat="45.01578" lon="4.94277">
        <ele>159.23500061035</ele>
        <time>2009-05-20T12:29:38Z</time>
      </trkpt>
      <trkpt lat="45.0158" lon="4.94289">
        <ele>160.19700622559</ele>
        <time>2009-05-20T12:29:40Z</time>
      </trkpt>
      <trkpt lat="45.01584" lon="4.9431">
        <ele>160.67700195312</ele>
        <time>2009-05-20T12:29:44Z</time>
      </trkpt>
      <trkpt lat="45.01585" lon="4.94337">
        <ele>161.15800476074</ele>
        <time>2009-05-20T12:29:49Z</time>
      </trkpt>
      <trkpt lat="45.01584" lon="4.94359">
        <ele>162.60000610352</ele>
        <time>2009-05-20T12:29:53Z</time>
      </trkpt>
      <trkpt lat="45.01579" lon="4.94378">
        <ele>163.56199645996</ele>
        <time>2009-05-20T12:29:57Z</time>
      </trkpt>
      <trkpt lat="45.01569" lon="4.94392">
        <ele>164.04200744629</ele>
        <time>2009-05-20T12:30:01Z</time>
      </trkpt>
      <trkpt lat="45.01558" lon="4.94407">
        <ele>164.52299499512</ele>
        <time>2009-05-20T12:30:05Z</time>
      </trkpt>
      <trkpt lat="45.01553" lon="4.94427">
        <ele>165.48399353027</ele>
        <time>2009-05-20T12:30:09Z</time>
      </trkpt>
      <trkpt lat="45.01551" lon="4.94447">
        <ele>166.44500732422</ele>
        <time>2009-05-20T12:30:13Z</time>
      </trkpt>
      <trkpt lat="45.01548" lon="4.94464">
        <ele>167.8869934082</ele>
        <time>2009-05-20T12:30:17Z</time>
      </trkpt>
      <trkpt lat="45.01543" lon="4.94483">
        <ele>168.36799621582</ele>
        <time>2009-05-20T12:30:21Z</time>
      </trkpt>
      <trkpt lat="45.01538" lon="4.94502">
        <ele>168.84899902344</ele>
        <time>2009-05-20T12:30:25Z</time>
      </trkpt>
      <trkpt lat="45.01532" lon="4.94521">
        <ele>169.80999755859</ele>
        <time>2009-05-20T12:30:29Z</time>
      </trkpt>
      <trkpt lat="45.01526" lon="4.9454">
        <ele>171.25199890137</ele>
        <time>2009-05-20T12:30:33Z</time>
      </trkpt>
      <trkpt lat="45.0152" lon="4.9456">
        <ele>172.21299743652</ele>
        <time>2009-05-20T12:30:37Z</time>
      </trkpt>
      <trkpt lat="45.01514" lon="4.94579">
        <ele>172.69400024414</ele>
        <time>2009-05-20T12:30:41Z</time>
      </trkpt>
      <trkpt lat="45.01509" lon="4.94597">
        <ele>173.6549987793</ele>
        <time>2009-05-20T12:30:45Z</time>
      </trkpt>
      <trkpt lat="45.01503" lon="4.94616">
        <ele>174.13600158691</ele>
        <time>2009-05-20T12:30:49Z</time>
      </trkpt>
      <trkpt lat="45.01497" lon="4.94636">
        <ele>175.09700012207</ele>
        <time>2009-05-20T12:30:53Z</time>
      </trkpt>
      <trkpt lat="45.01491" lon="4.94656">
        <ele>175.09700012207</ele>
        <time>2009-05-20T12:30:57Z</time>
      </trkpt>
      <trkpt lat="45.01485" lon="4.94676">
        <ele>176.05900573731</ele>
        <time>2009-05-20T12:31:01Z</time>
      </trkpt>
      <trkpt lat="45.01479" lon="4.94696">
        <ele>176.53900146484</ele>
        <time>2009-05-20T12:31:05Z</time>
      </trkpt>
      <trkpt lat="45.01472" lon="4.94716">
        <ele>177.50100708008</ele>
        <time>2009-05-20T12:31:09Z</time>
      </trkpt>
      <trkpt lat="45.01465" lon="4.94737">
        <ele>177.98100280762</ele>
        <time>2009-05-20T12:31:13Z</time>
      </trkpt>
      <trkpt lat="45.01458" lon="4.94757">
        <ele>178.46200561523</ele>
        <time>2009-05-20T12:31:17Z</time>
      </trkpt>
      <trkpt lat="45.01451" lon="4.94777">
        <ele>179.42300415039</ele>
        <time>2009-05-20T12:31:21Z</time>
      </trkpt>
      <trkpt lat="45.01445" lon="4.94798">
        <ele>178.94299316406</ele>
        <time>2009-05-20T12:31:25Z</time>
      </trkpt>
      <trkpt lat="45.01439" lon="4.94818">
        <ele>180.38499450684</ele>
        <time>2009-05-20T12:31:29Z</time>
      </trkpt>
      <trkpt lat="45.01432" lon="4.94839">
        <ele>181.34599304199</ele>
        <time>2009-05-20T12:31:33Z</time>
      </trkpt>
      <trkpt lat="45.01426" lon="4.94861">
        <ele>181.82600402832</ele>
        <time>2009-05-20T12:31:37Z</time>
      </trkpt>
      <trkpt lat="45.01418" lon="4.94881">
        <ele>182.30700683594</ele>
        <time>2009-05-20T12:31:41Z</time>
      </trkpt>
      <trkpt lat="45.01409" lon="4.949">
        <ele>183.74899291992</ele>
        <time>2009-05-20T12:31:45Z</time>
      </trkpt>
      <trkpt lat="45.01398" lon="4.94917">
        <ele>184.22999572754</ele>
        <time>2009-05-20T12:31:49Z</time>
      </trkpt>
      <trkpt lat="45.01387" lon="4.94933">
        <ele>185.19099426269</ele>
        <time>2009-05-20T12:31:53Z</time>
      </trkpt>
      <trkpt lat="45.01375" lon="4.94946">
        <ele>185.67199707031</ele>
        <time>2009-05-20T12:31:57Z</time>
      </trkpt>
      <trkpt lat="45.01362" lon="4.94955">
        <ele>187.11399841309</ele>
        <time>2009-05-20T12:32:01Z</time>
      </trkpt>
      <trkpt lat="45.01349" lon="4.94963">
        <ele>187.59399414062</ele>
        <time>2009-05-20T12:32:05Z</time>
      </trkpt>
      <trkpt lat="45.01337" lon="4.94971">
        <ele>188.55599975586</ele>
        <time>2009-05-20T12:32:09Z</time>
      </trkpt>
      <trkpt lat="45.01324" lon="4.94977">
        <ele>189.51699829102</ele>
        <time>2009-05-20T12:32:13Z</time>
      </trkpt>
      <trkpt lat="45.01311" lon="4.94983">
        <ele>190.95899963379</ele>
        <time>2009-05-20T12:32:17Z</time>
      </trkpt>
      <trkpt lat="45.01299" lon="4.94988">
        <ele>190.95899963379</ele>
        <time>2009-05-20T12:32:21Z</time>
      </trkpt>
      <trkpt lat="45.01286" lon="4.94995">
        <ele>191.91999816894</ele>
        <time>2009-05-20T12:32:25Z</time>
      </trkpt>
      <trkpt lat="45.01274" lon="4.95001">
        <ele>192.88200378418</ele>
        <time>2009-05-20T12:32:29Z</time>
      </trkpt>
      <trkpt lat="45.01262" lon="4.95007">
        <ele>192.88200378418</ele>
        <time>2009-05-20T12:32:33Z</time>
      </trkpt>
      <trkpt lat="45.0125" lon="4.95012">
        <ele>193.84300231934</ele>
        <time>2009-05-20T12:32:37Z</time>
      </trkpt>
      <trkpt lat="45.01247" lon="4.95014">
        <ele>194.32400512695</ele>
        <time>2009-05-20T12:32:38Z</time>
      </trkpt>
      <trkpt lat="45.01236" lon="4.95019">
        <ele>194.32400512695</ele>
        <time>2009-05-20T12:32:42Z</time>
      </trkpt>
      <trkpt lat="45.01225" lon="4.95025">
        <ele>194.80400085449</ele>
        <time>2009-05-20T12:32:46Z</time>
      </trkpt>
      <trkpt lat="45.01213" lon="4.95031">
        <ele>195.28500366211</ele>
        <time>2009-05-20T12:32:50Z</time>
      </trkpt>
      <trkpt lat="45.01202" lon="4.95036">
        <ele>195.76600646973</ele>
        <time>2009-05-20T12:32:54Z</time>
      </trkpt>
      <trkpt lat="45.0119" lon="4.95043">
        <ele>196.24600219727</ele>
        <time>2009-05-20T12:32:58Z</time>
      </trkpt>
      <trkpt lat="45.01177" lon="4.95049">
        <ele>196.72700500488</ele>
        <time>2009-05-20T12:33:02Z</time>
      </trkpt>
      <trkpt lat="45.01164" lon="4.95056">
        <ele>197.20799255371</ele>
        <time>2009-05-20T12:33:06Z</time>
      </trkpt>
      <trkpt lat="45.01151" lon="4.95065">
        <ele>198.16900634766</ele>
        <time>2009-05-20T12:33:10Z</time>
      </trkpt>
      <trkpt lat="45.01139" lon="4.95079">
        <ele>198.64999389648</ele>
        <time>2009-05-20T12:33:14Z</time>
      </trkpt>
      <trkpt lat="45.01125" lon="4.95104">
        <ele>199.13000488281</ele>
        <time>2009-05-20T12:33:19Z</time>
      </trkpt>
      <trkpt lat="45.01117" lon="4.95123">
        <ele>199.13000488281</ele>
        <time>2009-05-20T12:33:22Z</time>
      </trkpt>
      <trkpt lat="45.0111" lon="4.95144">
        <ele>198.64999389648</ele>
        <time>2009-05-20T12:33:25Z</time>
      </trkpt>
      <trkpt lat="45.01103" lon="4.95165">
        <ele>199.13000488281</ele>
        <time>2009-05-20T12:33:28Z</time>
      </trkpt>
      <trkpt lat="45.01096" lon="4.95186">
        <ele>199.13000488281</ele>
        <time>2009-05-20T12:33:31Z</time>
      </trkpt>
      <trkpt lat="45.01088" lon="4.95209">
        <ele>199.61099243164</ele>
        <time>2009-05-20T12:33:34Z</time>
      </trkpt>
      <trkpt lat="45.01082" lon="4.95234">
        <ele>199.13000488281</ele>
        <time>2009-05-20T12:33:37Z</time>
      </trkpt>
      <trkpt lat="45.01079" lon="4.95261">
        <ele>199.13000488281</ele>
        <time>2009-05-20T12:33:40Z</time>
      </trkpt>
      <trkpt lat="45.01078" lon="4.95292">
        <ele>198.16900634766</ele>
        <time>2009-05-20T12:33:43Z</time>
      </trkpt>
      <trkpt lat="45.0108" lon="4.95324">
        <ele>197.20799255371</ele>
        <time>2009-05-20T12:33:46Z</time>
      </trkpt>
      <trkpt lat="45.01081" lon="4.95359">
        <ele>196.72700500488</ele>
        <time>2009-05-20T12:33:49Z</time>
      </trkpt>
      <trkpt lat="45.01079" lon="4.95403">
        <ele>195.28500366211</ele>
        <time>2009-05-20T12:33:52Z</time>
      </trkpt>
      <trkpt lat="45.01075" lon="4.95438">
        <ele>194.32400512695</ele>
        <time>2009-05-20T12:33:55Z</time>
      </trkpt>
      <trkpt lat="45.01066" lon="4.95477">
        <ele>192.40100097656</ele>
        <time>2009-05-20T12:33:58Z</time>
      </trkpt>
      <trkpt lat="45.01057" lon="4.95519">
        <ele>189.99800109863</ele>
        <time>2009-05-20T12:34:01Z</time>
      </trkpt>
      <trkpt lat="45.01054" lon="4.95533">
        <ele>189.99800109863</ele>
        <time>2009-05-20T12:34:02Z</time>
      </trkpt>
      <trkpt lat="45.01038" lon="4.95589">
        <ele>188.55599975586</ele>
        <time>2009-05-20T12:34:06Z</time>
      </trkpt>
      <trkpt lat="45.01031" lon="4.95619">
        <ele>186.63299560547</ele>
        <time>2009-05-20T12:34:08Z</time>
      </trkpt>
      <trkpt lat="45.01023" lon="4.9565">
        <ele>185.19099426269</ele>
        <time>2009-05-20T12:34:10Z</time>
      </trkpt>
      <trkpt lat="45.01015" lon="4.95682">
        <ele>183.74899291992</ele>
        <time>2009-05-20T12:34:12Z</time>
      </trkpt>
      <trkpt lat="45.01008" lon="4.95714">
        <ele>182.30700683594</ele>
        <time>2009-05-20T12:34:14Z</time>
      </trkpt>
      <trkpt lat="45.01001" lon="4.95747">
        <ele>180.86500549316</ele>
        <time>2009-05-20T12:34:16Z</time>
      </trkpt>
      <trkpt lat="45.00997" lon="4.95781">
        <ele>179.42300415039</ele>
        <time>2009-05-20T12:34:18Z</time>
      </trkpt>
      <trkpt lat="45.00994" lon="4.95816">
        <ele>177.98100280762</ele>
        <time>2009-05-20T12:34:20Z</time>
      </trkpt>
      <trkpt lat="45.00994" lon="4.95851">
        <ele>177.50100708008</ele>
        <time>2009-05-20T12:34:22Z</time>
      </trkpt>
      <trkpt lat="45.00997" lon="4.95885">
        <ele>177.02000427246</ele>
        <time>2009-05-20T12:34:24Z</time>
      </trkpt>
      <trkpt lat="45.01001" lon="4.95919">
        <ele>176.05900573731</ele>
        <time>2009-05-20T12:34:26Z</time>
      </trkpt>
      <trkpt lat="45.01005" lon="4.95953">
        <ele>175.57800292969</ele>
        <time>2009-05-20T12:34:28Z</time>
      </trkpt>
      <trkpt lat="45.01008" lon="4.95986">
        <ele>175.57800292969</ele>
        <time>2009-05-20T12:34:30Z</time>
      </trkpt>
      <trkpt lat="45.0101" lon="4.96019">
        <ele>176.05900573731</ele>
        <time>2009-05-20T12:34:32Z</time>
      </trkpt>
      <trkpt lat="45.01009" lon="4.96051">
        <ele>174.61700439453</ele>
        <time>2009-05-20T12:34:34Z</time>
      </trkpt>
      <trkpt lat="45.01009" lon="4.96083">
        <ele>173.6549987793</ele>
        <time>2009-05-20T12:34:36Z</time>
      </trkpt>
      <trkpt lat="45.01009" lon="4.9613">
        <ele>173.6549987793</ele>
        <time>2009-05-20T12:34:39Z</time>
      </trkpt>
      <trkpt lat="45.01009" lon="4.96176">
        <ele>172.21299743652</ele>
        <time>2009-05-20T12:34:42Z</time>
      </trkpt>
      <trkpt lat="45.01009" lon="4.96192">
        <ele>172.69400024414</ele>
        <time>2009-05-20T12:34:43Z</time>
      </trkpt>
      <trkpt lat="45.01009" lon="4.96238">
        <ele>172.21299743652</ele>
        <time>2009-05-20T12:34:46Z</time>
      </trkpt>
      <trkpt lat="45.01009" lon="4.96283">
        <ele>172.21299743652</ele>
        <time>2009-05-20T12:34:49Z</time>
      </trkpt>
      <trkpt lat="45.00997" lon="4.9634">
        <ele>171.73300170898</ele>
        <time>2009-05-20T12:34:53Z</time>
      </trkpt>
      <trkpt lat="45.00993" lon="4.96353">
        <ele>171.73300170898</ele>
        <time>2009-05-20T12:34:54Z</time>
      </trkpt>
      <trkpt lat="45.00973" lon="4.96399">
        <ele>171.73300170898</ele>
        <time>2009-05-20T12:34:58Z</time>
      </trkpt>
      <trkpt lat="45.00959" lon="4.96432">
        <ele>171.73300170898</ele>
        <time>2009-05-20T12:35:01Z</time>
      </trkpt>
      <trkpt lat="45.00945" lon="4.96464">
        <ele>171.73300170898</ele>
        <time>2009-05-20T12:35:04Z</time>
      </trkpt>
      <trkpt lat="45.00932" lon="4.96494">
        <ele>172.21299743652</ele>
        <time>2009-05-20T12:35:07Z</time>
      </trkpt>
      <trkpt lat="45.00919" lon="4.96523">
        <ele>172.21299743652</ele>
        <time>2009-05-20T12:35:10Z</time>
      </trkpt>
      <trkpt lat="45.00905" lon="4.96552">
        <ele>172.21299743652</ele>
        <time>2009-05-20T12:35:13Z</time>
      </trkpt>
      <trkpt lat="45.0089" lon="4.96579">
        <ele>171.73300170898</ele>
        <time>2009-05-20T12:35:16Z</time>
      </trkpt>
      <trkpt lat="45.00875" lon="4.96605">
        <ele>172.21299743652</ele>
        <time>2009-05-20T12:35:19Z</time>
      </trkpt>
      <trkpt lat="45.00861" lon="4.9663">
        <ele>171.73300170898</ele>
        <time>2009-05-20T12:35:22Z</time>
      </trkpt>
      <trkpt lat="45.00845" lon="4.96656">
        <ele>171.73300170898</ele>
        <time>2009-05-20T12:35:25Z</time>
      </trkpt>
      <trkpt lat="45.0083" lon="4.9668">
        <ele>171.73300170898</ele>
        <time>2009-05-20T12:35:28Z</time>
      </trkpt>
      <trkpt lat="45.00813" lon="4.967">
        <ele>171.73300170898</ele>
        <time>2009-05-20T12:35:31Z</time>
      </trkpt>
      <trkpt lat="45.00795" lon="4.9672">
        <ele>171.73300170898</ele>
        <time>2009-05-20T12:35:34Z</time>
      </trkpt>
      <trkpt lat="45.00778" lon="4.96739">
        <ele>171.25199890137</ele>
        <time>2009-05-20T12:35:37Z</time>
      </trkpt>
      <trkpt lat="45.00761" lon="4.96759">
        <ele>171.25199890137</ele>
        <time>2009-05-20T12:35:40Z</time>
      </trkpt>
      <trkpt lat="45.00746" lon="4.96783">
        <ele>170.77099609375</ele>
        <time>2009-05-20T12:35:43Z</time>
      </trkpt>
      <trkpt lat="45.00733" lon="4.96809">
        <ele>170.77099609375</ele>
        <time>2009-05-20T12:35:46Z</time>
      </trkpt>
      <trkpt lat="45.00721" lon="4.96837">
        <ele>170.77099609375</ele>
        <time>2009-05-20T12:35:49Z</time>
      </trkpt>
      <trkpt lat="45.00709" lon="4.96863">
        <ele>170.77099609375</ele>
        <time>2009-05-20T12:35:52Z</time>
      </trkpt>
      <trkpt lat="45.00697" lon="4.96888">
        <ele>170.77099609375</ele>
        <time>2009-05-20T12:35:55Z</time>
      </trkpt>
      <trkpt lat="45.00686" lon="4.96913">
        <ele>171.25199890137</ele>
        <time>2009-05-20T12:35:58Z</time>
      </trkpt>
      <trkpt lat="45.00674" lon="4.96937">
        <ele>171.25199890137</ele>
        <time>2009-05-20T12:36:01Z</time>
      </trkpt>
      <trkpt lat="45.00664" lon="4.96961">
        <ele>171.25199890137</ele>
        <time>2009-05-20T12:36:04Z</time>
      </trkpt>
      <trkpt lat="45.00653" lon="4.96984">
        <ele>171.73300170898</ele>
        <time>2009-05-20T12:36:07Z</time>
      </trkpt>
      <trkpt lat="45.00643" lon="4.97005">
        <ele>171.73300170898</ele>
        <time>2009-05-20T12:36:10Z</time>
      </trkpt>
      <trkpt lat="45.00634" lon="4.97026">
        <ele>172.21299743652</ele>
        <time>2009-05-20T12:36:13Z</time>
      </trkpt>
      <trkpt lat="45.00625" lon="4.97046">
        <ele>171.25199890137</ele>
        <time>2009-05-20T12:36:16Z</time>
      </trkpt>
      <trkpt lat="45.00616" lon="4.97064">
        <ele>171.73300170898</ele>
        <time>2009-05-20T12:36:19Z</time>
      </trkpt>
      <trkpt lat="45.00607" lon="4.97089">
        <ele>172.21299743652</ele>
        <time>2009-05-20T12:36:23Z</time>
      </trkpt>
      <trkpt lat="45.006" lon="4.97108">
        <ele>172.69400024414</ele>
        <time>2009-05-20T12:36:26Z</time>
      </trkpt>
      <trkpt lat="45.00594" lon="4.97128">
        <ele>173.17500305176</ele>
        <time>2009-05-20T12:36:29Z</time>
      </trkpt>
      <trkpt lat="45.00589" lon="4.97148">
        <ele>173.6549987793</ele>
        <time>2009-05-20T12:36:32Z</time>
      </trkpt>
      <trkpt lat="45.00583" lon="4.97169">
        <ele>174.13600158691</ele>
        <time>2009-05-20T12:36:35Z</time>
      </trkpt>
      <trkpt lat="45.00578" lon="4.97191">
        <ele>175.09700012207</ele>
        <time>2009-05-20T12:36:38Z</time>
      </trkpt>
      <trkpt lat="45.00574" lon="4.97212">
        <ele>175.09700012207</ele>
        <time>2009-05-20T12:36:41Z</time>
      </trkpt>
      <trkpt lat="45.00568" lon="4.97232">
        <ele>175.57800292969</ele>
        <time>2009-05-20T12:36:44Z</time>
      </trkpt>
      <trkpt lat="45.00563" lon="4.97254">
        <ele>176.05900573731</ele>
        <time>2009-05-20T12:36:47Z</time>
      </trkpt>
      <trkpt lat="45.00558" lon="4.97276">
        <ele>176.53900146484</ele>
        <time>2009-05-20T12:36:50Z</time>
      </trkpt>
      <trkpt lat="45.00552" lon="4.97299">
        <ele>176.05900573731</ele>
        <time>2009-05-20T12:36:53Z</time>
      </trkpt>
      <trkpt lat="45.00546" lon="4.97323">
        <ele>176.05900573731</ele>
        <time>2009-05-20T12:36:56Z</time>
      </trkpt>
      <trkpt lat="45.00541" lon="4.97346">
        <ele>177.02000427246</ele>
        <time>2009-05-20T12:36:59Z</time>
      </trkpt>
      <trkpt lat="45.00535" lon="4.97369">
        <ele>177.02000427246</ele>
        <time>2009-05-20T12:37:02Z</time>
      </trkpt>
      <trkpt lat="45.00531" lon="4.97391">
        <ele>177.98100280762</ele>
        <time>2009-05-20T12:37:05Z</time>
      </trkpt>
      <trkpt lat="45.00525" lon="4.97412">
        <ele>177.98100280762</ele>
        <time>2009-05-20T12:37:08Z</time>
      </trkpt>
      <trkpt lat="45.00521" lon="4.97434">
        <ele>178.46200561523</ele>
        <time>2009-05-20T12:37:11Z</time>
      </trkpt>
      <trkpt lat="45.00517" lon="4.97456">
        <ele>178.94299316406</ele>
        <time>2009-05-20T12:37:14Z</time>
      </trkpt>
      <trkpt lat="45.00512" lon="4.97479">
        <ele>178.94299316406</ele>
        <time>2009-05-20T12:37:17Z</time>
      </trkpt>
      <trkpt lat="45.00508" lon="4.97503">
        <ele>178.94299316406</ele>
        <time>2009-05-20T12:37:20Z</time>
      </trkpt>
      <trkpt lat="45.00504" lon="4.97528">
        <ele>179.42300415039</ele>
        <time>2009-05-20T12:37:23Z</time>
      </trkpt>
      <trkpt lat="45.00499" lon="4.97553">
        <ele>178.94299316406</ele>
        <time>2009-05-20T12:37:26Z</time>
      </trkpt>
      <trkpt lat="45.00495" lon="4.97579">
        <ele>178.94299316406</ele>
        <time>2009-05-20T12:37:29Z</time>
      </trkpt>
      <trkpt lat="45.00491" lon="4.97605">
        <ele>179.42300415039</ele>
        <time>2009-05-20T12:37:32Z</time>
      </trkpt>
      <trkpt lat="45.00486" lon="4.97631">
        <ele>179.42300415039</ele>
        <time>2009-05-20T12:37:35Z</time>
      </trkpt>
      <trkpt lat="45.00482" lon="4.97657">
        <ele>179.90400695801</ele>
        <time>2009-05-20T12:37:38Z</time>
      </trkpt>
      <trkpt lat="45.00477" lon="4.97684">
        <ele>179.90400695801</ele>
        <time>2009-05-20T12:37:41Z</time>
      </trkpt>
      <trkpt lat="45.00473" lon="4.97712">
        <ele>179.90400695801</ele>
        <time>2009-05-20T12:37:44Z</time>
      </trkpt>
      <trkpt lat="45.00468" lon="4.97741">
        <ele>179.90400695801</ele>
        <time>2009-05-20T12:37:47Z</time>
      </trkpt>
      <trkpt lat="45.00462" lon="4.9777">
        <ele>180.38499450684</ele>
        <time>2009-05-20T12:37:50Z</time>
      </trkpt>
      <trkpt lat="45.00457" lon="4.97802">
        <ele>179.42300415039</ele>
        <time>2009-05-20T12:37:53Z</time>
      </trkpt>
      <trkpt lat="45.00452" lon="4.97835">
        <ele>177.50100708008</ele>
        <time>2009-05-20T12:37:56Z</time>
      </trkpt>
      <trkpt lat="45.0045" lon="4.97846">
        <ele>177.50100708008</ele>
        <time>2009-05-20T12:37:57Z</time>
      </trkpt>
      <trkpt lat="45.00444" lon="4.97881">
        <ele>176.53900146484</ele>
        <time>2009-05-20T12:38:00Z</time>
      </trkpt>
      <trkpt lat="45.00437" lon="4.97917">
        <ele>175.09700012207</ele>
        <time>2009-05-20T12:38:03Z</time>
      </trkpt>
      <trkpt lat="45.00435" lon="4.9793">
        <ele>175.09700012207</ele>
        <time>2009-05-20T12:38:04Z</time>
      </trkpt>
      <trkpt lat="45.00426" lon="4.97968">
        <ele>173.6549987793</ele>
        <time>2009-05-20T12:38:07Z</time>
      </trkpt>
      <trkpt lat="45.00415" lon="4.98006">
        <ele>173.17500305176</ele>
        <time>2009-05-20T12:38:10Z</time>
      </trkpt>
      <trkpt lat="45.00404" lon="4.98044">
        <ele>172.69400024414</ele>
        <time>2009-05-20T12:38:13Z</time>
      </trkpt>
      <trkpt lat="45.00393" lon="4.9808">
        <ele>172.69400024414</ele>
        <time>2009-05-20T12:38:16Z</time>
      </trkpt>
      <trkpt lat="45.00382" lon="4.98113">
        <ele>173.17500305176</ele>
        <time>2009-05-20T12:38:19Z</time>
      </trkpt>
      <trkpt lat="45.00372" lon="4.98145">
        <ele>173.6549987793</ele>
        <time>2009-05-20T12:38:22Z</time>
      </trkpt>
      <trkpt lat="45.00362" lon="4.98175">
        <ele>173.6549987793</ele>
        <time>2009-05-20T12:38:25Z</time>
      </trkpt>
      <trkpt lat="45.00353" lon="4.98205">
        <ele>174.13600158691</ele>
        <time>2009-05-20T12:38:28Z</time>
      </trkpt>
      <trkpt lat="45.00344" lon="4.98235">
        <ele>174.13600158691</ele>
        <time>2009-05-20T12:38:31Z</time>
      </trkpt>
      <trkpt lat="45.00335" lon="4.98264">
        <ele>174.13600158691</ele>
        <time>2009-05-20T12:38:34Z</time>
      </trkpt>
      <trkpt lat="45.00326" lon="4.98293">
        <ele>173.6549987793</ele>
        <time>2009-05-20T12:38:37Z</time>
      </trkpt>
      <trkpt lat="45.00318" lon="4.98324">
        <ele>173.6549987793</ele>
        <time>2009-05-20T12:38:40Z</time>
      </trkpt>
      <trkpt lat="45.00312" lon="4.98357">
        <ele>173.17500305176</ele>
        <time>2009-05-20T12:38:43Z</time>
      </trkpt>
      <trkpt lat="45.00309" lon="4.98391">
        <ele>172.69400024414</ele>
        <time>2009-05-20T12:38:46Z</time>
      </trkpt>
      <trkpt lat="45.00306" lon="4.98426">
        <ele>172.69400024414</ele>
        <time>2009-05-20T12:38:49Z</time>
      </trkpt>
      <trkpt lat="45.00303" lon="4.9846">
        <ele>172.69400024414</ele>
        <time>2009-05-20T12:38:52Z</time>
      </trkpt>
      <trkpt lat="45.00301" lon="4.98492">
        <ele>172.69400024414</ele>
        <time>2009-05-20T12:38:55Z</time>
      </trkpt>
      <trkpt lat="45.00298" lon="4.98523">
        <ele>173.17500305176</ele>
        <time>2009-05-20T12:38:58Z</time>
      </trkpt>
      <trkpt lat="45.00296" lon="4.98554">
        <ele>173.17500305176</ele>
        <time>2009-05-20T12:39:01Z</time>
      </trkpt>
      <trkpt lat="45.00295" lon="4.98564">
        <ele>173.6549987793</ele>
        <time>2009-05-20T12:39:02Z</time>
      </trkpt>
      <trkpt lat="45.00284" lon="4.98599">
        <ele>173.6549987793</ele>
        <time>2009-05-20T12:39:06Z</time>
      </trkpt>
      <trkpt lat="45.00276" lon="4.98643">
        <ele>174.13600158691</ele>
        <time>2009-05-20T12:39:11Z</time>
      </trkpt>
      <trkpt lat="45.00283" lon="4.9869">
        <ele>174.13600158691</ele>
        <time>2009-05-20T12:39:16Z</time>
      </trkpt>
      <trkpt lat="45.00281" lon="4.98721">
        <ele>173.6549987793</ele>
        <time>2009-05-20T12:39:19Z</time>
      </trkpt>
      <trkpt lat="45.00279" lon="4.98753">
        <ele>174.13600158691</ele>
        <time>2009-05-20T12:39:22Z</time>
      </trkpt>
      <trkpt lat="45.00277" lon="4.98785">
        <ele>174.13600158691</ele>
        <time>2009-05-20T12:39:25Z</time>
      </trkpt>
      <trkpt lat="45.00275" lon="4.98817">
        <ele>174.13600158691</ele>
        <time>2009-05-20T12:39:28Z</time>
      </trkpt>
      <trkpt lat="45.00272" lon="4.98849">
        <ele>174.13600158691</ele>
        <time>2009-05-20T12:39:31Z</time>
      </trkpt>
      <trkpt lat="45.0027" lon="4.98881">
        <ele>173.6549987793</ele>
        <time>2009-05-20T12:39:34Z</time>
      </trkpt>
      <trkpt lat="45.00266" lon="4.98912">
        <ele>173.17500305176</ele>
        <time>2009-05-20T12:39:37Z</time>
      </trkpt>
      <trkpt lat="45.00262" lon="4.9894">
        <ele>173.6549987793</ele>
        <time>2009-05-20T12:39:40Z</time>
      </trkpt>
      <trkpt lat="45.00259" lon="4.98969">
        <ele>174.13600158691</ele>
        <time>2009-05-20T12:39:43Z</time>
      </trkpt>
      <trkpt lat="45.00255" lon="4.98999">
        <ele>173.6549987793</ele>
        <time>2009-05-20T12:39:46Z</time>
      </trkpt>
      <trkpt lat="45.0025" lon="4.9903">
        <ele>174.13600158691</ele>
        <time>2009-05-20T12:39:49Z</time>
      </trkpt>
      <trkpt lat="45.00245" lon="4.99061">
        <ele>173.6549987793</ele>
        <time>2009-05-20T12:39:52Z</time>
      </trkpt>
      <trkpt lat="45.00237" lon="4.99092">
        <ele>173.17500305176</ele>
        <time>2009-05-20T12:39:55Z</time>
      </trkpt>
      <trkpt lat="45.00227" lon="4.99121">
        <ele>173.6549987793</ele>
        <time>2009-05-20T12:39:58Z</time>
      </trkpt>
      <trkpt lat="45.00214" lon="4.99148">
        <ele>173.17500305176</ele>
        <time>2009-05-20T12:40:01Z</time>
      </trkpt>
      <trkpt lat="45.00201" lon="4.99175">
        <ele>173.6549987793</ele>
        <time>2009-05-20T12:40:04Z</time>
      </trkpt>
      <trkpt lat="45.00187" lon="4.99203">
        <ele>173.17500305176</ele>
        <time>2009-05-20T12:40:07Z</time>
      </trkpt>
      <trkpt lat="45.00172" lon="4.99231">
        <ele>173.17500305176</ele>
        <time>2009-05-20T12:40:10Z</time>
      </trkpt>
      <trkpt lat="45.00159" lon="4.9926">
        <ele>173.6549987793</ele>
        <time>2009-05-20T12:40:13Z</time>
      </trkpt>
      <trkpt lat="45.00148" lon="4.99288">
        <ele>173.17500305176</ele>
        <time>2009-05-20T12:40:16Z</time>
      </trkpt>
      <trkpt lat="45.0014" lon="4.9932">
        <ele>173.17500305176</ele>
        <time>2009-05-20T12:40:19Z</time>
      </trkpt>
      <trkpt lat="45.00133" lon="4.99351">
        <ele>173.6549987793</ele>
        <time>2009-05-20T12:40:22Z</time>
      </trkpt>
      <trkpt lat="45.00125" lon="4.99381">
        <ele>174.61700439453</ele>
        <time>2009-05-20T12:40:25Z</time>
      </trkpt>
      <trkpt lat="45.00109" lon="4.99417">
        <ele>175.57800292969</ele>
        <time>2009-05-20T12:40:29Z</time>
      </trkpt>
      <trkpt lat="45.00089" lon="4.99451">
        <ele>175.57800292969</ele>
        <time>2009-05-20T12:40:33Z</time>
      </trkpt>
      <trkpt lat="45.00073" lon="4.99477">
        <ele>175.57800292969</ele>
        <time>2009-05-20T12:40:36Z</time>
      </trkpt>
      <trkpt lat="45.00056" lon="4.99502">
        <ele>175.57800292969</ele>
        <time>2009-05-20T12:40:39Z</time>
      </trkpt>
      <trkpt lat="45.0004" lon="4.99528">
        <ele>175.09700012207</ele>
        <time>2009-05-20T12:40:42Z</time>
      </trkpt>
      <trkpt lat="45.00024" lon="4.99555">
        <ele>175.57800292969</ele>
        <time>2009-05-20T12:40:45Z</time>
      </trkpt>
      <trkpt lat="45.00009" lon="4.99581">
        <ele>175.57800292969</ele>
        <time>2009-05-20T12:40:48Z</time>
      </trkpt>
      <trkpt lat="44.99993" lon="4.99606">
        <ele>175.57800292969</ele>
        <time>2009-05-20T12:40:51Z</time>
      </trkpt>
      <trkpt lat="44.99977" lon="4.9963">
        <ele>175.57800292969</ele>
        <time>2009-05-20T12:40:54Z</time>
      </trkpt>
      <trkpt lat="44.99963" lon="4.99655">
        <ele>175.57800292969</ele>
        <time>2009-05-20T12:40:57Z</time>
      </trkpt>
      <trkpt lat="44.99958" lon="4.99663">
        <ele>175.09700012207</ele>
        <time>2009-05-20T12:40:58Z</time>
      </trkpt>
      <trkpt lat="44.99931" lon="4.9968">
        <ele>174.61700439453</ele>
        <time>2009-05-20T12:41:02Z</time>
      </trkpt>
      <trkpt lat="44.99914" lon="4.99699">
        <ele>174.61700439453</ele>
        <time>2009-05-20T12:41:05Z</time>
      </trkpt>
      <trkpt lat="44.99897" lon="4.9972">
        <ele>173.17500305176</ele>
        <time>2009-05-20T12:41:08Z</time>
      </trkpt>
      <trkpt lat="44.99868" lon="4.9974">
        <ele>171.25199890137</ele>
        <time>2009-05-20T12:41:12Z</time>
      </trkpt>
      <trkpt lat="44.99846" lon="4.99758">
        <ele>170.29100036621</ele>
        <time>2009-05-20T12:41:15Z</time>
      </trkpt>
      <trkpt lat="44.99839" lon="4.99765">
        <ele>170.29100036621</ele>
        <time>2009-05-20T12:41:16Z</time>
      </trkpt>
      <trkpt lat="44.99818" lon="4.99788">
        <ele>170.29100036621</ele>
        <time>2009-05-20T12:41:19Z</time>
      </trkpt>
      <trkpt lat="44.998" lon="4.9981">
        <ele>170.29100036621</ele>
        <time>2009-05-20T12:41:22Z</time>
      </trkpt>
      <trkpt lat="44.99789" lon="4.99824">
        <ele>170.77099609375</ele>
        <time>2009-05-20T12:41:24Z</time>
      </trkpt>
      <trkpt lat="44.99784" lon="4.9983">
        <ele>170.77099609375</ele>
        <time>2009-05-20T12:41:25Z</time>
      </trkpt>
      <trkpt lat="44.99767" lon="4.99852">
        <ele>170.29100036621</ele>
        <time>2009-05-20T12:41:28Z</time>
      </trkpt>
      <trkpt lat="44.99746" lon="4.99882">
        <ele>169.80999755859</ele>
        <time>2009-05-20T12:41:32Z</time>
      </trkpt>
      <trkpt lat="44.99734" lon="4.99904">
        <ele>170.29100036621</ele>
        <time>2009-05-20T12:41:35Z</time>
      </trkpt>
      <trkpt lat="44.99725" lon="4.99928">
        <ele>170.77099609375</ele>
        <time>2009-05-20T12:41:38Z</time>
      </trkpt>
      <trkpt lat="44.99717" lon="4.99951">
        <ele>171.73300170898</ele>
        <time>2009-05-20T12:41:41Z</time>
      </trkpt>
      <trkpt lat="44.99711" lon="4.99975">
        <ele>173.17500305176</ele>
        <time>2009-05-20T12:41:44Z</time>
      </trkpt>
      <trkpt lat="44.99708" lon="4.9999">
        <ele>173.6549987793</ele>
        <time>2009-05-20T12:41:46Z</time>
      </trkpt>
      <trkpt lat="44.99695" lon="5.00016">
        <ele>173.6549987793</ele>
        <time>2009-05-20T12:41:50Z</time>
      </trkpt>
      <trkpt lat="44.99688" lon="5.00047">
        <ele>175.57800292969</ele>
        <time>2009-05-20T12:41:54Z</time>
      </trkpt>
      <trkpt lat="44.99691" lon="5.0007">
        <ele>175.57800292969</ele>
        <time>2009-05-20T12:41:57Z</time>
      </trkpt>
      <trkpt lat="44.99683" lon="5.00088">
        <ele>175.57800292969</ele>
        <time>2009-05-20T12:42:00Z</time>
      </trkpt>
      <trkpt lat="44.99677" lon="5.00099">
        <ele>175.57800292969</ele>
        <time>2009-05-20T12:42:02Z</time>
      </trkpt>
      <trkpt lat="44.99661" lon="5.00112">
        <ele>175.09700012207</ele>
        <time>2009-05-20T12:42:07Z</time>
      </trkpt>
      <trkpt lat="44.99659" lon="5.00102">
        <ele>174.61700439453</ele>
        <time>2009-05-20T12:42:12Z</time>
      </trkpt>
      <trkpt lat="44.9966" lon="5.00099">
        <ele>174.61700439453</ele>
        <time>2009-05-20T12:42:13Z</time>
      </trkpt>
      <trkpt lat="44.99664" lon="5.00091">
        <ele>174.61700439453</ele>
        <time>2009-05-20T12:42:16Z</time>
      </trkpt>
      <trkpt lat="44.99667" lon="5.00086">
        <ele>175.09700012207</ele>
        <time>2009-05-20T12:42:19Z</time>
      </trkpt>
      <trkpt lat="44.99668" lon="5.00083">
        <ele>175.57800292969</ele>
        <time>2009-05-20T12:42:32Z</time>
      </trkpt>
      <trkpt lat="44.99667" lon="5.00083">
        <ele>175.09700012207</ele>
        <time>2009-05-20T12:42:33Z</time>
      </trkpt>
      <trkpt lat="44.99668" lon="5.00084">
        <ele>175.09700012207</ele>
        <time>2009-05-20T12:42:53Z</time>
      </trkpt>
      <trkpt lat="44.99665" lon="5.00089">
        <ele>175.09700012207</ele>
        <time>2009-05-20T12:42:57Z</time>
      </trkpt>
      <trkpt lat="44.99665" lon="5.0009">
        <ele>175.09700012207</ele>
        <time>2009-05-20T12:43:10Z</time>
      </trkpt>
      <trkpt lat="44.99662" lon="5.00096">
        <ele>175.09700012207</ele>
        <time>2009-05-20T12:43:14Z</time>
      </trkpt>
      <trkpt lat="44.99664" lon="5.00106">
        <ele>175.57800292969</ele>
        <time>2009-05-20T12:43:19Z</time>
      </trkpt>
      <trkpt lat="44.99666" lon="5.00109">
        <ele>175.57800292969</ele>
        <time>2009-05-20T12:43:21Z</time>
      </trkpt>
      <trkpt lat="44.9968" lon="5.00101">
        <ele>175.09700012207</ele>
        <time>2009-05-20T12:43:26Z</time>
      </trkpt>
      <trkpt lat="44.99694" lon="5.0008">
        <ele>175.09700012207</ele>
        <time>2009-05-20T12:43:31Z</time>
      </trkpt>
      <trkpt lat="44.99701" lon="5.00071">
        <ele>174.61700439453</ele>
        <time>2009-05-20T12:43:33Z</time>
      </trkpt>
      <trkpt lat="44.99713" lon="5.00059">
        <ele>175.09700012207</ele>
        <time>2009-05-20T12:43:36Z</time>
      </trkpt>
      <trkpt lat="44.99728" lon="5.00037">
        <ele>174.13600158691</ele>
        <time>2009-05-20T12:43:40Z</time>
      </trkpt>
      <trkpt lat="44.99724" lon="5.00012">
        <ele>173.6549987793</ele>
        <time>2009-05-20T12:43:43Z</time>
      </trkpt>
      <trkpt lat="44.99719" lon="4.99969">
        <ele>172.21299743652</ele>
        <time>2009-05-20T12:43:48Z</time>
      </trkpt>
      <trkpt lat="44.99731" lon="4.99927">
        <ele>171.25199890137</ele>
        <time>2009-05-20T12:43:52Z</time>
      </trkpt>
      <trkpt lat="44.99744" lon="4.99896">
        <ele>170.77099609375</ele>
        <time>2009-05-20T12:43:55Z</time>
      </trkpt>
      <trkpt lat="44.99761" lon="4.99867">
        <ele>170.29100036621</ele>
        <time>2009-05-20T12:43:58Z</time>
      </trkpt>
      <trkpt lat="44.99779" lon="4.99842">
        <ele>170.29100036621</ele>
        <time>2009-05-20T12:44:01Z</time>
      </trkpt>
      <trkpt lat="44.99801" lon="4.99815">
        <ele>170.77099609375</ele>
        <time>2009-05-20T12:44:04Z</time>
      </trkpt>
      <trkpt lat="44.99821" lon="4.99793">
        <ele>169.80999755859</ele>
        <time>2009-05-20T12:44:07Z</time>
      </trkpt>
      <trkpt lat="44.9984" lon="4.99771">
        <ele>169.80999755859</ele>
        <time>2009-05-20T12:44:10Z</time>
      </trkpt>
      <trkpt lat="44.99858" lon="4.99752">
        <ele>170.77099609375</ele>
        <time>2009-05-20T12:44:13Z</time>
      </trkpt>
      <trkpt lat="44.99876" lon="4.99737">
        <ele>171.25199890137</ele>
        <time>2009-05-20T12:44:16Z</time>
      </trkpt>
      <trkpt lat="44.99893" lon="4.99725">
        <ele>172.21299743652</ele>
        <time>2009-05-20T12:44:19Z</time>
      </trkpt>
      <trkpt lat="44.9991" lon="4.99717">
        <ele>173.17500305176</ele>
        <time>2009-05-20T12:44:22Z</time>
      </trkpt>
      <trkpt lat="44.99933" lon="4.99721">
        <ele>174.13600158691</ele>
        <time>2009-05-20T12:44:26Z</time>
      </trkpt>
      <trkpt lat="44.99952" lon="4.99718">
        <ele>174.13600158691</ele>
        <time>2009-05-20T12:44:29Z</time>
      </trkpt>
      <trkpt lat="44.99982" lon="4.99722">
        <ele>174.13600158691</ele>
        <time>2009-05-20T12:44:34Z</time>
      </trkpt>
      <trkpt lat="44.99993" lon="4.99736">
        <ele>174.13600158691</ele>
        <time>2009-05-20T12:44:36Z</time>
      </trkpt>
      <trkpt lat="45.00014" lon="4.99769">
        <ele>174.61700439453</ele>
        <time>2009-05-20T12:44:40Z</time>
      </trkpt>
      <trkpt lat="45.0003" lon="4.99795">
        <ele>174.61700439453</ele>
        <time>2009-05-20T12:44:43Z</time>
      </trkpt>
      <trkpt lat="45.00047" lon="4.99822">
        <ele>174.61700439453</ele>
        <time>2009-05-20T12:44:46Z</time>
      </trkpt>
      <trkpt lat="45.00063" lon="4.99851">
        <ele>175.09700012207</ele>
        <time>2009-05-20T12:44:49Z</time>
      </trkpt>
      <trkpt lat="45.00077" lon="4.99897">
        <ele>175.09700012207</ele>
        <time>2009-05-20T12:44:53Z</time>
      </trkpt>
      <trkpt lat="45.00076" lon="4.99934">
        <ele>175.09700012207</ele>
        <time>2009-05-20T12:44:56Z</time>
      </trkpt>
      <trkpt lat="45.00074" lon="4.99946">
        <ele>175.09700012207</ele>
        <time>2009-05-20T12:44:57Z</time>
      </trkpt>
      <trkpt lat="45.00074" lon="5.00006">
        <ele>176.05900573731</ele>
        <time>2009-05-20T12:45:02Z</time>
      </trkpt>
      <trkpt lat="45.00085" lon="5.00038">
        <ele>176.53900146484</ele>
        <time>2009-05-20T12:45:05Z</time>
      </trkpt>
      <trkpt lat="45.00103" lon="5.00081">
        <ele>176.53900146484</ele>
        <time>2009-05-20T12:45:09Z</time>
      </trkpt>
      <trkpt lat="45.00117" lon="5.00113">
        <ele>176.05900573731</ele>
        <time>2009-05-20T12:45:12Z</time>
      </trkpt>
      <trkpt lat="45.00129" lon="5.00146">
        <ele>176.05900573731</ele>
        <time>2009-05-20T12:45:15Z</time>
      </trkpt>
      <trkpt lat="45.00136" lon="5.00182">
        <ele>176.05900573731</ele>
        <time>2009-05-20T12:45:18Z</time>
      </trkpt>
      <trkpt lat="45.00139" lon="5.00218">
        <ele>176.53900146484</ele>
        <time>2009-05-20T12:45:21Z</time>
      </trkpt>
      <trkpt lat="45.0014" lon="5.00254">
        <ele>176.53900146484</ele>
        <time>2009-05-20T12:45:24Z</time>
      </trkpt>
      <trkpt lat="45.0014" lon="5.0029">
        <ele>176.05900573731</ele>
        <time>2009-05-20T12:45:27Z</time>
      </trkpt>
      <trkpt lat="45.00141" lon="5.00328">
        <ele>176.53900146484</ele>
        <time>2009-05-20T12:45:30Z</time>
      </trkpt>
      <trkpt lat="45.00144" lon="5.00353">
        <ele>175.57800292969</ele>
        <time>2009-05-20T12:45:32Z</time>
      </trkpt>
      <trkpt lat="45.00159" lon="5.004">
        <ele>174.61700439453</ele>
        <time>2009-05-20T12:45:36Z</time>
      </trkpt>
      <trkpt lat="45.00184" lon="5.00441">
        <ele>174.13600158691</ele>
        <time>2009-05-20T12:45:40Z</time>
      </trkpt>
      <trkpt lat="45.00203" lon="5.00471">
        <ele>174.13600158691</ele>
        <time>2009-05-20T12:45:43Z</time>
      </trkpt>
      <trkpt lat="45.00221" lon="5.005">
        <ele>174.13600158691</ele>
        <time>2009-05-20T12:45:46Z</time>
      </trkpt>
      <trkpt lat="45.0024" lon="5.00528">
        <ele>174.61700439453</ele>
        <time>2009-05-20T12:45:49Z</time>
      </trkpt>
      <trkpt lat="45.00257" lon="5.00557">
        <ele>175.09700012207</ele>
        <time>2009-05-20T12:45:52Z</time>
      </trkpt>
      <trkpt lat="45.00274" lon="5.00584">
        <ele>175.57800292969</ele>
        <time>2009-05-20T12:45:55Z</time>
      </trkpt>
      <trkpt lat="45.00292" lon="5.00612">
        <ele>176.05900573731</ele>
        <time>2009-05-20T12:45:58Z</time>
      </trkpt>
      <trkpt lat="45.00309" lon="5.0064">
        <ele>176.05900573731</ele>
        <time>2009-05-20T12:46:01Z</time>
      </trkpt>
      <trkpt lat="45.00327" lon="5.00667">
        <ele>176.05900573731</ele>
        <time>2009-05-20T12:46:04Z</time>
      </trkpt>
      <trkpt lat="45.00344" lon="5.00695">
        <ele>176.53900146484</ele>
        <time>2009-05-20T12:46:07Z</time>
      </trkpt>
      <trkpt lat="45.00362" lon="5.00723">
        <ele>176.53900146484</ele>
        <time>2009-05-20T12:46:10Z</time>
      </trkpt>
      <trkpt lat="45.00379" lon="5.00751">
        <ele>176.53900146484</ele>
        <time>2009-05-20T12:46:13Z</time>
      </trkpt>
      <trkpt lat="45.00396" lon="5.00779">
        <ele>176.53900146484</ele>
        <time>2009-05-20T12:46:16Z</time>
      </trkpt>
      <trkpt lat="45.00414" lon="5.00807">
        <ele>176.53900146484</ele>
        <time>2009-05-20T12:46:19Z</time>
      </trkpt>
      <trkpt lat="45.00432" lon="5.00836">
        <ele>176.53900146484</ele>
        <time>2009-05-20T12:46:22Z</time>
      </trkpt>
      <trkpt lat="45.00451" lon="5.00865">
        <ele>176.05900573731</ele>
        <time>2009-05-20T12:46:25Z</time>
      </trkpt>
      <trkpt lat="45.00468" lon="5.00894">
        <ele>176.53900146484</ele>
        <time>2009-05-20T12:46:28Z</time>
      </trkpt>
      <trkpt lat="45.00486" lon="5.00922">
        <ele>176.53900146484</ele>
        <time>2009-05-20T12:46:31Z</time>
      </trkpt>
      <trkpt lat="45.00503" lon="5.00949">
        <ele>176.53900146484</ele>
        <time>2009-05-20T12:46:34Z</time>
      </trkpt>
      <trkpt lat="45.0052" lon="5.00976">
        <ele>177.50100708008</ele>
        <time>2009-05-20T12:46:37Z</time>
      </trkpt>
      <trkpt lat="45.00537" lon="5.01003">
        <ele>177.50100708008</ele>
        <time>2009-05-20T12:46:40Z</time>
      </trkpt>
      <trkpt lat="45.00554" lon="5.0103">
        <ele>177.98100280762</ele>
        <time>2009-05-20T12:46:43Z</time>
      </trkpt>
      <trkpt lat="45.00572" lon="5.01057">
        <ele>177.98100280762</ele>
        <time>2009-05-20T12:46:46Z</time>
      </trkpt>
      <trkpt lat="45.00589" lon="5.01086">
        <ele>177.98100280762</ele>
        <time>2009-05-20T12:46:49Z</time>
      </trkpt>
      <trkpt lat="45.00608" lon="5.01115">
        <ele>177.50100708008</ele>
        <time>2009-05-20T12:46:52Z</time>
      </trkpt>
      <trkpt lat="45.00626" lon="5.01144">
        <ele>177.98100280762</ele>
        <time>2009-05-20T12:46:55Z</time>
      </trkpt>
      <trkpt lat="45.00644" lon="5.01174">
        <ele>177.98100280762</ele>
        <time>2009-05-20T12:46:58Z</time>
      </trkpt>
      <trkpt lat="45.00663" lon="5.01203">
        <ele>177.98100280762</ele>
        <time>2009-05-20T12:47:01Z</time>
      </trkpt>
      <trkpt lat="45.00681" lon="5.01231">
        <ele>178.46200561523</ele>
        <time>2009-05-20T12:47:04Z</time>
      </trkpt>
      <trkpt lat="45.00698" lon="5.0126">
        <ele>178.46200561523</ele>
        <time>2009-05-20T12:47:07Z</time>
      </trkpt>
      <trkpt lat="45.00716" lon="5.01288">
        <ele>178.46200561523</ele>
        <time>2009-05-20T12:47:10Z</time>
      </trkpt>
      <trkpt lat="45.00734" lon="5.01316">
        <ele>177.98100280762</ele>
        <time>2009-05-20T12:47:13Z</time>
      </trkpt>
      <trkpt lat="45.00753" lon="5.01346">
        <ele>177.50100708008</ele>
        <time>2009-05-20T12:47:16Z</time>
      </trkpt>
      <trkpt lat="45.00772" lon="5.01376">
        <ele>176.53900146484</ele>
        <time>2009-05-20T12:47:19Z</time>
      </trkpt>
      <trkpt lat="45.0079" lon="5.01407">
        <ele>176.53900146484</ele>
        <time>2009-05-20T12:47:22Z</time>
      </trkpt>
      <trkpt lat="45.0081" lon="5.01438">
        <ele>176.53900146484</ele>
        <time>2009-05-20T12:47:25Z</time>
      </trkpt>
      <trkpt lat="45.00829" lon="5.01468">
        <ele>176.53900146484</ele>
        <time>2009-05-20T12:47:28Z</time>
      </trkpt>
      <trkpt lat="45.00846" lon="5.01497">
        <ele>176.53900146484</ele>
        <time>2009-05-20T12:47:31Z</time>
      </trkpt>
      <trkpt lat="45.00864" lon="5.01524">
        <ele>177.50100708008</ele>
        <time>2009-05-20T12:47:34Z</time>
      </trkpt>
      <trkpt lat="45.0088" lon="5.01551">
        <ele>177.50100708008</ele>
        <time>2009-05-20T12:47:37Z</time>
      </trkpt>
      <trkpt lat="45.00896" lon="5.01577">
        <ele>177.98100280762</ele>
        <time>2009-05-20T12:47:40Z</time>
      </trkpt>
      <trkpt lat="45.00911" lon="5.01602">
        <ele>178.46200561523</ele>
        <time>2009-05-20T12:47:43Z</time>
      </trkpt>
      <trkpt lat="45.00927" lon="5.01627">
        <ele>178.46200561523</ele>
        <time>2009-05-20T12:47:46Z</time>
      </trkpt>
      <trkpt lat="45.00942" lon="5.01652">
        <ele>178.46200561523</ele>
        <time>2009-05-20T12:47:49Z</time>
      </trkpt>
      <trkpt lat="45.00957" lon="5.01678">
        <ele>178.46200561523</ele>
        <time>2009-05-20T12:47:52Z</time>
      </trkpt>
      <trkpt lat="45.00974" lon="5.01703">
        <ele>178.94299316406</ele>
        <time>2009-05-20T12:47:55Z</time>
      </trkpt>
      <trkpt lat="45.0099" lon="5.01729">
        <ele>178.94299316406</ele>
        <time>2009-05-20T12:47:58Z</time>
      </trkpt>
      <trkpt lat="45.01006" lon="5.01755">
        <ele>178.94299316406</ele>
        <time>2009-05-20T12:48:01Z</time>
      </trkpt>
      <trkpt lat="45.01023" lon="5.01781">
        <ele>178.94299316406</ele>
        <time>2009-05-20T12:48:04Z</time>
      </trkpt>
      <trkpt lat="45.01039" lon="5.01807">
        <ele>179.42300415039</ele>
        <time>2009-05-20T12:48:07Z</time>
      </trkpt>
      <trkpt lat="45.01056" lon="5.01833">
        <ele>179.42300415039</ele>
        <time>2009-05-20T12:48:10Z</time>
      </trkpt>
      <trkpt lat="45.01073" lon="5.0186">
        <ele>178.94299316406</ele>
        <time>2009-05-20T12:48:13Z</time>
      </trkpt>
      <trkpt lat="45.01093" lon="5.01889">
        <ele>177.98100280762</ele>
        <time>2009-05-20T12:48:16Z</time>
      </trkpt>
      <trkpt lat="45.01112" lon="5.01919">
        <ele>176.53900146484</ele>
        <time>2009-05-20T12:48:19Z</time>
      </trkpt>
      <trkpt lat="45.01134" lon="5.0195">
        <ele>175.09700012207</ele>
        <time>2009-05-20T12:48:22Z</time>
      </trkpt>
      <trkpt lat="45.01149" lon="5.01971">
        <ele>174.13600158691</ele>
        <time>2009-05-20T12:48:24Z</time>
      </trkpt>
      <trkpt lat="45.01175" lon="5.01999">
        <ele>173.6549987793</ele>
        <time>2009-05-20T12:48:27Z</time>
      </trkpt>
      <trkpt lat="45.012" lon="5.02024">
        <ele>173.6549987793</ele>
        <time>2009-05-20T12:48:30Z</time>
      </trkpt>
      <trkpt lat="45.01224" lon="5.02048">
        <ele>173.6549987793</ele>
        <time>2009-05-20T12:48:33Z</time>
      </trkpt>
      <trkpt lat="45.01246" lon="5.02069">
        <ele>175.09700012207</ele>
        <time>2009-05-20T12:48:36Z</time>
      </trkpt>
      <trkpt lat="45.01264" lon="5.0209">
        <ele>176.05900573731</ele>
        <time>2009-05-20T12:48:39Z</time>
      </trkpt>
      <trkpt lat="45.01278" lon="5.02112">
        <ele>177.02000427246</ele>
        <time>2009-05-20T12:48:42Z</time>
      </trkpt>
      <trkpt lat="45.01291" lon="5.02134">
        <ele>177.50100708008</ele>
        <time>2009-05-20T12:48:45Z</time>
      </trkpt>
      <trkpt lat="45.01304" lon="5.02155">
        <ele>177.98100280762</ele>
        <time>2009-05-20T12:48:48Z</time>
      </trkpt>
      <trkpt lat="45.01317" lon="5.02179">
        <ele>178.46200561523</ele>
        <time>2009-05-20T12:48:51Z</time>
      </trkpt>
      <trkpt lat="45.01329" lon="5.02217">
        <ele>178.94299316406</ele>
        <time>2009-05-20T12:48:55Z</time>
      </trkpt>
      <trkpt lat="45.0133" lon="5.02227">
        <ele>178.94299316406</ele>
        <time>2009-05-20T12:48:56Z</time>
      </trkpt>
      <trkpt lat="45.01335" lon="5.02267">
        <ele>178.94299316406</ele>
        <time>2009-05-20T12:49:00Z</time>
      </trkpt>
      <trkpt lat="45.01337" lon="5.02277">
        <ele>178.94299316406</ele>
        <time>2009-05-20T12:49:01Z</time>
      </trkpt>
      <trkpt lat="45.01351" lon="5.02313">
        <ele>179.42300415039</ele>
        <time>2009-05-20T12:49:05Z</time>
      </trkpt>
      <trkpt lat="45.01365" lon="5.02337">
        <ele>179.42300415039</ele>
        <time>2009-05-20T12:49:08Z</time>
      </trkpt>
      <trkpt lat="45.01379" lon="5.02361">
        <ele>179.42300415039</ele>
        <time>2009-05-20T12:49:11Z</time>
      </trkpt>
      <trkpt lat="45.01395" lon="5.02385">
        <ele>179.90400695801</ele>
        <time>2009-05-20T12:49:14Z</time>
      </trkpt>
      <trkpt lat="45.0141" lon="5.02409">
        <ele>179.90400695801</ele>
        <time>2009-05-20T12:49:17Z</time>
      </trkpt>
      <trkpt lat="45.01427" lon="5.02436">
        <ele>179.42300415039</ele>
        <time>2009-05-20T12:49:20Z</time>
      </trkpt>
      <trkpt lat="45.01444" lon="5.02463">
        <ele>179.90400695801</ele>
        <time>2009-05-20T12:49:23Z</time>
      </trkpt>
      <trkpt lat="45.01463" lon="5.02492">
        <ele>179.90400695801</ele>
        <time>2009-05-20T12:49:26Z</time>
      </trkpt>
      <trkpt lat="45.0148" lon="5.02521">
        <ele>179.90400695801</ele>
        <time>2009-05-20T12:49:29Z</time>
      </trkpt>
      <trkpt lat="45.01499" lon="5.02551">
        <ele>179.90400695801</ele>
        <time>2009-05-20T12:49:32Z</time>
      </trkpt>
      <trkpt lat="45.01518" lon="5.02581">
        <ele>178.94299316406</ele>
        <time>2009-05-20T12:49:35Z</time>
      </trkpt>
      <trkpt lat="45.01538" lon="5.02612">
        <ele>178.94299316406</ele>
        <time>2009-05-20T12:49:38Z</time>
      </trkpt>
      <trkpt lat="45.01558" lon="5.02643">
        <ele>178.46200561523</ele>
        <time>2009-05-20T12:49:41Z</time>
      </trkpt>
      <trkpt lat="45.01577" lon="5.02673">
        <ele>178.94299316406</ele>
        <time>2009-05-20T12:49:44Z</time>
      </trkpt>
      <trkpt lat="45.01595" lon="5.02702">
        <ele>179.90400695801</ele>
        <time>2009-05-20T12:49:47Z</time>
      </trkpt>
      <trkpt lat="45.01613" lon="5.0273">
        <ele>180.38499450684</ele>
        <time>2009-05-20T12:49:50Z</time>
      </trkpt>
      <trkpt lat="45.01631" lon="5.0276">
        <ele>180.38499450684</ele>
        <time>2009-05-20T12:49:53Z</time>
      </trkpt>
      <trkpt lat="45.01649" lon="5.02789">
        <ele>181.34599304199</ele>
        <time>2009-05-20T12:49:56Z</time>
      </trkpt>
      <trkpt lat="45.01668" lon="5.02819">
        <ele>180.86500549316</ele>
        <time>2009-05-20T12:49:59Z</time>
      </trkpt>
      <trkpt lat="45.01688" lon="5.02849">
        <ele>180.38499450684</ele>
        <time>2009-05-20T12:50:02Z</time>
      </trkpt>
      <trkpt lat="45.01707" lon="5.02879">
        <ele>180.86500549316</ele>
        <time>2009-05-20T12:50:05Z</time>
      </trkpt>
      <trkpt lat="45.01728" lon="5.02909">
        <ele>180.86500549316</ele>
        <time>2009-05-20T12:50:08Z</time>
      </trkpt>
      <trkpt lat="45.01749" lon="5.02937">
        <ele>180.86500549316</ele>
        <time>2009-05-20T12:50:11Z</time>
      </trkpt>
      <trkpt lat="45.0177" lon="5.02967">
        <ele>180.86500549316</ele>
        <time>2009-05-20T12:50:14Z</time>
      </trkpt>
      <trkpt lat="45.01789" lon="5.02998">
        <ele>181.34599304199</ele>
        <time>2009-05-20T12:50:17Z</time>
      </trkpt>
      <trkpt lat="45.01809" lon="5.03029">
        <ele>181.34599304199</ele>
        <time>2009-05-20T12:50:20Z</time>
      </trkpt>
      <trkpt lat="45.0183" lon="5.03059">
        <ele>181.34599304199</ele>
        <time>2009-05-20T12:50:23Z</time>
      </trkpt>
      <trkpt lat="45.01849" lon="5.03091">
        <ele>181.82600402832</ele>
        <time>2009-05-20T12:50:26Z</time>
      </trkpt>
      <trkpt lat="45.01869" lon="5.03123">
        <ele>181.82600402832</ele>
        <time>2009-05-20T12:50:29Z</time>
      </trkpt>
      <trkpt lat="45.01889" lon="5.03154">
        <ele>181.34599304199</ele>
        <time>2009-05-20T12:50:32Z</time>
      </trkpt>
      <trkpt lat="45.01909" lon="5.03186">
        <ele>181.34599304199</ele>
        <time>2009-05-20T12:50:35Z</time>
      </trkpt>
      <trkpt lat="45.0193" lon="5.03216">
        <ele>181.34599304199</ele>
        <time>2009-05-20T12:50:38Z</time>
      </trkpt>
      <trkpt lat="45.01953" lon="5.03242">
        <ele>181.82600402832</ele>
        <time>2009-05-20T12:50:41Z</time>
      </trkpt>
      <trkpt lat="45.01975" lon="5.03287">
        <ele>182.30700683594</ele>
        <time>2009-05-20T12:50:45Z</time>
      </trkpt>
      <trkpt lat="45.01957" lon="5.03305">
        <ele>182.78799438477</ele>
        <time>2009-05-20T12:50:48Z</time>
      </trkpt>
      <trkpt lat="45.0195" lon="5.03306">
        <ele>182.78799438477</ele>
        <time>2009-05-20T12:50:49Z</time>
      </trkpt>
      <trkpt lat="45.01914" lon="5.03319">
        <ele>182.30700683594</ele>
        <time>2009-05-20T12:50:54Z</time>
      </trkpt>
      <trkpt lat="45.01905" lon="5.03351">
        <ele>182.30700683594</ele>
        <time>2009-05-20T12:50:57Z</time>
      </trkpt>
      <trkpt lat="45.01916" lon="5.03384">
        <ele>182.30700683594</ele>
        <time>2009-05-20T12:51:00Z</time>
      </trkpt>
      <trkpt lat="45.01941" lon="5.03398">
        <ele>181.82600402832</ele>
        <time>2009-05-20T12:51:03Z</time>
      </trkpt>
      <trkpt lat="45.01966" lon="5.03385">
        <ele>181.82600402832</ele>
        <time>2009-05-20T12:51:06Z</time>
      </trkpt>
      <trkpt lat="45.01994" lon="5.0338">
        <ele>182.30700683594</ele>
        <time>2009-05-20T12:51:09Z</time>
      </trkpt>
      <trkpt lat="45.02017" lon="5.03401">
        <ele>182.30700683594</ele>
        <time>2009-05-20T12:51:12Z</time>
      </trkpt>
      <trkpt lat="45.02041" lon="5.03437">
        <ele>183.26800537109</ele>
        <time>2009-05-20T12:51:16Z</time>
      </trkpt>
      <trkpt lat="45.02058" lon="5.03465">
        <ele>183.74899291992</ele>
        <time>2009-05-20T12:51:19Z</time>
      </trkpt>
      <trkpt lat="45.02076" lon="5.03494">
        <ele>183.74899291992</ele>
        <time>2009-05-20T12:51:22Z</time>
      </trkpt>
      <trkpt lat="45.02094" lon="5.03522">
        <ele>183.74899291992</ele>
        <time>2009-05-20T12:51:25Z</time>
      </trkpt>
      <trkpt lat="45.02112" lon="5.03551">
        <ele>183.74899291992</ele>
        <time>2009-05-20T12:51:28Z</time>
      </trkpt>
      <trkpt lat="45.02131" lon="5.03581">
        <ele>183.26800537109</ele>
        <time>2009-05-20T12:51:31Z</time>
      </trkpt>
      <trkpt lat="45.0215" lon="5.03611">
        <ele>184.22999572754</ele>
        <time>2009-05-20T12:51:34Z</time>
      </trkpt>
      <trkpt lat="45.02169" lon="5.03641">
        <ele>183.74899291992</ele>
        <time>2009-05-20T12:51:37Z</time>
      </trkpt>
      <trkpt lat="45.02188" lon="5.03672">
        <ele>183.74899291992</ele>
        <time>2009-05-20T12:51:40Z</time>
      </trkpt>
      <trkpt lat="45.02208" lon="5.03704">
        <ele>184.22999572754</ele>
        <time>2009-05-20T12:51:43Z</time>
      </trkpt>
      <trkpt lat="45.02228" lon="5.03735">
        <ele>184.22999572754</ele>
        <time>2009-05-20T12:51:46Z</time>
      </trkpt>
      <trkpt lat="45.02247" lon="5.03766">
        <ele>183.74899291992</ele>
        <time>2009-05-20T12:51:49Z</time>
      </trkpt>
      <trkpt lat="45.02265" lon="5.03796">
        <ele>183.74899291992</ele>
        <time>2009-05-20T12:51:52Z</time>
      </trkpt>
      <trkpt lat="45.02283" lon="5.03827">
        <ele>184.22999572754</ele>
        <time>2009-05-20T12:51:55Z</time>
      </trkpt>
      <trkpt lat="45.023" lon="5.03859">
        <ele>184.22999572754</ele>
        <time>2009-05-20T12:51:58Z</time>
      </trkpt>
      <trkpt lat="45.02318" lon="5.03891">
        <ele>184.22999572754</ele>
        <time>2009-05-20T12:52:01Z</time>
      </trkpt>
      <trkpt lat="45.02337" lon="5.03921">
        <ele>184.22999572754</ele>
        <time>2009-05-20T12:52:04Z</time>
      </trkpt>
      <trkpt lat="45.02347" lon="5.03968">
        <ele>184.22999572754</ele>
        <time>2009-05-20T12:52:08Z</time>
      </trkpt>
      <trkpt lat="45.02346" lon="5.04005">
        <ele>184.22999572754</ele>
        <time>2009-05-20T12:52:11Z</time>
      </trkpt>
      <trkpt lat="45.02364" lon="5.0403">
        <ele>184.22999572754</ele>
        <time>2009-05-20T12:52:14Z</time>
      </trkpt>
      <trkpt lat="45.02373" lon="5.04033">
        <ele>184.22999572754</ele>
        <time>2009-05-20T12:52:15Z</time>
      </trkpt>
      <trkpt lat="45.02416" lon="5.04058">
        <ele>183.74899291992</ele>
        <time>2009-05-20T12:52:20Z</time>
      </trkpt>
      <trkpt lat="45.02448" lon="5.04094">
        <ele>183.26800537109</ele>
        <time>2009-05-20T12:52:24Z</time>
      </trkpt>
      <trkpt lat="45.02472" lon="5.04126">
        <ele>182.78799438477</ele>
        <time>2009-05-20T12:52:27Z</time>
      </trkpt>
      <trkpt lat="45.02487" lon="5.04149">
        <ele>182.30700683594</ele>
        <time>2009-05-20T12:52:29Z</time>
      </trkpt>
      <trkpt lat="45.02502" lon="5.04173">
        <ele>181.34599304199</ele>
        <time>2009-05-20T12:52:31Z</time>
      </trkpt>
      <trkpt lat="45.02518" lon="5.04198">
        <ele>181.34599304199</ele>
        <time>2009-05-20T12:52:33Z</time>
      </trkpt>
      <trkpt lat="45.02534" lon="5.04223">
        <ele>180.38499450684</ele>
        <time>2009-05-20T12:52:35Z</time>
      </trkpt>
      <trkpt lat="45.02551" lon="5.04249">
        <ele>179.42300415039</ele>
        <time>2009-05-20T12:52:37Z</time>
      </trkpt>
      <trkpt lat="45.02568" lon="5.04276">
        <ele>178.46200561523</ele>
        <time>2009-05-20T12:52:39Z</time>
      </trkpt>
      <trkpt lat="45.02586" lon="5.04304">
        <ele>177.02000427246</ele>
        <time>2009-05-20T12:52:41Z</time>
      </trkpt>
      <trkpt lat="45.02605" lon="5.04332">
        <ele>176.05900573731</ele>
        <time>2009-05-20T12:52:43Z</time>
      </trkpt>
      <trkpt lat="45.02622" lon="5.04363">
        <ele>174.13600158691</ele>
        <time>2009-05-20T12:52:45Z</time>
      </trkpt>
      <trkpt lat="45.02642" lon="5.04391">
        <ele>172.69400024414</ele>
        <time>2009-05-20T12:52:47Z</time>
      </trkpt>
      <trkpt lat="45.02661" lon="5.0442">
        <ele>171.25199890137</ele>
        <time>2009-05-20T12:52:49Z</time>
      </trkpt>
      <trkpt lat="45.02679" lon="5.04449">
        <ele>170.29100036621</ele>
        <time>2009-05-20T12:52:51Z</time>
      </trkpt>
      <trkpt lat="45.02699" lon="5.04478">
        <ele>168.84899902344</ele>
        <time>2009-05-20T12:52:53Z</time>
      </trkpt>
      <trkpt lat="45.02718" lon="5.04508">
        <ele>167.40699768066</ele>
        <time>2009-05-20T12:52:55Z</time>
      </trkpt>
      <trkpt lat="45.02736" lon="5.04538">
        <ele>165.96499633789</ele>
        <time>2009-05-20T12:52:57Z</time>
      </trkpt>
      <trkpt lat="45.02756" lon="5.04567">
        <ele>164.04200744629</ele>
        <time>2009-05-20T12:52:59Z</time>
      </trkpt>
      <trkpt lat="45.02765" lon="5.04582">
        <ele>164.04200744629</ele>
        <time>2009-05-20T12:53:00Z</time>
      </trkpt>
      <trkpt lat="45.02784" lon="5.04612">
        <ele>161.15800476074</ele>
        <time>2009-05-20T12:53:02Z</time>
      </trkpt>
      <trkpt lat="45.02805" lon="5.04639">
        <ele>159.71600341797</ele>
        <time>2009-05-20T12:53:04Z</time>
      </trkpt>
      <trkpt lat="45.02816" lon="5.04651">
        <ele>159.71600341797</ele>
        <time>2009-05-20T12:53:05Z</time>
      </trkpt>
      <trkpt lat="45.02839" lon="5.04674">
        <ele>158.27400207519</ele>
        <time>2009-05-20T12:53:07Z</time>
      </trkpt>
      <trkpt lat="45.02851" lon="5.04684">
        <ele>158.27400207519</ele>
        <time>2009-05-20T12:53:08Z</time>
      </trkpt>
      <trkpt lat="45.02877" lon="5.04705">
        <ele>156.83200073242</ele>
        <time>2009-05-20T12:53:10Z</time>
      </trkpt>
      <trkpt lat="45.02904" lon="5.04722">
        <ele>154.91000366211</ele>
        <time>2009-05-20T12:53:12Z</time>
      </trkpt>
      <trkpt lat="45.02932" lon="5.04735">
        <ele>152.98699951172</ele>
        <time>2009-05-20T12:53:14Z</time>
      </trkpt>
      <trkpt lat="45.02961" lon="5.04743">
        <ele>152.02600097656</ele>
        <time>2009-05-20T12:53:16Z</time>
      </trkpt>
      <trkpt lat="45.02991" lon="5.04747">
        <ele>149.62199401856</ele>
        <time>2009-05-20T12:53:18Z</time>
      </trkpt>
      <trkpt lat="45.0302" lon="5.04748">
        <ele>148.17999267578</ele>
        <time>2009-05-20T12:53:20Z</time>
      </trkpt>
      <trkpt lat="45.03048" lon="5.04748">
        <ele>147.69999694824</ele>
        <time>2009-05-20T12:53:22Z</time>
      </trkpt>
      <trkpt lat="45.03091" lon="5.04758">
        <ele>146.7380065918</ele>
        <time>2009-05-20T12:53:25Z</time>
      </trkpt>
      <trkpt lat="45.03114" lon="5.04781">
        <ele>147.21899414062</ele>
        <time>2009-05-20T12:53:27Z</time>
      </trkpt>
      <trkpt lat="45.03131" lon="5.04812">
        <ele>147.69999694824</ele>
        <time>2009-05-20T12:53:29Z</time>
      </trkpt>
      <trkpt lat="45.03136" lon="5.0483">
        <ele>148.6609954834</ele>
        <time>2009-05-20T12:53:30Z</time>
      </trkpt>
      <trkpt lat="45.03149" lon="5.04881">
        <ele>150.58399963379</ele>
        <time>2009-05-20T12:53:33Z</time>
      </trkpt>
      <trkpt lat="45.03156" lon="5.04911">
        <ele>152.5059967041</ele>
        <time>2009-05-20T12:53:35Z</time>
      </trkpt>
      <trkpt lat="45.03166" lon="5.04954">
        <ele>153.94799804688</ele>
        <time>2009-05-20T12:53:38Z</time>
      </trkpt>
      <trkpt lat="45.03177" lon="5.04991">
        <ele>155.87100219727</ele>
        <time>2009-05-20T12:53:41Z</time>
      </trkpt>
      <trkpt lat="45.03181" lon="5.05002">
        <ele>155.87100219727</ele>
        <time>2009-05-20T12:53:42Z</time>
      </trkpt>
      <trkpt lat="45.03193" lon="5.05029">
        <ele>157.79400634766</ele>
        <time>2009-05-20T12:53:45Z</time>
      </trkpt>
      <trkpt lat="45.03207" lon="5.05053">
        <ele>158.75500488281</ele>
        <time>2009-05-20T12:53:48Z</time>
      </trkpt>
      <trkpt lat="45.03222" lon="5.05073">
        <ele>159.71600341797</ele>
        <time>2009-05-20T12:53:51Z</time>
      </trkpt>
      <trkpt lat="45.03237" lon="5.0509">
        <ele>160.19700622559</ele>
        <time>2009-05-20T12:53:54Z</time>
      </trkpt>
      <trkpt lat="45.03253" lon="5.05105">
        <ele>160.67700195312</ele>
        <time>2009-05-20T12:53:57Z</time>
      </trkpt>
      <trkpt lat="45.0327" lon="5.0512">
        <ele>161.15800476074</ele>
        <time>2009-05-20T12:54:00Z</time>
      </trkpt>
      <trkpt lat="45.03289" lon="5.05136">
        <ele>161.15800476074</ele>
        <time>2009-05-20T12:54:03Z</time>
      </trkpt>
      <trkpt lat="45.03308" lon="5.05152">
        <ele>161.63900756836</ele>
        <time>2009-05-20T12:54:06Z</time>
      </trkpt>
      <trkpt lat="45.03328" lon="5.0517">
        <ele>162.11999511719</ele>
        <time>2009-05-20T12:54:09Z</time>
      </trkpt>
      <trkpt lat="45.03348" lon="5.05188">
        <ele>161.63900756836</ele>
        <time>2009-05-20T12:54:12Z</time>
      </trkpt>
      <trkpt lat="45.03369" lon="5.05207">
        <ele>161.63900756836</ele>
        <time>2009-05-20T12:54:15Z</time>
      </trkpt>
      <trkpt lat="45.03391" lon="5.05226">
        <ele>161.63900756836</ele>
        <time>2009-05-20T12:54:18Z</time>
      </trkpt>
      <trkpt lat="45.03414" lon="5.05245">
        <ele>161.15800476074</ele>
        <time>2009-05-20T12:54:21Z</time>
      </trkpt>
      <trkpt lat="45.03438" lon="5.05266">
        <ele>160.67700195312</ele>
        <time>2009-05-20T12:54:24Z</time>
      </trkpt>
      <trkpt lat="45.03462" lon="5.05287">
        <ele>160.67700195312</ele>
        <time>2009-05-20T12:54:27Z</time>
      </trkpt>
      <trkpt lat="45.03487" lon="5.05308">
        <ele>160.67700195312</ele>
        <time>2009-05-20T12:54:30Z</time>
      </trkpt>
      <trkpt lat="45.03512" lon="5.05328">
        <ele>160.19700622559</ele>
        <time>2009-05-20T12:54:33Z</time>
      </trkpt>
      <trkpt lat="45.03538" lon="5.05346">
        <ele>160.19700622559</ele>
        <time>2009-05-20T12:54:36Z</time>
      </trkpt>
      <trkpt lat="45.03562" lon="5.05365">
        <ele>159.71600341797</ele>
        <time>2009-05-20T12:54:39Z</time>
      </trkpt>
      <trkpt lat="45.03585" lon="5.05385">
        <ele>159.71600341797</ele>
        <time>2009-05-20T12:54:42Z</time>
      </trkpt>
      <trkpt lat="45.03607" lon="5.05404">
        <ele>159.71600341797</ele>
        <time>2009-05-20T12:54:45Z</time>
      </trkpt>
      <trkpt lat="45.03629" lon="5.05422">
        <ele>159.23500061035</ele>
        <time>2009-05-20T12:54:48Z</time>
      </trkpt>
      <trkpt lat="45.03643" lon="5.05434">
        <ele>159.71600341797</ele>
        <time>2009-05-20T12:54:52Z</time>
      </trkpt>
      <trkpt lat="45.03647" lon="5.05438">
        <ele>159.71600341797</ele>
        <time>2009-05-20T12:54:56Z</time>
      </trkpt>
      <trkpt lat="45.0365" lon="5.05442">
        <ele>159.71600341797</ele>
        <time>2009-05-20T12:55:01Z</time>
      </trkpt>
      <trkpt lat="45.0365" lon="5.05441">
        <ele>160.19700622559</ele>
        <time>2009-05-20T12:55:49Z</time>
      </trkpt>
      <trkpt lat="45.03658" lon="5.0545">
        <ele>160.19700622559</ele>
        <time>2009-05-20T12:55:52Z</time>
      </trkpt>
      <trkpt lat="45.03675" lon="5.05465">
        <ele>160.19700622559</ele>
        <time>2009-05-20T12:55:56Z</time>
      </trkpt>
      <trkpt lat="45.03695" lon="5.0548">
        <ele>160.67700195312</ele>
        <time>2009-05-20T12:55:59Z</time>
      </trkpt>
      <trkpt lat="45.03715" lon="5.05496">
        <ele>161.15800476074</ele>
        <time>2009-05-20T12:56:02Z</time>
      </trkpt>
      <trkpt lat="45.03735" lon="5.05512">
        <ele>161.15800476074</ele>
        <time>2009-05-20T12:56:05Z</time>
      </trkpt>
      <trkpt lat="45.03742" lon="5.05517">
        <ele>161.63900756836</ele>
        <time>2009-05-20T12:56:06Z</time>
      </trkpt>
      <trkpt lat="45.03763" lon="5.0553">
        <ele>162.11999511719</ele>
        <time>2009-05-20T12:56:09Z</time>
      </trkpt>
      <trkpt lat="45.03786" lon="5.0554">
        <ele>162.60000610352</ele>
        <time>2009-05-20T12:56:12Z</time>
      </trkpt>
      <trkpt lat="45.03813" lon="5.05546">
        <ele>161.63900756836</ele>
        <time>2009-05-20T12:56:15Z</time>
      </trkpt>
      <trkpt lat="45.03841" lon="5.05553">
        <ele>161.63900756836</ele>
        <time>2009-05-20T12:56:18Z</time>
      </trkpt>
      <trkpt lat="45.0387" lon="5.05562">
        <ele>161.15800476074</ele>
        <time>2009-05-20T12:56:21Z</time>
      </trkpt>
      <trkpt lat="45.03901" lon="5.05571">
        <ele>160.19700622559</ele>
        <time>2009-05-20T12:56:24Z</time>
      </trkpt>
      <trkpt lat="45.03923" lon="5.05576">
        <ele>158.27400207519</ele>
        <time>2009-05-20T12:56:26Z</time>
      </trkpt>
      <trkpt lat="45.03947" lon="5.05582">
        <ele>156.35200500488</ele>
        <time>2009-05-20T12:56:28Z</time>
      </trkpt>
      <trkpt lat="45.03981" lon="5.05599">
        <ele>154.42900085449</ele>
        <time>2009-05-20T12:56:31Z</time>
      </trkpt>
      <trkpt lat="45.04004" lon="5.05613">
        <ele>153.46800231934</ele>
        <time>2009-05-20T12:56:33Z</time>
      </trkpt>
      <trkpt lat="45.04015" lon="5.05619">
        <ele>152.98699951172</ele>
        <time>2009-05-20T12:56:34Z</time>
      </trkpt>
      <trkpt lat="45.04026" lon="5.05625">
        <ele>152.98699951172</ele>
        <time>2009-05-20T12:56:35Z</time>
      </trkpt>
      <trkpt lat="45.04063" lon="5.05627">
        <ele>151.06399536133</ele>
        <time>2009-05-20T12:56:38Z</time>
      </trkpt>
      <trkpt lat="45.04099" lon="5.05632">
        <ele>150.58399963379</ele>
        <time>2009-05-20T12:56:41Z</time>
      </trkpt>
      <trkpt lat="45.04132" lon="5.05636">
        <ele>150.10299682617</ele>
        <time>2009-05-20T12:56:44Z</time>
      </trkpt>
      <trkpt lat="45.04155" lon="5.05638">
        <ele>149.62199401856</ele>
        <time>2009-05-20T12:56:46Z</time>
      </trkpt>
      <trkpt lat="45.04188" lon="5.05642">
        <ele>148.17999267578</ele>
        <time>2009-05-20T12:56:49Z</time>
      </trkpt>
      <trkpt lat="45.04204" lon="5.05644">
        <ele>147.69999694824</ele>
        <time>2009-05-20T12:56:51Z</time>
      </trkpt>
      <trkpt lat="45.0422" lon="5.0565">
        <ele>147.69999694824</ele>
        <time>2009-05-20T12:56:54Z</time>
      </trkpt>
      <trkpt lat="45.04239" lon="5.0568">
        <ele>147.21899414062</ele>
        <time>2009-05-20T12:56:58Z</time>
      </trkpt>
      <trkpt lat="45.04248" lon="5.0573">
        <ele>147.21899414062</ele>
        <time>2009-05-20T12:57:02Z</time>
      </trkpt>
      <trkpt lat="45.0426" lon="5.05762">
        <ele>148.17999267578</ele>
        <time>2009-05-20T12:57:05Z</time>
      </trkpt>
      <trkpt lat="45.04255" lon="5.05803">
        <ele>148.17999267578</ele>
        <time>2009-05-20T12:57:09Z</time>
      </trkpt>
      <trkpt lat="45.04263" lon="5.0582">
        <ele>148.6609954834</ele>
        <time>2009-05-20T12:57:12Z</time>
      </trkpt>
      <trkpt lat="45.0428" lon="5.0581">
        <ele>148.6609954834</ele>
        <time>2009-05-20T12:57:15Z</time>
      </trkpt>
      <trkpt lat="45.04295" lon="5.05813">
        <ele>149.62199401856</ele>
        <time>2009-05-20T12:57:17Z</time>
      </trkpt>
      <trkpt lat="45.04325" lon="5.05826">
        <ele>151.06399536133</ele>
        <time>2009-05-20T12:57:21Z</time>
      </trkpt>
      <trkpt lat="45.04347" lon="5.05836">
        <ele>152.02600097656</ele>
        <time>2009-05-20T12:57:24Z</time>
      </trkpt>
      <trkpt lat="45.04368" lon="5.05845">
        <ele>152.5059967041</ele>
        <time>2009-05-20T12:57:27Z</time>
      </trkpt>
      <trkpt lat="45.04387" lon="5.05853">
        <ele>153.94799804688</ele>
        <time>2009-05-20T12:57:30Z</time>
      </trkpt>
      <trkpt lat="45.04394" lon="5.05855">
        <ele>153.94799804688</ele>
        <time>2009-05-20T12:57:31Z</time>
      </trkpt>
      <trkpt lat="45.04419" lon="5.05853">
        <ele>154.42900085449</ele>
        <time>2009-05-20T12:57:35Z</time>
      </trkpt>
      <trkpt lat="45.0443" lon="5.05846">
        <ele>155.87100219727</ele>
        <time>2009-05-20T12:57:37Z</time>
      </trkpt>
      <trkpt lat="45.04445" lon="5.05827">
        <ele>156.35200500488</ele>
        <time>2009-05-20T12:57:40Z</time>
      </trkpt>
      <trkpt lat="45.04455" lon="5.05802">
        <ele>156.35200500488</ele>
        <time>2009-05-20T12:57:43Z</time>
      </trkpt>
      <trkpt lat="45.04457" lon="5.05794">
        <ele>156.83200073242</ele>
        <time>2009-05-20T12:57:44Z</time>
      </trkpt>
      <trkpt lat="45.04464" lon="5.05761">
        <ele>158.27400207519</ele>
        <time>2009-05-20T12:57:48Z</time>
      </trkpt>
      <trkpt lat="45.04469" lon="5.05738">
        <ele>158.27400207519</ele>
        <time>2009-05-20T12:57:51Z</time>
      </trkpt>
      <trkpt lat="45.04473" lon="5.05716">
        <ele>158.75500488281</ele>
        <time>2009-05-20T12:57:54Z</time>
      </trkpt>
      <trkpt lat="45.04478" lon="5.05695">
        <ele>160.67700195312</ele>
        <time>2009-05-20T12:57:57Z</time>
      </trkpt>
      <trkpt lat="45.04482" lon="5.05673">
        <ele>160.67700195312</ele>
        <time>2009-05-20T12:58:00Z</time>
      </trkpt>
      <trkpt lat="45.04486" lon="5.05651">
        <ele>161.63900756836</ele>
        <time>2009-05-20T12:58:03Z</time>
      </trkpt>
      <trkpt lat="45.04488" lon="5.05643">
        <ele>161.63900756836</ele>
        <time>2009-05-20T12:58:04Z</time>
      </trkpt>
      <trkpt lat="45.04497" lon="5.05614">
        <ele>162.60000610352</ele>
        <time>2009-05-20T12:58:08Z</time>
      </trkpt>
      <trkpt lat="45.04508" lon="5.05594">
        <ele>163.08099365234</ele>
        <time>2009-05-20T12:58:11Z</time>
      </trkpt>
      <trkpt lat="45.04517" lon="5.05576">
        <ele>164.04200744629</ele>
        <time>2009-05-20T12:58:14Z</time>
      </trkpt>
      <trkpt lat="45.04524" lon="5.05568">
        <ele>164.52299499512</ele>
        <time>2009-05-20T12:58:18Z</time>
      </trkpt>
      <trkpt lat="45.04524" lon="5.05568">
        <ele>164.52299499512</ele>
        <time>2009-05-20T12:58:22Z</time>
      </trkpt>
      <trkpt lat="45.04528" lon="5.05564">
        <ele>164.52299499512</ele>
        <time>2009-05-20T12:58:23Z</time>
      </trkpt>
      <trkpt lat="45.04543" lon="5.05568">
        <ele>165.00300598144</ele>
        <time>2009-05-20T12:58:28Z</time>
      </trkpt>
      <trkpt lat="45.04561" lon="5.05575">
        <ele>165.00300598144</ele>
        <time>2009-05-20T12:58:32Z</time>
      </trkpt>
      <trkpt lat="45.04577" lon="5.05561">
        <ele>165.48399353027</ele>
        <time>2009-05-20T12:58:35Z</time>
      </trkpt>
      <trkpt lat="45.04581" lon="5.05554">
        <ele>165.00300598144</ele>
        <time>2009-05-20T12:58:36Z</time>
      </trkpt>
      <trkpt lat="45.04588" lon="5.0552">
        <ele>165.48399353027</ele>
        <time>2009-05-20T12:58:40Z</time>
      </trkpt>
      <trkpt lat="45.04591" lon="5.05488">
        <ele>165.48399353027</ele>
        <time>2009-05-20T12:58:44Z</time>
      </trkpt>
      <trkpt lat="45.04592" lon="5.0545">
        <ele>165.00300598144</ele>
        <time>2009-05-20T12:58:48Z</time>
      </trkpt>
      <trkpt lat="45.04594" lon="5.05421">
        <ele>165.00300598144</ele>
        <time>2009-05-20T12:58:51Z</time>
      </trkpt>
      <trkpt lat="45.04597" lon="5.05394">
        <ele>165.48399353027</ele>
        <time>2009-05-20T12:58:54Z</time>
      </trkpt>
      <trkpt lat="45.04598" lon="5.0537">
        <ele>165.48399353027</ele>
        <time>2009-05-20T12:58:57Z</time>
      </trkpt>
      <trkpt lat="45.04598" lon="5.05348">
        <ele>165.96499633789</ele>
        <time>2009-05-20T12:59:01Z</time>
      </trkpt>
      <trkpt lat="45.04601" lon="5.0533">
        <ele>165.48399353027</ele>
        <time>2009-05-20T12:59:06Z</time>
      </trkpt>
      <trkpt lat="45.04602" lon="5.05313">
        <ele>165.48399353027</ele>
        <time>2009-05-20T12:59:08Z</time>
      </trkpt>
      <trkpt lat="45.046" lon="5.05292">
        <ele>165.00300598144</ele>
        <time>2009-05-20T12:59:10Z</time>
      </trkpt>
      <trkpt lat="45.04597" lon="5.0525">
        <ele>164.52299499512</ele>
        <time>2009-05-20T12:59:14Z</time>
      </trkpt>
      <trkpt lat="45.04597" lon="5.0522">
        <ele>164.52299499512</ele>
        <time>2009-05-20T12:59:17Z</time>
      </trkpt>
      <trkpt lat="45.04595" lon="5.05188">
        <ele>165.00300598144</ele>
        <time>2009-05-20T12:59:20Z</time>
      </trkpt>
      <trkpt lat="45.04594" lon="5.05157">
        <ele>165.48399353027</ele>
        <time>2009-05-20T12:59:23Z</time>
      </trkpt>
      <trkpt lat="45.04593" lon="5.05126">
        <ele>165.00300598144</ele>
        <time>2009-05-20T12:59:26Z</time>
      </trkpt>
      <trkpt lat="45.04592" lon="5.051">
        <ele>165.48399353027</ele>
        <time>2009-05-20T12:59:29Z</time>
      </trkpt>
      <trkpt lat="45.04593" lon="5.05075">
        <ele>165.00300598144</ele>
        <time>2009-05-20T12:59:32Z</time>
      </trkpt>
      <trkpt lat="45.04591" lon="5.05059">
        <ele>165.48399353027</ele>
        <time>2009-05-20T12:59:34Z</time>
      </trkpt>
      <trkpt lat="45.0459" lon="5.05032">
        <ele>165.48399353027</ele>
        <time>2009-05-20T12:59:38Z</time>
      </trkpt>
      <trkpt lat="45.04588" lon="5.05003">
        <ele>165.48399353027</ele>
        <time>2009-05-20T12:59:42Z</time>
      </trkpt>
      <trkpt lat="45.04589" lon="5.0498">
        <ele>165.48399353027</ele>
        <time>2009-05-20T12:59:46Z</time>
      </trkpt>
      <trkpt lat="45.04587" lon="5.04961">
        <ele>165.00300598144</ele>
        <time>2009-05-20T12:59:50Z</time>
      </trkpt>
      <trkpt lat="45.04586" lon="5.04952">
        <ele>165.48399353027</ele>
        <time>2009-05-20T12:59:53Z</time>
      </trkpt>
      <trkpt lat="45.04585" lon="5.0493">
        <ele>165.00300598144</ele>
        <time>2009-05-20T12:59:59Z</time>
      </trkpt>
      <trkpt lat="45.04585" lon="5.04922">
        <ele>165.00300598144</ele>
        <time>2009-05-20T13:00:00Z</time>
      </trkpt>
      <trkpt lat="45.04577" lon="5.04878">
        <ele>165.96499633789</ele>
        <time>2009-05-20T13:00:04Z</time>
      </trkpt>
      <trkpt lat="45.04572" lon="5.04846">
        <ele>165.96499633789</ele>
        <time>2009-05-20T13:00:07Z</time>
      </trkpt>
      <trkpt lat="45.04568" lon="5.04813">
        <ele>165.48399353027</ele>
        <time>2009-05-20T13:00:10Z</time>
      </trkpt>
      <trkpt lat="45.04565" lon="5.04779">
        <ele>165.48399353027</ele>
        <time>2009-05-20T13:00:13Z</time>
      </trkpt>
      <trkpt lat="45.04559" lon="5.04742">
        <ele>165.48399353027</ele>
        <time>2009-05-20T13:00:16Z</time>
      </trkpt>
      <trkpt lat="45.04552" lon="5.04707">
        <ele>165.48399353027</ele>
        <time>2009-05-20T13:00:19Z</time>
      </trkpt>
      <trkpt lat="45.04557" lon="5.04674">
        <ele>165.00300598144</ele>
        <time>2009-05-20T13:00:23Z</time>
      </trkpt>
      <trkpt lat="45.0456" lon="5.04668">
        <ele>165.48399353027</ele>
        <time>2009-05-20T13:00:24Z</time>
      </trkpt>
      <trkpt lat="45.04572" lon="5.04633">
        <ele>165.00300598144</ele>
        <time>2009-05-20T13:00:29Z</time>
      </trkpt>
      <trkpt lat="45.04576" lon="5.04601">
        <ele>165.00300598144</ele>
        <time>2009-05-20T13:00:32Z</time>
      </trkpt>
      <trkpt lat="45.04593" lon="5.04563">
        <ele>164.52299499512</ele>
        <time>2009-05-20T13:00:36Z</time>
      </trkpt>
      <trkpt lat="45.04608" lon="5.04539">
        <ele>164.52299499512</ele>
        <time>2009-05-20T13:00:39Z</time>
      </trkpt>
      <trkpt lat="45.04627" lon="5.04505">
        <ele>164.04200744629</ele>
        <time>2009-05-20T13:00:43Z</time>
      </trkpt>
      <trkpt lat="45.04642" lon="5.04478">
        <ele>164.52299499512</ele>
        <time>2009-05-20T13:00:46Z</time>
      </trkpt>
      <trkpt lat="45.04658" lon="5.04451">
        <ele>163.56199645996</ele>
        <time>2009-05-20T13:00:49Z</time>
      </trkpt>
      <trkpt lat="45.04673" lon="5.04423">
        <ele>163.56199645996</ele>
        <time>2009-05-20T13:00:52Z</time>
      </trkpt>
      <trkpt lat="45.04689" lon="5.04396">
        <ele>163.08099365234</ele>
        <time>2009-05-20T13:00:55Z</time>
      </trkpt>
      <trkpt lat="45.04704" lon="5.04366">
        <ele>162.60000610352</ele>
        <time>2009-05-20T13:00:58Z</time>
      </trkpt>
      <trkpt lat="45.04718" lon="5.04337">
        <ele>162.60000610352</ele>
        <time>2009-05-20T13:01:01Z</time>
      </trkpt>
      <trkpt lat="45.04733" lon="5.04309">
        <ele>162.60000610352</ele>
        <time>2009-05-20T13:01:04Z</time>
      </trkpt>
      <trkpt lat="45.04747" lon="5.04282">
        <ele>162.60000610352</ele>
        <time>2009-05-20T13:01:07Z</time>
      </trkpt>
      <trkpt lat="45.04762" lon="5.04254">
        <ele>162.11999511719</ele>
        <time>2009-05-20T13:01:10Z</time>
      </trkpt>
      <trkpt lat="45.04778" lon="5.04226">
        <ele>162.60000610352</ele>
        <time>2009-05-20T13:01:13Z</time>
      </trkpt>
      <trkpt lat="45.04792" lon="5.04198">
        <ele>162.60000610352</ele>
        <time>2009-05-20T13:01:16Z</time>
      </trkpt>
      <trkpt lat="45.04796" lon="5.04159">
        <ele>162.60000610352</ele>
        <time>2009-05-20T13:01:19Z</time>
      </trkpt>
      <trkpt lat="45.04819" lon="5.04138">
        <ele>163.08099365234</ele>
        <time>2009-05-20T13:01:22Z</time>
      </trkpt>
      <trkpt lat="45.04832" lon="5.04092">
        <ele>163.08099365234</ele>
        <time>2009-05-20T13:01:26Z</time>
      </trkpt>
      <trkpt lat="45.04843" lon="5.0405">
        <ele>163.56199645996</ele>
        <time>2009-05-20T13:01:30Z</time>
      </trkpt>
      <trkpt lat="45.0485" lon="5.04019">
        <ele>163.56199645996</ele>
        <time>2009-05-20T13:01:33Z</time>
      </trkpt>
      <trkpt lat="45.04853" lon="5.03999">
        <ele>164.04200744629</ele>
        <time>2009-05-20T13:01:35Z</time>
      </trkpt>
      <trkpt lat="45.04848" lon="5.03957">
        <ele>163.56199645996</ele>
        <time>2009-05-20T13:01:39Z</time>
      </trkpt>
      <trkpt lat="45.04846" lon="5.03921">
        <ele>162.60000610352</ele>
        <time>2009-05-20T13:01:42Z</time>
      </trkpt>
      <trkpt lat="45.04843" lon="5.03884">
        <ele>161.63900756836</ele>
        <time>2009-05-20T13:01:45Z</time>
      </trkpt>
      <trkpt lat="45.04841" lon="5.03844">
        <ele>159.71600341797</ele>
        <time>2009-05-20T13:01:48Z</time>
      </trkpt>
      <trkpt lat="45.04842" lon="5.0379">
        <ele>159.23500061035</ele>
        <time>2009-05-20T13:01:52Z</time>
      </trkpt>
      <trkpt lat="45.04844" lon="5.03766">
        <ele>159.71600341797</ele>
        <time>2009-05-20T13:01:54Z</time>
      </trkpt>
      <trkpt lat="45.04836" lon="5.03724">
        <ele>161.15800476074</ele>
        <time>2009-05-20T13:01:58Z</time>
      </trkpt>
      <trkpt lat="45.04827" lon="5.03708">
        <ele>161.15800476074</ele>
        <time>2009-05-20T13:02:00Z</time>
      </trkpt>
      <trkpt lat="45.04807" lon="5.03678">
        <ele>161.15800476074</ele>
        <time>2009-05-20T13:02:04Z</time>
      </trkpt>
      <trkpt lat="45.04792" lon="5.03657">
        <ele>162.11999511719</ele>
        <time>2009-05-20T13:02:07Z</time>
      </trkpt>
      <trkpt lat="45.04778" lon="5.03636">
        <ele>162.60000610352</ele>
        <time>2009-05-20T13:02:10Z</time>
      </trkpt>
      <trkpt lat="45.04763" lon="5.03615">
        <ele>163.08099365234</ele>
        <time>2009-05-20T13:02:13Z</time>
      </trkpt>
      <trkpt lat="45.04747" lon="5.03594">
        <ele>162.60000610352</ele>
        <time>2009-05-20T13:02:16Z</time>
      </trkpt>
      <trkpt lat="45.04731" lon="5.03572">
        <ele>162.60000610352</ele>
        <time>2009-05-20T13:02:19Z</time>
      </trkpt>
      <trkpt lat="45.04715" lon="5.03549">
        <ele>162.60000610352</ele>
        <time>2009-05-20T13:02:22Z</time>
      </trkpt>
      <trkpt lat="45.04698" lon="5.03526">
        <ele>163.08099365234</ele>
        <time>2009-05-20T13:02:25Z</time>
      </trkpt>
      <trkpt lat="45.0468" lon="5.03503">
        <ele>162.60000610352</ele>
        <time>2009-05-20T13:02:28Z</time>
      </trkpt>
      <trkpt lat="45.04662" lon="5.03478">
        <ele>163.08099365234</ele>
        <time>2009-05-20T13:02:31Z</time>
      </trkpt>
      <trkpt lat="45.04642" lon="5.03454">
        <ele>163.08099365234</ele>
        <time>2009-05-20T13:02:34Z</time>
      </trkpt>
      <trkpt lat="45.04622" lon="5.03433">
        <ele>163.08099365234</ele>
        <time>2009-05-20T13:02:37Z</time>
      </trkpt>
      <trkpt lat="45.04601" lon="5.03412">
        <ele>163.08099365234</ele>
        <time>2009-05-20T13:02:40Z</time>
      </trkpt>
      <trkpt lat="45.04582" lon="5.03391">
        <ele>163.08099365234</ele>
        <time>2009-05-20T13:02:43Z</time>
      </trkpt>
      <trkpt lat="45.04562" lon="5.0337">
        <ele>163.56199645996</ele>
        <time>2009-05-20T13:02:46Z</time>
      </trkpt>
      <trkpt lat="45.04551" lon="5.03355">
        <ele>163.08099365234</ele>
        <time>2009-05-20T13:02:48Z</time>
      </trkpt>
      <trkpt lat="45.04533" lon="5.03316">
        <ele>163.56199645996</ele>
        <time>2009-05-20T13:02:52Z</time>
      </trkpt>
      <trkpt lat="45.04521" lon="5.03285">
        <ele>164.04200744629</ele>
        <time>2009-05-20T13:02:55Z</time>
      </trkpt>
      <trkpt lat="45.04506" lon="5.03257">
        <ele>164.04200744629</ele>
        <time>2009-05-20T13:02:58Z</time>
      </trkpt>
      <trkpt lat="45.04492" lon="5.03229">
        <ele>164.04200744629</ele>
        <time>2009-05-20T13:03:01Z</time>
      </trkpt>
      <trkpt lat="45.04479" lon="5.03198">
        <ele>164.04200744629</ele>
        <time>2009-05-20T13:03:04Z</time>
      </trkpt>
      <trkpt lat="45.04466" lon="5.03169">
        <ele>163.56199645996</ele>
        <time>2009-05-20T13:03:07Z</time>
      </trkpt>
      <trkpt lat="45.04453" lon="5.03138">
        <ele>163.56199645996</ele>
        <time>2009-05-20T13:03:10Z</time>
      </trkpt>
      <trkpt lat="45.04449" lon="5.03128">
        <ele>163.56199645996</ele>
        <time>2009-05-20T13:03:11Z</time>
      </trkpt>
      <trkpt lat="45.04444" lon="5.03106">
        <ele>163.08099365234</ele>
        <time>2009-05-20T13:03:13Z</time>
      </trkpt>
      <trkpt lat="45.04427" lon="5.03067">
        <ele>163.56199645996</ele>
        <time>2009-05-20T13:03:17Z</time>
      </trkpt>
      <trkpt lat="45.0441" lon="5.03042">
        <ele>163.08099365234</ele>
        <time>2009-05-20T13:03:20Z</time>
      </trkpt>
      <trkpt lat="45.04405" lon="5.03032">
        <ele>163.08099365234</ele>
        <time>2009-05-20T13:03:21Z</time>
      </trkpt>
      <trkpt lat="45.04388" lon="5.02992">
        <ele>163.08099365234</ele>
        <time>2009-05-20T13:03:25Z</time>
      </trkpt>
      <trkpt lat="45.04374" lon="5.02964">
        <ele>163.08099365234</ele>
        <time>2009-05-20T13:03:28Z</time>
      </trkpt>
      <trkpt lat="45.04365" lon="5.02921">
        <ele>163.08099365234</ele>
        <time>2009-05-20T13:03:32Z</time>
      </trkpt>
      <trkpt lat="45.04356" lon="5.02903">
        <ele>163.56199645996</ele>
        <time>2009-05-20T13:03:34Z</time>
      </trkpt>
      <trkpt lat="45.0434" lon="5.02856">
        <ele>163.08099365234</ele>
        <time>2009-05-20T13:03:39Z</time>
      </trkpt>
      <trkpt lat="45.0434" lon="5.02823">
        <ele>163.08099365234</ele>
        <time>2009-05-20T13:03:42Z</time>
      </trkpt>
      <trkpt lat="45.04341" lon="5.02791">
        <ele>163.56199645996</ele>
        <time>2009-05-20T13:03:45Z</time>
      </trkpt>
      <trkpt lat="45.04342" lon="5.02759">
        <ele>163.56199645996</ele>
        <time>2009-05-20T13:03:48Z</time>
      </trkpt>
      <trkpt lat="45.04343" lon="5.02737">
        <ele>163.08099365234</ele>
        <time>2009-05-20T13:03:50Z</time>
      </trkpt>
      <trkpt lat="45.04345" lon="5.02703">
        <ele>164.52299499512</ele>
        <time>2009-05-20T13:03:54Z</time>
      </trkpt>
      <trkpt lat="45.04345" lon="5.027">
        <ele>164.52299499512</ele>
        <time>2009-05-20T13:03:56Z</time>
      </trkpt>
      <trkpt lat="45.04345" lon="5.027">
        <ele>164.52299499512</ele>
        <time>2009-05-20T13:04:02Z</time>
      </trkpt>
      <trkpt lat="45.04346" lon="5.027">
        <ele>164.52299499512</ele>
        <time>2009-05-20T13:04:03Z</time>
      </trkpt>
      <trkpt lat="45.04346" lon="5.027">
        <ele>164.52299499512</ele>
        <time>2009-05-20T13:04:07Z</time>
      </trkpt>
      <trkpt lat="45.04346" lon="5.027">
        <ele>164.04200744629</ele>
        <time>2009-05-20T13:04:08Z</time>
      </trkpt>
      <trkpt lat="45.04346" lon="5.02699">
        <ele>164.04200744629</ele>
        <time>2009-05-20T13:04:09Z</time>
      </trkpt>
      <trkpt lat="45.04345" lon="5.02685">
        <ele>163.56199645996</ele>
        <time>2009-05-20T13:04:13Z</time>
      </trkpt>
      <trkpt lat="45.04346" lon="5.02659">
        <ele>163.56199645996</ele>
        <time>2009-05-20T13:04:17Z</time>
      </trkpt>
      <trkpt lat="45.04346" lon="5.02634">
        <ele>163.56199645996</ele>
        <time>2009-05-20T13:04:20Z</time>
      </trkpt>
      <trkpt lat="45.04347" lon="5.02608">
        <ele>164.04200744629</ele>
        <time>2009-05-20T13:04:23Z</time>
      </trkpt>
      <trkpt lat="45.04348" lon="5.0258">
        <ele>163.08099365234</ele>
        <time>2009-05-20T13:04:26Z</time>
      </trkpt>
      <trkpt lat="45.04348" lon="5.02551">
        <ele>163.56199645996</ele>
        <time>2009-05-20T13:04:29Z</time>
      </trkpt>
      <trkpt lat="45.04349" lon="5.02521">
        <ele>163.08099365234</ele>
        <time>2009-05-20T13:04:32Z</time>
      </trkpt>
      <trkpt lat="45.0435" lon="5.02489">
        <ele>163.08099365234</ele>
        <time>2009-05-20T13:04:35Z</time>
      </trkpt>
      <trkpt lat="45.0435" lon="5.02456">
        <ele>162.60000610352</ele>
        <time>2009-05-20T13:04:38Z</time>
      </trkpt>
      <trkpt lat="45.04351" lon="5.02424">
        <ele>162.11999511719</ele>
        <time>2009-05-20T13:04:41Z</time>
      </trkpt>
      <trkpt lat="45.04352" lon="5.02391">
        <ele>161.63900756836</ele>
        <time>2009-05-20T13:04:44Z</time>
      </trkpt>
      <trkpt lat="45.04353" lon="5.02357">
        <ele>162.11999511719</ele>
        <time>2009-05-20T13:04:47Z</time>
      </trkpt>
      <trkpt lat="45.04357" lon="5.02325">
        <ele>161.63900756836</ele>
        <time>2009-05-20T13:04:50Z</time>
      </trkpt>
      <trkpt lat="45.04362" lon="5.02292">
        <ele>161.63900756836</ele>
        <time>2009-05-20T13:04:53Z</time>
      </trkpt>
      <trkpt lat="45.04368" lon="5.02259">
        <ele>161.15800476074</ele>
        <time>2009-05-20T13:04:56Z</time>
      </trkpt>
      <trkpt lat="45.04374" lon="5.02226">
        <ele>160.19700622559</ele>
        <time>2009-05-20T13:04:59Z</time>
      </trkpt>
      <trkpt lat="45.0438" lon="5.02193">
        <ele>160.67700195312</ele>
        <time>2009-05-20T13:05:02Z</time>
      </trkpt>
      <trkpt lat="45.04386" lon="5.02161">
        <ele>161.15800476074</ele>
        <time>2009-05-20T13:05:05Z</time>
      </trkpt>
      <trkpt lat="45.04392" lon="5.02129">
        <ele>160.67700195312</ele>
        <time>2009-05-20T13:05:08Z</time>
      </trkpt>
      <trkpt lat="45.04398" lon="5.02096">
        <ele>161.15800476074</ele>
        <time>2009-05-20T13:05:11Z</time>
      </trkpt>
      <trkpt lat="45.04403" lon="5.02064">
        <ele>160.19700622559</ele>
        <time>2009-05-20T13:05:14Z</time>
      </trkpt>
      <trkpt lat="45.04409" lon="5.02031">
        <ele>160.19700622559</ele>
        <time>2009-05-20T13:05:17Z</time>
      </trkpt>
      <trkpt lat="45.04415" lon="5.01999">
        <ele>160.19700622559</ele>
        <time>2009-05-20T13:05:20Z</time>
      </trkpt>
      <trkpt lat="45.04421" lon="5.01966">
        <ele>159.71600341797</ele>
        <time>2009-05-20T13:05:23Z</time>
      </trkpt>
      <trkpt lat="45.04427" lon="5.01935">
        <ele>159.71600341797</ele>
        <time>2009-05-20T13:05:26Z</time>
      </trkpt>
      <trkpt lat="45.04432" lon="5.01903">
        <ele>159.71600341797</ele>
        <time>2009-05-20T13:05:29Z</time>
      </trkpt>
      <trkpt lat="45.04438" lon="5.01872">
        <ele>159.71600341797</ele>
        <time>2009-05-20T13:05:32Z</time>
      </trkpt>
      <trkpt lat="45.04443" lon="5.01841">
        <ele>159.71600341797</ele>
        <time>2009-05-20T13:05:35Z</time>
      </trkpt>
      <trkpt lat="45.04449" lon="5.01811">
        <ele>160.19700622559</ele>
        <time>2009-05-20T13:05:38Z</time>
      </trkpt>
      <trkpt lat="45.04454" lon="5.01779">
        <ele>159.71600341797</ele>
        <time>2009-05-20T13:05:41Z</time>
      </trkpt>
      <trkpt lat="45.0446" lon="5.01748">
        <ele>160.19700622559</ele>
        <time>2009-05-20T13:05:44Z</time>
      </trkpt>
      <trkpt lat="45.04466" lon="5.01716">
        <ele>159.71600341797</ele>
        <time>2009-05-20T13:05:47Z</time>
      </trkpt>
      <trkpt lat="45.04472" lon="5.01685">
        <ele>159.71600341797</ele>
        <time>2009-05-20T13:05:50Z</time>
      </trkpt>
      <trkpt lat="45.04477" lon="5.01654">
        <ele>159.23500061035</ele>
        <time>2009-05-20T13:05:53Z</time>
      </trkpt>
      <trkpt lat="45.04483" lon="5.01624">
        <ele>159.23500061035</ele>
        <time>2009-05-20T13:05:56Z</time>
      </trkpt>
      <trkpt lat="45.04491" lon="5.01593">
        <ele>158.75500488281</ele>
        <time>2009-05-20T13:05:59Z</time>
      </trkpt>
      <trkpt lat="45.04493" lon="5.01583">
        <ele>159.23500061035</ele>
        <time>2009-05-20T13:06:00Z</time>
      </trkpt>
      <trkpt lat="45.04509" lon="5.01548">
        <ele>159.71600341797</ele>
        <time>2009-05-20T13:06:04Z</time>
      </trkpt>
      <trkpt lat="45.04521" lon="5.01501">
        <ele>159.23500061035</ele>
        <time>2009-05-20T13:06:09Z</time>
      </trkpt>
      <trkpt lat="45.04518" lon="5.01449">
        <ele>159.23500061035</ele>
        <time>2009-05-20T13:06:14Z</time>
      </trkpt>
      <trkpt lat="45.04519" lon="5.01419">
        <ele>159.23500061035</ele>
        <time>2009-05-20T13:06:17Z</time>
      </trkpt>
      <trkpt lat="45.04521" lon="5.0139">
        <ele>159.23500061035</ele>
        <time>2009-05-20T13:06:20Z</time>
      </trkpt>
      <trkpt lat="45.04521" lon="5.01361">
        <ele>159.71600341797</ele>
        <time>2009-05-20T13:06:23Z</time>
      </trkpt>
      <trkpt lat="45.0452" lon="5.01342">
        <ele>159.71600341797</ele>
        <time>2009-05-20T13:06:25Z</time>
      </trkpt>
      <trkpt lat="45.04515" lon="5.01306">
        <ele>159.71600341797</ele>
        <time>2009-05-20T13:06:29Z</time>
      </trkpt>
      <trkpt lat="45.0451" lon="5.0128">
        <ele>160.19700622559</ele>
        <time>2009-05-20T13:06:32Z</time>
      </trkpt>
      <trkpt lat="45.04506" lon="5.01254">
        <ele>160.67700195312</ele>
        <time>2009-05-20T13:06:35Z</time>
      </trkpt>
      <trkpt lat="45.04501" lon="5.01228">
        <ele>161.15800476074</ele>
        <time>2009-05-20T13:06:38Z</time>
      </trkpt>
      <trkpt lat="45.04497" lon="5.01202">
        <ele>161.63900756836</ele>
        <time>2009-05-20T13:06:41Z</time>
      </trkpt>
      <trkpt lat="45.04493" lon="5.01178">
        <ele>162.11999511719</ele>
        <time>2009-05-20T13:06:44Z</time>
      </trkpt>
      <trkpt lat="45.04488" lon="5.01154">
        <ele>162.11999511719</ele>
        <time>2009-05-20T13:06:47Z</time>
      </trkpt>
      <trkpt lat="45.04484" lon="5.01131">
        <ele>162.11999511719</ele>
        <time>2009-05-20T13:06:50Z</time>
      </trkpt>
      <trkpt lat="45.0448" lon="5.01107">
        <ele>162.60000610352</ele>
        <time>2009-05-20T13:06:53Z</time>
      </trkpt>
      <trkpt lat="45.04476" lon="5.01083">
        <ele>162.11999511719</ele>
        <time>2009-05-20T13:06:56Z</time>
      </trkpt>
      <trkpt lat="45.04472" lon="5.01057">
        <ele>162.60000610352</ele>
        <time>2009-05-20T13:06:59Z</time>
      </trkpt>
      <trkpt lat="45.04469" lon="5.0103">
        <ele>162.11999511719</ele>
        <time>2009-05-20T13:07:02Z</time>
      </trkpt>
      <trkpt lat="45.04467" lon="5.01002">
        <ele>162.11999511719</ele>
        <time>2009-05-20T13:07:05Z</time>
      </trkpt>
      <trkpt lat="45.04468" lon="5.00972">
        <ele>161.63900756836</ele>
        <time>2009-05-20T13:07:08Z</time>
      </trkpt>
      <trkpt lat="45.0447" lon="5.00943">
        <ele>161.15800476074</ele>
        <time>2009-05-20T13:07:11Z</time>
      </trkpt>
      <trkpt lat="45.04476" lon="5.00914">
        <ele>161.63900756836</ele>
        <time>2009-05-20T13:07:14Z</time>
      </trkpt>
      <trkpt lat="45.04483" lon="5.00886">
        <ele>161.63900756836</ele>
        <time>2009-05-20T13:07:17Z</time>
      </trkpt>
      <trkpt lat="45.0449" lon="5.00857">
        <ele>162.11999511719</ele>
        <time>2009-05-20T13:07:20Z</time>
      </trkpt>
      <trkpt lat="45.04498" lon="5.00827">
        <ele>161.63900756836</ele>
        <time>2009-05-20T13:07:23Z</time>
      </trkpt>
      <trkpt lat="45.04506" lon="5.00796">
        <ele>161.63900756836</ele>
        <time>2009-05-20T13:07:26Z</time>
      </trkpt>
      <trkpt lat="45.04514" lon="5.00765">
        <ele>161.63900756836</ele>
        <time>2009-05-20T13:07:29Z</time>
      </trkpt>
      <trkpt lat="45.04523" lon="5.00734">
        <ele>161.63900756836</ele>
        <time>2009-05-20T13:07:32Z</time>
      </trkpt>
      <trkpt lat="45.04534" lon="5.00703">
        <ele>161.63900756836</ele>
        <time>2009-05-20T13:07:35Z</time>
      </trkpt>
      <trkpt lat="45.04547" lon="5.00673">
        <ele>161.15800476074</ele>
        <time>2009-05-20T13:07:38Z</time>
      </trkpt>
      <trkpt lat="45.04562" lon="5.00644">
        <ele>161.15800476074</ele>
        <time>2009-05-20T13:07:41Z</time>
      </trkpt>
      <trkpt lat="45.04578" lon="5.00614">
        <ele>160.19700622559</ele>
        <time>2009-05-20T13:07:44Z</time>
      </trkpt>
      <trkpt lat="45.04594" lon="5.00584">
        <ele>160.67700195312</ele>
        <time>2009-05-20T13:07:47Z</time>
      </trkpt>
      <trkpt lat="45.0461" lon="5.00555">
        <ele>160.67700195312</ele>
        <time>2009-05-20T13:07:50Z</time>
      </trkpt>
      <trkpt lat="45.04626" lon="5.00526">
        <ele>159.71600341797</ele>
        <time>2009-05-20T13:07:53Z</time>
      </trkpt>
      <trkpt lat="45.04642" lon="5.00497">
        <ele>159.23500061035</ele>
        <time>2009-05-20T13:07:56Z</time>
      </trkpt>
      <trkpt lat="45.04658" lon="5.00466">
        <ele>158.27400207519</ele>
        <time>2009-05-20T13:07:59Z</time>
      </trkpt>
      <trkpt lat="45.04674" lon="5.00434">
        <ele>158.27400207519</ele>
        <time>2009-05-20T13:08:02Z</time>
      </trkpt>
      <trkpt lat="45.04688" lon="5.004">
        <ele>156.83200073242</ele>
        <time>2009-05-20T13:08:05Z</time>
      </trkpt>
      <trkpt lat="45.04691" lon="5.00389">
        <ele>156.83200073242</ele>
        <time>2009-05-20T13:08:06Z</time>
      </trkpt>
      <trkpt lat="45.04702" lon="5.00354">
        <ele>157.31300354004</ele>
        <time>2009-05-20T13:08:09Z</time>
      </trkpt>
      <trkpt lat="45.04708" lon="5.00319">
        <ele>156.83200073242</ele>
        <time>2009-05-20T13:08:12Z</time>
      </trkpt>
      <trkpt lat="45.04712" lon="5.00285">
        <ele>156.83200073242</ele>
        <time>2009-05-20T13:08:15Z</time>
      </trkpt>
      <trkpt lat="45.04716" lon="5.00251">
        <ele>157.79400634766</ele>
        <time>2009-05-20T13:08:18Z</time>
      </trkpt>
      <trkpt lat="45.0472" lon="5.00218">
        <ele>157.31300354004</ele>
        <time>2009-05-20T13:08:21Z</time>
      </trkpt>
      <trkpt lat="45.04723" lon="5.00185">
        <ele>157.31300354004</ele>
        <time>2009-05-20T13:08:24Z</time>
      </trkpt>
      <trkpt lat="45.04727" lon="5.00152">
        <ele>157.79400634766</ele>
        <time>2009-05-20T13:08:27Z</time>
      </trkpt>
      <trkpt lat="45.04731" lon="5.00119">
        <ele>157.79400634766</ele>
        <time>2009-05-20T13:08:30Z</time>
      </trkpt>
      <trkpt lat="45.04734" lon="5.00087">
        <ele>157.79400634766</ele>
        <time>2009-05-20T13:08:33Z</time>
      </trkpt>
      <trkpt lat="45.04738" lon="5.00055">
        <ele>157.79400634766</ele>
        <time>2009-05-20T13:08:36Z</time>
      </trkpt>
      <trkpt lat="45.04741" lon="5.00022">
        <ele>157.31300354004</ele>
        <time>2009-05-20T13:08:39Z</time>
      </trkpt>
      <trkpt lat="45.04744" lon="4.99991">
        <ele>156.83200073242</ele>
        <time>2009-05-20T13:08:42Z</time>
      </trkpt>
      <trkpt lat="45.04748" lon="4.9996">
        <ele>157.31300354004</ele>
        <time>2009-05-20T13:08:45Z</time>
      </trkpt>
      <trkpt lat="45.0475" lon="4.9993">
        <ele>157.31300354004</ele>
        <time>2009-05-20T13:08:48Z</time>
      </trkpt>
      <trkpt lat="45.04753" lon="4.99901">
        <ele>157.31300354004</ele>
        <time>2009-05-20T13:08:51Z</time>
      </trkpt>
      <trkpt lat="45.04756" lon="4.99872">
        <ele>156.83200073242</ele>
        <time>2009-05-20T13:08:54Z</time>
      </trkpt>
      <trkpt lat="45.04759" lon="4.99843">
        <ele>157.31300354004</ele>
        <time>2009-05-20T13:08:57Z</time>
      </trkpt>
      <trkpt lat="45.04763" lon="4.99813">
        <ele>157.31300354004</ele>
        <time>2009-05-20T13:09:00Z</time>
      </trkpt>
      <trkpt lat="45.04766" lon="4.99783">
        <ele>156.83200073242</ele>
        <time>2009-05-20T13:09:03Z</time>
      </trkpt>
      <trkpt lat="45.0477" lon="4.99752">
        <ele>158.75500488281</ele>
        <time>2009-05-20T13:09:06Z</time>
      </trkpt>
      <trkpt lat="45.04771" lon="4.99742">
        <ele>158.75500488281</ele>
        <time>2009-05-20T13:09:07Z</time>
      </trkpt>
      <trkpt lat="45.04775" lon="4.99711">
        <ele>157.79400634766</ele>
        <time>2009-05-20T13:09:10Z</time>
      </trkpt>
      <trkpt lat="45.04779" lon="4.99678">
        <ele>157.79400634766</ele>
        <time>2009-05-20T13:09:13Z</time>
      </trkpt>
      <trkpt lat="45.04781" lon="4.99668">
        <ele>157.79400634766</ele>
        <time>2009-05-20T13:09:14Z</time>
      </trkpt>
      <trkpt lat="45.04801" lon="4.9964">
        <ele>157.79400634766</ele>
        <time>2009-05-20T13:09:18Z</time>
      </trkpt>
      <trkpt lat="45.04811" lon="4.99616">
        <ele>157.79400634766</ele>
        <time>2009-05-20T13:09:21Z</time>
      </trkpt>
      <trkpt lat="45.04806" lon="4.99589">
        <ele>157.79400634766</ele>
        <time>2009-05-20T13:09:24Z</time>
      </trkpt>
      <trkpt lat="45.04797" lon="4.9954">
        <ele>157.31300354004</ele>
        <time>2009-05-20T13:09:29Z</time>
      </trkpt>
      <trkpt lat="45.04802" lon="4.99499">
        <ele>157.31300354004</ele>
        <time>2009-05-20T13:09:33Z</time>
      </trkpt>
      <trkpt lat="45.04808" lon="4.99467">
        <ele>157.31300354004</ele>
        <time>2009-05-20T13:09:36Z</time>
      </trkpt>
      <trkpt lat="45.04813" lon="4.99435">
        <ele>156.83200073242</ele>
        <time>2009-05-20T13:09:39Z</time>
      </trkpt>
      <trkpt lat="45.04819" lon="4.99403">
        <ele>157.31300354004</ele>
        <time>2009-05-20T13:09:42Z</time>
      </trkpt>
      <trkpt lat="45.04826" lon="4.9937">
        <ele>156.83200073242</ele>
        <time>2009-05-20T13:09:45Z</time>
      </trkpt>
      <trkpt lat="45.04833" lon="4.99337">
        <ele>156.35200500488</ele>
        <time>2009-05-20T13:09:48Z</time>
      </trkpt>
      <trkpt lat="45.04839" lon="4.99304">
        <ele>156.35200500488</ele>
        <time>2009-05-20T13:09:51Z</time>
      </trkpt>
      <trkpt lat="45.04846" lon="4.99272">
        <ele>156.35200500488</ele>
        <time>2009-05-20T13:09:54Z</time>
      </trkpt>
      <trkpt lat="45.04853" lon="4.9924">
        <ele>155.87100219727</ele>
        <time>2009-05-20T13:09:57Z</time>
      </trkpt>
      <trkpt lat="45.0486" lon="4.99209">
        <ele>155.87100219727</ele>
        <time>2009-05-20T13:10:00Z</time>
      </trkpt>
      <trkpt lat="45.04866" lon="4.99178">
        <ele>156.35200500488</ele>
        <time>2009-05-20T13:10:03Z</time>
      </trkpt>
      <trkpt lat="45.04872" lon="4.99148">
        <ele>155.87100219727</ele>
        <time>2009-05-20T13:10:06Z</time>
      </trkpt>
      <trkpt lat="45.04878" lon="4.99118">
        <ele>156.35200500488</ele>
        <time>2009-05-20T13:10:09Z</time>
      </trkpt>
      <trkpt lat="45.04884" lon="4.99088">
        <ele>156.83200073242</ele>
        <time>2009-05-20T13:10:12Z</time>
      </trkpt>
      <trkpt lat="45.0489" lon="4.99058">
        <ele>156.35200500488</ele>
        <time>2009-05-20T13:10:15Z</time>
      </trkpt>
      <trkpt lat="45.04897" lon="4.99027">
        <ele>156.35200500488</ele>
        <time>2009-05-20T13:10:18Z</time>
      </trkpt>
      <trkpt lat="45.04903" lon="4.98996">
        <ele>155.38999938965</ele>
        <time>2009-05-20T13:10:21Z</time>
      </trkpt>
      <trkpt lat="45.04909" lon="4.98966">
        <ele>155.87100219727</ele>
        <time>2009-05-20T13:10:24Z</time>
      </trkpt>
      <trkpt lat="45.04916" lon="4.98935">
        <ele>155.87100219727</ele>
        <time>2009-05-20T13:10:27Z</time>
      </trkpt>
      <trkpt lat="45.04922" lon="4.98904">
        <ele>155.87100219727</ele>
        <time>2009-05-20T13:10:30Z</time>
      </trkpt>
      <trkpt lat="45.04928" lon="4.98873">
        <ele>155.87100219727</ele>
        <time>2009-05-20T13:10:33Z</time>
      </trkpt>
      <trkpt lat="45.04934" lon="4.98842">
        <ele>156.35200500488</ele>
        <time>2009-05-20T13:10:36Z</time>
      </trkpt>
      <trkpt lat="45.04941" lon="4.98811">
        <ele>156.35200500488</ele>
        <time>2009-05-20T13:10:39Z</time>
      </trkpt>
      <trkpt lat="45.04948" lon="4.98779">
        <ele>155.87100219727</ele>
        <time>2009-05-20T13:10:42Z</time>
      </trkpt>
      <trkpt lat="45.04954" lon="4.98747">
        <ele>156.35200500488</ele>
        <time>2009-05-20T13:10:45Z</time>
      </trkpt>
      <trkpt lat="45.04961" lon="4.98715">
        <ele>156.83200073242</ele>
        <time>2009-05-20T13:10:48Z</time>
      </trkpt>
      <trkpt lat="45.04968" lon="4.98682">
        <ele>156.35200500488</ele>
        <time>2009-05-20T13:10:51Z</time>
      </trkpt>
      <trkpt lat="45.04976" lon="4.98649">
        <ele>156.35200500488</ele>
        <time>2009-05-20T13:10:54Z</time>
      </trkpt>
      <trkpt lat="45.04985" lon="4.98616">
        <ele>156.35200500488</ele>
        <time>2009-05-20T13:10:57Z</time>
      </trkpt>
      <trkpt lat="45.04993" lon="4.98586">
        <ele>156.83200073242</ele>
        <time>2009-05-20T13:11:00Z</time>
      </trkpt>
      <trkpt lat="45.05002" lon="4.98557">
        <ele>156.83200073242</ele>
        <time>2009-05-20T13:11:03Z</time>
      </trkpt>
      <trkpt lat="45.05009" lon="4.9853">
        <ele>156.35200500488</ele>
        <time>2009-05-20T13:11:06Z</time>
      </trkpt>
      <trkpt lat="45.05016" lon="4.98505">
        <ele>156.35200500488</ele>
        <time>2009-05-20T13:11:09Z</time>
      </trkpt>
      <trkpt lat="45.05022" lon="4.98479">
        <ele>156.35200500488</ele>
        <time>2009-05-20T13:11:12Z</time>
      </trkpt>
      <trkpt lat="45.05028" lon="4.98451">
        <ele>156.35200500488</ele>
        <time>2009-05-20T13:11:15Z</time>
      </trkpt>
      <trkpt lat="45.05035" lon="4.98422">
        <ele>156.83200073242</ele>
        <time>2009-05-20T13:11:18Z</time>
      </trkpt>
      <trkpt lat="45.05043" lon="4.98387">
        <ele>156.35200500488</ele>
        <time>2009-05-20T13:11:21Z</time>
      </trkpt>
      <trkpt lat="45.05051" lon="4.98348">
        <ele>155.38999938965</ele>
        <time>2009-05-20T13:11:24Z</time>
      </trkpt>
      <trkpt lat="45.05059" lon="4.9831">
        <ele>155.87100219727</ele>
        <time>2009-05-20T13:11:27Z</time>
      </trkpt>
      <trkpt lat="45.05068" lon="4.98271">
        <ele>155.38999938965</ele>
        <time>2009-05-20T13:11:30Z</time>
      </trkpt>
      <trkpt lat="45.05077" lon="4.98231">
        <ele>155.38999938965</ele>
        <time>2009-05-20T13:11:33Z</time>
      </trkpt>
      <trkpt lat="45.05087" lon="4.98191">
        <ele>154.91000366211</ele>
        <time>2009-05-20T13:11:36Z</time>
      </trkpt>
      <trkpt lat="45.05099" lon="4.98153">
        <ele>154.42900085449</ele>
        <time>2009-05-20T13:11:39Z</time>
      </trkpt>
      <trkpt lat="45.05113" lon="4.98117">
        <ele>154.42900085449</ele>
        <time>2009-05-20T13:11:42Z</time>
      </trkpt>
      <trkpt lat="45.05128" lon="4.98082">
        <ele>153.46800231934</ele>
        <time>2009-05-20T13:11:45Z</time>
      </trkpt>
      <trkpt lat="45.05141" lon="4.98047">
        <ele>154.42900085449</ele>
        <time>2009-05-20T13:11:48Z</time>
      </trkpt>
      <trkpt lat="45.05155" lon="4.98013">
        <ele>154.42900085449</ele>
        <time>2009-05-20T13:11:51Z</time>
      </trkpt>
      <trkpt lat="45.05159" lon="4.98002">
        <ele>153.94799804688</ele>
        <time>2009-05-20T13:11:52Z</time>
      </trkpt>
      <trkpt lat="45.05172" lon="4.97969">
        <ele>153.46800231934</ele>
        <time>2009-05-20T13:11:55Z</time>
      </trkpt>
      <trkpt lat="45.05185" lon="4.97936">
        <ele>153.94799804688</ele>
        <time>2009-05-20T13:11:58Z</time>
      </trkpt>
      <trkpt lat="45.05198" lon="4.97903">
        <ele>153.94799804688</ele>
        <time>2009-05-20T13:12:01Z</time>
      </trkpt>
      <trkpt lat="45.0521" lon="4.97871">
        <ele>153.46800231934</ele>
        <time>2009-05-20T13:12:04Z</time>
      </trkpt>
      <trkpt lat="45.05223" lon="4.97839">
        <ele>154.42900085449</ele>
        <time>2009-05-20T13:12:07Z</time>
      </trkpt>
      <trkpt lat="45.05236" lon="4.97807">
        <ele>153.94799804688</ele>
        <time>2009-05-20T13:12:10Z</time>
      </trkpt>
      <trkpt lat="45.05249" lon="4.97777">
        <ele>153.94799804688</ele>
        <time>2009-05-20T13:12:13Z</time>
      </trkpt>
      <trkpt lat="45.05263" lon="4.97747">
        <ele>153.46800231934</ele>
        <time>2009-05-20T13:12:16Z</time>
      </trkpt>
      <trkpt lat="45.05278" lon="4.97717">
        <ele>153.46800231934</ele>
        <time>2009-05-20T13:12:19Z</time>
      </trkpt>
      <trkpt lat="45.05292" lon="4.97689">
        <ele>153.46800231934</ele>
        <time>2009-05-20T13:12:22Z</time>
      </trkpt>
      <trkpt lat="45.05305" lon="4.97661">
        <ele>153.94799804688</ele>
        <time>2009-05-20T13:12:25Z</time>
      </trkpt>
      <trkpt lat="45.05318" lon="4.97633">
        <ele>153.94799804688</ele>
        <time>2009-05-20T13:12:28Z</time>
      </trkpt>
      <trkpt lat="45.05331" lon="4.97605">
        <ele>153.94799804688</ele>
        <time>2009-05-20T13:12:31Z</time>
      </trkpt>
      <trkpt lat="45.05342" lon="4.97575">
        <ele>153.94799804688</ele>
        <time>2009-05-20T13:12:34Z</time>
      </trkpt>
      <trkpt lat="45.05354" lon="4.97544">
        <ele>152.98699951172</ele>
        <time>2009-05-20T13:12:37Z</time>
      </trkpt>
      <trkpt lat="45.05366" lon="4.97513">
        <ele>152.98699951172</ele>
        <time>2009-05-20T13:12:40Z</time>
      </trkpt>
      <trkpt lat="45.05376" lon="4.97481">
        <ele>152.5059967041</ele>
        <time>2009-05-20T13:12:43Z</time>
      </trkpt>
      <trkpt lat="45.05385" lon="4.9745">
        <ele>152.5059967041</ele>
        <time>2009-05-20T13:12:46Z</time>
      </trkpt>
      <trkpt lat="45.05393" lon="4.97418">
        <ele>152.98699951172</ele>
        <time>2009-05-20T13:12:49Z</time>
      </trkpt>
      <trkpt lat="45.054" lon="4.97386">
        <ele>152.98699951172</ele>
        <time>2009-05-20T13:12:52Z</time>
      </trkpt>
      <trkpt lat="45.05407" lon="4.97353">
        <ele>152.98699951172</ele>
        <time>2009-05-20T13:12:55Z</time>
      </trkpt>
      <trkpt lat="45.05413" lon="4.97319">
        <ele>153.46800231934</ele>
        <time>2009-05-20T13:12:58Z</time>
      </trkpt>
      <trkpt lat="45.05419" lon="4.97286">
        <ele>152.5059967041</ele>
        <time>2009-05-20T13:13:01Z</time>
      </trkpt>
      <trkpt lat="45.05424" lon="4.97253">
        <ele>152.98699951172</ele>
        <time>2009-05-20T13:13:04Z</time>
      </trkpt>
      <trkpt lat="45.05428" lon="4.97222">
        <ele>152.5059967041</ele>
        <time>2009-05-20T13:13:07Z</time>
      </trkpt>
      <trkpt lat="45.0543" lon="4.97191">
        <ele>152.98699951172</ele>
        <time>2009-05-20T13:13:10Z</time>
      </trkpt>
      <trkpt lat="45.05432" lon="4.9716">
        <ele>153.46800231934</ele>
        <time>2009-05-20T13:13:13Z</time>
      </trkpt>
      <trkpt lat="45.05434" lon="4.9713">
        <ele>152.98699951172</ele>
        <time>2009-05-20T13:13:16Z</time>
      </trkpt>
      <trkpt lat="45.05436" lon="4.971">
        <ele>152.98699951172</ele>
        <time>2009-05-20T13:13:19Z</time>
      </trkpt>
      <trkpt lat="45.05438" lon="4.97072">
        <ele>152.98699951172</ele>
        <time>2009-05-20T13:13:22Z</time>
      </trkpt>
      <trkpt lat="45.05439" lon="4.97043">
        <ele>153.94799804688</ele>
        <time>2009-05-20T13:13:25Z</time>
      </trkpt>
      <trkpt lat="45.05442" lon="4.97014">
        <ele>153.46800231934</ele>
        <time>2009-05-20T13:13:28Z</time>
      </trkpt>
      <trkpt lat="45.05444" lon="4.96986">
        <ele>153.46800231934</ele>
        <time>2009-05-20T13:13:31Z</time>
      </trkpt>
      <trkpt lat="45.05445" lon="4.96957">
        <ele>153.94799804688</ele>
        <time>2009-05-20T13:13:34Z</time>
      </trkpt>
      <trkpt lat="45.05448" lon="4.96928">
        <ele>154.42900085449</ele>
        <time>2009-05-20T13:13:37Z</time>
      </trkpt>
      <trkpt lat="45.0545" lon="4.96899">
        <ele>153.94799804688</ele>
        <time>2009-05-20T13:13:40Z</time>
      </trkpt>
      <trkpt lat="45.05452" lon="4.96871">
        <ele>153.94799804688</ele>
        <time>2009-05-20T13:13:43Z</time>
      </trkpt>
      <trkpt lat="45.05454" lon="4.96842">
        <ele>153.94799804688</ele>
        <time>2009-05-20T13:13:46Z</time>
      </trkpt>
      <trkpt lat="45.05456" lon="4.96814">
        <ele>154.42900085449</ele>
        <time>2009-05-20T13:13:49Z</time>
      </trkpt>
      <trkpt lat="45.05458" lon="4.96785">
        <ele>154.42900085449</ele>
        <time>2009-05-20T13:13:52Z</time>
      </trkpt>
      <trkpt lat="45.0546" lon="4.96758">
        <ele>154.42900085449</ele>
        <time>2009-05-20T13:13:55Z</time>
      </trkpt>
      <trkpt lat="45.0546" lon="4.96729">
        <ele>154.91000366211</ele>
        <time>2009-05-20T13:13:58Z</time>
      </trkpt>
      <trkpt lat="45.0546" lon="4.96701">
        <ele>154.91000366211</ele>
        <time>2009-05-20T13:14:01Z</time>
      </trkpt>
      <trkpt lat="45.05458" lon="4.96672">
        <ele>154.91000366211</ele>
        <time>2009-05-20T13:14:04Z</time>
      </trkpt>
      <trkpt lat="45.05455" lon="4.96643">
        <ele>154.91000366211</ele>
        <time>2009-05-20T13:14:07Z</time>
      </trkpt>
      <trkpt lat="45.05452" lon="4.96613">
        <ele>154.91000366211</ele>
        <time>2009-05-20T13:14:10Z</time>
      </trkpt>
      <trkpt lat="45.05449" lon="4.96583">
        <ele>154.42900085449</ele>
        <time>2009-05-20T13:14:13Z</time>
      </trkpt>
      <trkpt lat="45.05445" lon="4.96552">
        <ele>154.42900085449</ele>
        <time>2009-05-20T13:14:16Z</time>
      </trkpt>
      <trkpt lat="45.05442" lon="4.96522">
        <ele>153.94799804688</ele>
        <time>2009-05-20T13:14:19Z</time>
      </trkpt>
      <trkpt lat="45.05439" lon="4.96492">
        <ele>153.94799804688</ele>
        <time>2009-05-20T13:14:22Z</time>
      </trkpt>
      <trkpt lat="45.05436" lon="4.96462">
        <ele>153.94799804688</ele>
        <time>2009-05-20T13:14:25Z</time>
      </trkpt>
      <trkpt lat="45.05434" lon="4.96434">
        <ele>153.46800231934</ele>
        <time>2009-05-20T13:14:28Z</time>
      </trkpt>
      <trkpt lat="45.05434" lon="4.96425">
        <ele>152.98699951172</ele>
        <time>2009-05-20T13:14:29Z</time>
      </trkpt>
      <trkpt lat="45.05436" lon="4.96406">
        <ele>152.02600097656</ele>
        <time>2009-05-20T13:14:31Z</time>
      </trkpt>
      <trkpt lat="45.05444" lon="4.96389">
        <ele>153.46800231934</ele>
        <time>2009-05-20T13:14:33Z</time>
      </trkpt>
      <trkpt lat="45.05462" lon="4.96369">
        <ele>153.94799804688</ele>
        <time>2009-05-20T13:14:36Z</time>
      </trkpt>
      <trkpt lat="45.05484" lon="4.96363">
        <ele>154.91000366211</ele>
        <time>2009-05-20T13:14:39Z</time>
      </trkpt>
      <trkpt lat="45.05491" lon="4.96362">
        <ele>154.91000366211</ele>
        <time>2009-05-20T13:14:40Z</time>
      </trkpt>
      <trkpt lat="45.05521" lon="4.96361">
        <ele>155.38999938965</ele>
        <time>2009-05-20T13:14:44Z</time>
      </trkpt>
      <trkpt lat="45.05544" lon="4.9636">
        <ele>155.38999938965</ele>
        <time>2009-05-20T13:14:47Z</time>
      </trkpt>
      <trkpt lat="45.05567" lon="4.96359">
        <ele>155.38999938965</ele>
        <time>2009-05-20T13:14:50Z</time>
      </trkpt>
      <trkpt lat="45.0559" lon="4.96359">
        <ele>155.87100219727</ele>
        <time>2009-05-20T13:14:53Z</time>
      </trkpt>
      <trkpt lat="45.05614" lon="4.96361">
        <ele>155.87100219727</ele>
        <time>2009-05-20T13:14:56Z</time>
      </trkpt>
      <trkpt lat="45.05638" lon="4.96362">
        <ele>155.87100219727</ele>
        <time>2009-05-20T13:14:59Z</time>
      </trkpt>
      <trkpt lat="45.05663" lon="4.96364">
        <ele>155.87100219727</ele>
        <time>2009-05-20T13:15:02Z</time>
      </trkpt>
      <trkpt lat="45.05686" lon="4.96368">
        <ele>156.83200073242</ele>
        <time>2009-05-20T13:15:05Z</time>
      </trkpt>
      <trkpt lat="45.05709" lon="4.96373">
        <ele>156.83200073242</ele>
        <time>2009-05-20T13:15:08Z</time>
      </trkpt>
      <trkpt lat="45.05732" lon="4.96379">
        <ele>157.31300354004</ele>
        <time>2009-05-20T13:15:11Z</time>
      </trkpt>
      <trkpt lat="45.05753" lon="4.96384">
        <ele>157.79400634766</ele>
        <time>2009-05-20T13:15:14Z</time>
      </trkpt>
      <trkpt lat="45.05774" lon="4.9639">
        <ele>158.27400207519</ele>
        <time>2009-05-20T13:15:17Z</time>
      </trkpt>
      <trkpt lat="45.05794" lon="4.96396">
        <ele>159.23500061035</ele>
        <time>2009-05-20T13:15:20Z</time>
      </trkpt>
      <trkpt lat="45.05814" lon="4.96401">
        <ele>159.71600341797</ele>
        <time>2009-05-20T13:15:23Z</time>
      </trkpt>
      <trkpt lat="45.05834" lon="4.96407">
        <ele>159.71600341797</ele>
        <time>2009-05-20T13:15:26Z</time>
      </trkpt>
      <trkpt lat="45.05854" lon="4.96412">
        <ele>160.67700195312</ele>
        <time>2009-05-20T13:15:29Z</time>
      </trkpt>
      <trkpt lat="45.05874" lon="4.96418">
        <ele>161.15800476074</ele>
        <time>2009-05-20T13:15:32Z</time>
      </trkpt>
      <trkpt lat="45.05894" lon="4.96423">
        <ele>161.15800476074</ele>
        <time>2009-05-20T13:15:35Z</time>
      </trkpt>
      <trkpt lat="45.05914" lon="4.96429">
        <ele>162.11999511719</ele>
        <time>2009-05-20T13:15:38Z</time>
      </trkpt>
      <trkpt lat="45.05935" lon="4.96435">
        <ele>162.11999511719</ele>
        <time>2009-05-20T13:15:41Z</time>
      </trkpt>
      <trkpt lat="45.05956" lon="4.9644">
        <ele>162.11999511719</ele>
        <time>2009-05-20T13:15:44Z</time>
      </trkpt>
      <trkpt lat="45.05977" lon="4.96446">
        <ele>162.11999511719</ele>
        <time>2009-05-20T13:15:47Z</time>
      </trkpt>
      <trkpt lat="45.06" lon="4.9645">
        <ele>162.11999511719</ele>
        <time>2009-05-20T13:15:50Z</time>
      </trkpt>
      <trkpt lat="45.06023" lon="4.96451">
        <ele>162.60000610352</ele>
        <time>2009-05-20T13:15:53Z</time>
      </trkpt>
      <trkpt lat="45.06047" lon="4.9645">
        <ele>162.60000610352</ele>
        <time>2009-05-20T13:15:56Z</time>
      </trkpt>
      <trkpt lat="45.06071" lon="4.96447">
        <ele>162.60000610352</ele>
        <time>2009-05-20T13:15:59Z</time>
      </trkpt>
      <trkpt lat="45.06097" lon="4.96444">
        <ele>162.60000610352</ele>
        <time>2009-05-20T13:16:02Z</time>
      </trkpt>
      <trkpt lat="45.06121" lon="4.96441">
        <ele>162.60000610352</ele>
        <time>2009-05-20T13:16:05Z</time>
      </trkpt>
      <trkpt lat="45.06145" lon="4.96435">
        <ele>163.08099365234</ele>
        <time>2009-05-20T13:16:08Z</time>
      </trkpt>
      <trkpt lat="45.06169" lon="4.96428">
        <ele>163.08099365234</ele>
        <time>2009-05-20T13:16:11Z</time>
      </trkpt>
      <trkpt lat="45.06191" lon="4.96421">
        <ele>163.08099365234</ele>
        <time>2009-05-20T13:16:14Z</time>
      </trkpt>
      <trkpt lat="45.06212" lon="4.96413">
        <ele>163.56199645996</ele>
        <time>2009-05-20T13:16:17Z</time>
      </trkpt>
      <trkpt lat="45.06235" lon="4.96401">
        <ele>163.56199645996</ele>
        <time>2009-05-20T13:16:20Z</time>
      </trkpt>
      <trkpt lat="45.06258" lon="4.96391">
        <ele>163.08099365234</ele>
        <time>2009-05-20T13:16:23Z</time>
      </trkpt>
      <trkpt lat="45.06282" lon="4.96382">
        <ele>162.60000610352</ele>
        <time>2009-05-20T13:16:26Z</time>
      </trkpt>
      <trkpt lat="45.06308" lon="4.96376">
        <ele>162.11999511719</ele>
        <time>2009-05-20T13:16:29Z</time>
      </trkpt>
      <trkpt lat="45.06334" lon="4.96373">
        <ele>162.11999511719</ele>
        <time>2009-05-20T13:16:32Z</time>
      </trkpt>
      <trkpt lat="45.0636" lon="4.96372">
        <ele>162.11999511719</ele>
        <time>2009-05-20T13:16:35Z</time>
      </trkpt>
      <trkpt lat="45.06385" lon="4.96371">
        <ele>160.67700195312</ele>
        <time>2009-05-20T13:16:38Z</time>
      </trkpt>
      <trkpt lat="45.06412" lon="4.96371">
        <ele>159.71600341797</ele>
        <time>2009-05-20T13:16:41Z</time>
      </trkpt>
      <trkpt lat="45.06438" lon="4.9637">
        <ele>159.23500061035</ele>
        <time>2009-05-20T13:16:44Z</time>
      </trkpt>
      <trkpt lat="45.06465" lon="4.96369">
        <ele>158.27400207519</ele>
        <time>2009-05-20T13:16:47Z</time>
      </trkpt>
      <trkpt lat="45.06491" lon="4.96368">
        <ele>158.27400207519</ele>
        <time>2009-05-20T13:16:50Z</time>
      </trkpt>
      <trkpt lat="45.06517" lon="4.96364">
        <ele>158.27400207519</ele>
        <time>2009-05-20T13:16:53Z</time>
      </trkpt>
      <trkpt lat="45.06542" lon="4.96356">
        <ele>157.31300354004</ele>
        <time>2009-05-20T13:16:56Z</time>
      </trkpt>
      <trkpt lat="45.06567" lon="4.96345">
        <ele>156.83200073242</ele>
        <time>2009-05-20T13:16:59Z</time>
      </trkpt>
      <trkpt lat="45.06591" lon="4.96332">
        <ele>156.83200073242</ele>
        <time>2009-05-20T13:17:02Z</time>
      </trkpt>
      <trkpt lat="45.06616" lon="4.96317">
        <ele>156.35200500488</ele>
        <time>2009-05-20T13:17:05Z</time>
      </trkpt>
      <trkpt lat="45.0664" lon="4.96302">
        <ele>155.87100219727</ele>
        <time>2009-05-20T13:17:08Z</time>
      </trkpt>
      <trkpt lat="45.06664" lon="4.96286">
        <ele>156.35200500488</ele>
        <time>2009-05-20T13:17:11Z</time>
      </trkpt>
      <trkpt lat="45.06688" lon="4.96272">
        <ele>156.35200500488</ele>
        <time>2009-05-20T13:17:14Z</time>
      </trkpt>
      <trkpt lat="45.06712" lon="4.96262">
        <ele>156.83200073242</ele>
        <time>2009-05-20T13:17:17Z</time>
      </trkpt>
      <trkpt lat="45.06735" lon="4.96252">
        <ele>156.83200073242</ele>
        <time>2009-05-20T13:17:20Z</time>
      </trkpt>
      <trkpt lat="45.06758" lon="4.96243">
        <ele>157.31300354004</ele>
        <time>2009-05-20T13:17:23Z</time>
      </trkpt>
      <trkpt lat="45.06781" lon="4.96232">
        <ele>157.31300354004</ele>
        <time>2009-05-20T13:17:26Z</time>
      </trkpt>
      <trkpt lat="45.06801" lon="4.96218">
        <ele>157.31300354004</ele>
        <time>2009-05-20T13:17:29Z</time>
      </trkpt>
      <trkpt lat="45.06824" lon="4.96189">
        <ele>157.79400634766</ele>
        <time>2009-05-20T13:17:33Z</time>
      </trkpt>
      <trkpt lat="45.06834" lon="4.96172">
        <ele>157.31300354004</ele>
        <time>2009-05-20T13:17:35Z</time>
      </trkpt>
      <trkpt lat="45.06854" lon="4.96136">
        <ele>156.35200500488</ele>
        <time>2009-05-20T13:17:39Z</time>
      </trkpt>
      <trkpt lat="45.0687" lon="4.96108">
        <ele>156.35200500488</ele>
        <time>2009-05-20T13:17:42Z</time>
      </trkpt>
      <trkpt lat="45.06888" lon="4.96081">
        <ele>156.35200500488</ele>
        <time>2009-05-20T13:17:45Z</time>
      </trkpt>
      <trkpt lat="45.06908" lon="4.96058">
        <ele>155.87100219727</ele>
        <time>2009-05-20T13:17:48Z</time>
      </trkpt>
      <trkpt lat="45.06931" lon="4.96038">
        <ele>155.87100219727</ele>
        <time>2009-05-20T13:17:51Z</time>
      </trkpt>
      <trkpt lat="45.06954" lon="4.96022">
        <ele>155.87100219727</ele>
        <time>2009-05-20T13:17:54Z</time>
      </trkpt>
      <trkpt lat="45.06977" lon="4.96007">
        <ele>156.35200500488</ele>
        <time>2009-05-20T13:17:57Z</time>
      </trkpt>
      <trkpt lat="45.07" lon="4.95992">
        <ele>156.35200500488</ele>
        <time>2009-05-20T13:18:00Z</time>
      </trkpt>
      <trkpt lat="45.07023" lon="4.95976">
        <ele>156.35200500488</ele>
        <time>2009-05-20T13:18:03Z</time>
      </trkpt>
      <trkpt lat="45.07046" lon="4.95961">
        <ele>155.87100219727</ele>
        <time>2009-05-20T13:18:06Z</time>
      </trkpt>
      <trkpt lat="45.07068" lon="4.95945">
        <ele>156.35200500488</ele>
        <time>2009-05-20T13:18:09Z</time>
      </trkpt>
      <trkpt lat="45.07095" lon="4.95921">
        <ele>155.87100219727</ele>
        <time>2009-05-20T13:18:13Z</time>
      </trkpt>
      <trkpt lat="45.07115" lon="4.95902">
        <ele>156.35200500488</ele>
        <time>2009-05-20T13:18:16Z</time>
      </trkpt>
      <trkpt lat="45.07135" lon="4.95884">
        <ele>156.83200073242</ele>
        <time>2009-05-20T13:18:19Z</time>
      </trkpt>
      <trkpt lat="45.07157" lon="4.9587">
        <ele>157.31300354004</ele>
        <time>2009-05-20T13:18:22Z</time>
      </trkpt>
      <trkpt lat="45.0718" lon="4.95861">
        <ele>156.83200073242</ele>
        <time>2009-05-20T13:18:25Z</time>
      </trkpt>
      <trkpt lat="45.07203" lon="4.95852">
        <ele>157.31300354004</ele>
        <time>2009-05-20T13:18:28Z</time>
      </trkpt>
      <trkpt lat="45.07227" lon="4.95845">
        <ele>157.31300354004</ele>
        <time>2009-05-20T13:18:31Z</time>
      </trkpt>
      <trkpt lat="45.07251" lon="4.95843">
        <ele>157.31300354004</ele>
        <time>2009-05-20T13:18:34Z</time>
      </trkpt>
      <trkpt lat="45.07275" lon="4.95846">
        <ele>158.27400207519</ele>
        <time>2009-05-20T13:18:37Z</time>
      </trkpt>
      <trkpt lat="45.07298" lon="4.95851">
        <ele>158.75500488281</ele>
        <time>2009-05-20T13:18:40Z</time>
      </trkpt>
      <trkpt lat="45.0732" lon="4.95857">
        <ele>159.23500061035</ele>
        <time>2009-05-20T13:18:43Z</time>
      </trkpt>
      <trkpt lat="45.07342" lon="4.95862">
        <ele>159.71600341797</ele>
        <time>2009-05-20T13:18:46Z</time>
      </trkpt>
      <trkpt lat="45.07364" lon="4.95865">
        <ele>160.19700622559</ele>
        <time>2009-05-20T13:18:49Z</time>
      </trkpt>
      <trkpt lat="45.07385" lon="4.95867">
        <ele>161.15800476074</ele>
        <time>2009-05-20T13:18:52Z</time>
      </trkpt>
      <trkpt lat="45.07407" lon="4.95868">
        <ele>161.15800476074</ele>
        <time>2009-05-20T13:18:55Z</time>
      </trkpt>
      <trkpt lat="45.07428" lon="4.95867">
        <ele>161.15800476074</ele>
        <time>2009-05-20T13:18:58Z</time>
      </trkpt>
      <trkpt lat="45.07449" lon="4.95864">
        <ele>161.63900756836</ele>
        <time>2009-05-20T13:19:01Z</time>
      </trkpt>
      <trkpt lat="45.07469" lon="4.95861">
        <ele>162.11999511719</ele>
        <time>2009-05-20T13:19:04Z</time>
      </trkpt>
      <trkpt lat="45.07489" lon="4.95857">
        <ele>162.11999511719</ele>
        <time>2009-05-20T13:19:07Z</time>
      </trkpt>
      <trkpt lat="45.07511" lon="4.95853">
        <ele>161.63900756836</ele>
        <time>2009-05-20T13:19:10Z</time>
      </trkpt>
      <trkpt lat="45.07532" lon="4.95849">
        <ele>161.63900756836</ele>
        <time>2009-05-20T13:19:13Z</time>
      </trkpt>
      <trkpt lat="45.07553" lon="4.95846">
        <ele>161.63900756836</ele>
        <time>2009-05-20T13:19:16Z</time>
      </trkpt>
      <trkpt lat="45.0756" lon="4.95845">
        <ele>161.63900756836</ele>
        <time>2009-05-20T13:19:17Z</time>
      </trkpt>
      <trkpt lat="45.0758" lon="4.9584">
        <ele>161.63900756836</ele>
        <time>2009-05-20T13:19:20Z</time>
      </trkpt>
      <trkpt lat="45.07607" lon="4.95836">
        <ele>162.11999511719</ele>
        <time>2009-05-20T13:19:24Z</time>
      </trkpt>
      <trkpt lat="45.07627" lon="4.95834">
        <ele>161.63900756836</ele>
        <time>2009-05-20T13:19:27Z</time>
      </trkpt>
      <trkpt lat="45.07634" lon="4.95834">
        <ele>161.63900756836</ele>
        <time>2009-05-20T13:19:28Z</time>
      </trkpt>
      <trkpt lat="45.0766" lon="4.9584">
        <ele>161.63900756836</ele>
        <time>2009-05-20T13:19:32Z</time>
      </trkpt>
      <trkpt lat="45.07677" lon="4.95842">
        <ele>161.63900756836</ele>
        <time>2009-05-20T13:19:35Z</time>
      </trkpt>
      <trkpt lat="45.07692" lon="4.95838">
        <ele>161.63900756836</ele>
        <time>2009-05-20T13:19:38Z</time>
      </trkpt>
      <trkpt lat="45.07704" lon="4.9584">
        <ele>161.63900756836</ele>
        <time>2009-05-20T13:19:40Z</time>
      </trkpt>
      <trkpt lat="45.07729" lon="4.95838">
        <ele>162.11999511719</ele>
        <time>2009-05-20T13:19:44Z</time>
      </trkpt>
      <trkpt lat="45.07749" lon="4.95821">
        <ele>162.11999511719</ele>
        <time>2009-05-20T13:19:47Z</time>
      </trkpt>
      <trkpt lat="45.07779" lon="4.95832">
        <ele>162.11999511719</ele>
        <time>2009-05-20T13:19:51Z</time>
      </trkpt>
      <trkpt lat="45.078" lon="4.95835">
        <ele>162.11999511719</ele>
        <time>2009-05-20T13:19:54Z</time>
      </trkpt>
      <trkpt lat="45.0782" lon="4.95837">
        <ele>162.60000610352</ele>
        <time>2009-05-20T13:19:57Z</time>
      </trkpt>
      <trkpt lat="45.0784" lon="4.9584">
        <ele>162.60000610352</ele>
        <time>2009-05-20T13:20:00Z</time>
      </trkpt>
      <trkpt lat="45.07864" lon="4.95845">
        <ele>162.60000610352</ele>
        <time>2009-05-20T13:20:03Z</time>
      </trkpt>
      <trkpt lat="45.07883" lon="4.95851">
        <ele>163.08099365234</ele>
        <time>2009-05-20T13:20:06Z</time>
      </trkpt>
      <trkpt lat="45.07903" lon="4.95856">
        <ele>162.60000610352</ele>
        <time>2009-05-20T13:20:09Z</time>
      </trkpt>
      <trkpt lat="45.07921" lon="4.9586">
        <ele>162.60000610352</ele>
        <time>2009-05-20T13:20:12Z</time>
      </trkpt>
      <trkpt lat="45.07942" lon="4.95863">
        <ele>163.08099365234</ele>
        <time>2009-05-20T13:20:15Z</time>
      </trkpt>
      <trkpt lat="45.07963" lon="4.95866">
        <ele>163.08099365234</ele>
        <time>2009-05-20T13:20:18Z</time>
      </trkpt>
      <trkpt lat="45.07983" lon="4.95868">
        <ele>164.04200744629</ele>
        <time>2009-05-20T13:20:21Z</time>
      </trkpt>
      <trkpt lat="45.07988" lon="4.95862">
        <ele>164.04200744629</ele>
        <time>2009-05-20T13:20:22Z</time>
      </trkpt>
      <trkpt lat="45.08007" lon="4.95848">
        <ele>164.04200744629</ele>
        <time>2009-05-20T13:20:26Z</time>
      </trkpt>
      <trkpt lat="45.08012" lon="4.95825">
        <ele>164.52299499512</ele>
        <time>2009-05-20T13:20:29Z</time>
      </trkpt>
      <trkpt lat="45.08012" lon="4.9581">
        <ele>164.52299499512</ele>
        <time>2009-05-20T13:20:31Z</time>
      </trkpt>
      <trkpt lat="45.08012" lon="4.95792">
        <ele>164.52299499512</ele>
        <time>2009-05-20T13:20:33Z</time>
      </trkpt>
      <trkpt lat="45.08012" lon="4.95756">
        <ele>165.96499633789</ele>
        <time>2009-05-20T13:20:37Z</time>
      </trkpt>
      <trkpt lat="45.08011" lon="4.95731">
        <ele>165.96499633789</ele>
        <time>2009-05-20T13:20:40Z</time>
      </trkpt>
      <trkpt lat="45.08012" lon="4.95707">
        <ele>165.96499633789</ele>
        <time>2009-05-20T13:20:43Z</time>
      </trkpt>
      <trkpt lat="45.08012" lon="4.95699">
        <ele>165.96499633789</ele>
        <time>2009-05-20T13:20:44Z</time>
      </trkpt>
      <trkpt lat="45.08014" lon="4.95672">
        <ele>165.48399353027</ele>
        <time>2009-05-20T13:20:47Z</time>
      </trkpt>
      <trkpt lat="45.08018" lon="4.95644">
        <ele>165.00300598144</ele>
        <time>2009-05-20T13:20:50Z</time>
      </trkpt>
      <trkpt lat="45.08029" lon="4.95606">
        <ele>165.00300598144</ele>
        <time>2009-05-20T13:20:54Z</time>
      </trkpt>
      <trkpt lat="45.08038" lon="4.95577">
        <ele>164.04200744629</ele>
        <time>2009-05-20T13:20:57Z</time>
      </trkpt>
      <trkpt lat="45.08049" lon="4.95548">
        <ele>164.04200744629</ele>
        <time>2009-05-20T13:21:00Z</time>
      </trkpt>
      <trkpt lat="45.08059" lon="4.95518">
        <ele>164.04200744629</ele>
        <time>2009-05-20T13:21:03Z</time>
      </trkpt>
      <trkpt lat="45.08082" lon="4.95489">
        <ele>164.04200744629</ele>
        <time>2009-05-20T13:21:07Z</time>
      </trkpt>
      <trkpt lat="45.08111" lon="4.95468">
        <ele>163.56199645996</ele>
        <time>2009-05-20T13:21:11Z</time>
      </trkpt>
      <trkpt lat="45.08132" lon="4.95452">
        <ele>163.08099365234</ele>
        <time>2009-05-20T13:21:14Z</time>
      </trkpt>
      <trkpt lat="45.08154" lon="4.95436">
        <ele>163.56199645996</ele>
        <time>2009-05-20T13:21:17Z</time>
      </trkpt>
      <trkpt lat="45.08175" lon="4.9542">
        <ele>163.08099365234</ele>
        <time>2009-05-20T13:21:20Z</time>
      </trkpt>
      <trkpt lat="45.08195" lon="4.95401">
        <ele>163.08099365234</ele>
        <time>2009-05-20T13:21:23Z</time>
      </trkpt>
      <trkpt lat="45.08212" lon="4.95378">
        <ele>163.56199645996</ele>
        <time>2009-05-20T13:21:26Z</time>
      </trkpt>
      <trkpt lat="45.08228" lon="4.95353">
        <ele>163.56199645996</ele>
        <time>2009-05-20T13:21:29Z</time>
      </trkpt>
      <trkpt lat="45.08245" lon="4.95329">
        <ele>163.56199645996</ele>
        <time>2009-05-20T13:21:32Z</time>
      </trkpt>
      <trkpt lat="45.08262" lon="4.95305">
        <ele>163.08099365234</ele>
        <time>2009-05-20T13:21:35Z</time>
      </trkpt>
      <trkpt lat="45.08281" lon="4.95285">
        <ele>163.56199645996</ele>
        <time>2009-05-20T13:21:38Z</time>
      </trkpt>
      <trkpt lat="45.08301" lon="4.95266">
        <ele>163.56199645996</ele>
        <time>2009-05-20T13:21:41Z</time>
      </trkpt>
      <trkpt lat="45.08322" lon="4.95248">
        <ele>163.56199645996</ele>
        <time>2009-05-20T13:21:44Z</time>
      </trkpt>
      <trkpt lat="45.08342" lon="4.95231">
        <ele>164.04200744629</ele>
        <time>2009-05-20T13:21:47Z</time>
      </trkpt>
      <trkpt lat="45.08364" lon="4.95216">
        <ele>164.04200744629</ele>
        <time>2009-05-20T13:21:50Z</time>
      </trkpt>
      <trkpt lat="45.08385" lon="4.95202">
        <ele>165.00300598144</ele>
        <time>2009-05-20T13:21:53Z</time>
      </trkpt>
      <trkpt lat="45.08406" lon="4.95189">
        <ele>165.00300598144</ele>
        <time>2009-05-20T13:21:56Z</time>
      </trkpt>
      <trkpt lat="45.08428" lon="4.95175">
        <ele>164.52299499512</ele>
        <time>2009-05-20T13:21:59Z</time>
      </trkpt>
      <trkpt lat="45.08449" lon="4.95162">
        <ele>164.52299499512</ele>
        <time>2009-05-20T13:22:02Z</time>
      </trkpt>
      <trkpt lat="45.0847" lon="4.95149">
        <ele>165.48399353027</ele>
        <time>2009-05-20T13:22:05Z</time>
      </trkpt>
      <trkpt lat="45.08492" lon="4.95135">
        <ele>164.52299499512</ele>
        <time>2009-05-20T13:22:08Z</time>
      </trkpt>
      <trkpt lat="45.08513" lon="4.95122">
        <ele>165.00300598144</ele>
        <time>2009-05-20T13:22:11Z</time>
      </trkpt>
      <trkpt lat="45.08535" lon="4.95108">
        <ele>165.00300598144</ele>
        <time>2009-05-20T13:22:14Z</time>
      </trkpt>
      <trkpt lat="45.08556" lon="4.95097">
        <ele>165.96499633789</ele>
        <time>2009-05-20T13:22:17Z</time>
      </trkpt>
      <trkpt lat="45.08578" lon="4.95087">
        <ele>165.96499633789</ele>
        <time>2009-05-20T13:22:20Z</time>
      </trkpt>
      <trkpt lat="45.086" lon="4.95078">
        <ele>166.44500732422</ele>
        <time>2009-05-20T13:22:23Z</time>
      </trkpt>
      <trkpt lat="45.08622" lon="4.9507">
        <ele>166.44500732422</ele>
        <time>2009-05-20T13:22:26Z</time>
      </trkpt>
      <trkpt lat="45.08644" lon="4.95062">
        <ele>166.92599487305</ele>
        <time>2009-05-20T13:22:29Z</time>
      </trkpt>
      <trkpt lat="45.08665" lon="4.95053">
        <ele>166.92599487305</ele>
        <time>2009-05-20T13:22:32Z</time>
      </trkpt>
      <trkpt lat="45.08688" lon="4.95045">
        <ele>166.92599487305</ele>
        <time>2009-05-20T13:22:35Z</time>
      </trkpt>
      <trkpt lat="45.08712" lon="4.95036">
        <ele>166.92599487305</ele>
        <time>2009-05-20T13:22:38Z</time>
      </trkpt>
      <trkpt lat="45.08736" lon="4.95026">
        <ele>166.92599487305</ele>
        <time>2009-05-20T13:22:41Z</time>
      </trkpt>
      <trkpt lat="45.08759" lon="4.95018">
        <ele>167.40699768066</ele>
        <time>2009-05-20T13:22:44Z</time>
      </trkpt>
      <trkpt lat="45.08782" lon="4.9501">
        <ele>167.8869934082</ele>
        <time>2009-05-20T13:22:47Z</time>
      </trkpt>
      <trkpt lat="45.08805" lon="4.95002">
        <ele>167.8869934082</ele>
        <time>2009-05-20T13:22:50Z</time>
      </trkpt>
      <trkpt lat="45.08828" lon="4.94993">
        <ele>167.8869934082</ele>
        <time>2009-05-20T13:22:53Z</time>
      </trkpt>
      <trkpt lat="45.0885" lon="4.94985">
        <ele>168.36799621582</ele>
        <time>2009-05-20T13:22:56Z</time>
      </trkpt>
      <trkpt lat="45.08872" lon="4.94976">
        <ele>168.84899902344</ele>
        <time>2009-05-20T13:22:59Z</time>
      </trkpt>
      <trkpt lat="45.08894" lon="4.94968">
        <ele>169.32899475098</ele>
        <time>2009-05-20T13:23:02Z</time>
      </trkpt>
      <trkpt lat="45.08916" lon="4.94961">
        <ele>168.84899902344</ele>
        <time>2009-05-20T13:23:05Z</time>
      </trkpt>
      <trkpt lat="45.08937" lon="4.94954">
        <ele>168.36799621582</ele>
        <time>2009-05-20T13:23:08Z</time>
      </trkpt>
      <trkpt lat="45.08959" lon="4.9495">
        <ele>168.84899902344</ele>
        <time>2009-05-20T13:23:11Z</time>
      </trkpt>
      <trkpt lat="45.0898" lon="4.94948">
        <ele>169.80999755859</ele>
        <time>2009-05-20T13:23:14Z</time>
      </trkpt>
      <trkpt lat="45.09001" lon="4.9495">
        <ele>170.29100036621</ele>
        <time>2009-05-20T13:23:17Z</time>
      </trkpt>
      <trkpt lat="45.09022" lon="4.94955">
        <ele>169.80999755859</ele>
        <time>2009-05-20T13:23:20Z</time>
      </trkpt>
      <trkpt lat="45.09043" lon="4.94963">
        <ele>169.80999755859</ele>
        <time>2009-05-20T13:23:23Z</time>
      </trkpt>
      <trkpt lat="45.09064" lon="4.94972">
        <ele>170.29100036621</ele>
        <time>2009-05-20T13:23:26Z</time>
      </trkpt>
      <trkpt lat="45.09085" lon="4.94983">
        <ele>170.77099609375</ele>
        <time>2009-05-20T13:23:29Z</time>
      </trkpt>
      <trkpt lat="45.09106" lon="4.94998">
        <ele>170.29100036621</ele>
        <time>2009-05-20T13:23:32Z</time>
      </trkpt>
      <trkpt lat="45.09126" lon="4.95014">
        <ele>171.25199890137</ele>
        <time>2009-05-20T13:23:35Z</time>
      </trkpt>
      <trkpt lat="45.09146" lon="4.95031">
        <ele>171.25199890137</ele>
        <time>2009-05-20T13:23:38Z</time>
      </trkpt>
      <trkpt lat="45.09165" lon="4.95049">
        <ele>171.25199890137</ele>
        <time>2009-05-20T13:23:41Z</time>
      </trkpt>
      <trkpt lat="45.09185" lon="4.95067">
        <ele>171.73300170898</ele>
        <time>2009-05-20T13:23:44Z</time>
      </trkpt>
      <trkpt lat="45.09205" lon="4.95084">
        <ele>171.73300170898</ele>
        <time>2009-05-20T13:23:47Z</time>
      </trkpt>
      <trkpt lat="45.09225" lon="4.95102">
        <ele>171.73300170898</ele>
        <time>2009-05-20T13:23:50Z</time>
      </trkpt>
      <trkpt lat="45.09246" lon="4.95119">
        <ele>171.73300170898</ele>
        <time>2009-05-20T13:23:53Z</time>
      </trkpt>
      <trkpt lat="45.09267" lon="4.95135">
        <ele>172.21299743652</ele>
        <time>2009-05-20T13:23:56Z</time>
      </trkpt>
      <trkpt lat="45.0929" lon="4.9515">
        <ele>172.21299743652</ele>
        <time>2009-05-20T13:23:59Z</time>
      </trkpt>
      <trkpt lat="45.09313" lon="4.95164">
        <ele>172.21299743652</ele>
        <time>2009-05-20T13:24:02Z</time>
      </trkpt>
      <trkpt lat="45.09337" lon="4.95177">
        <ele>172.69400024414</ele>
        <time>2009-05-20T13:24:05Z</time>
      </trkpt>
      <trkpt lat="45.09361" lon="4.95189">
        <ele>172.69400024414</ele>
        <time>2009-05-20T13:24:08Z</time>
      </trkpt>
      <trkpt lat="45.09385" lon="4.95201">
        <ele>172.69400024414</ele>
        <time>2009-05-20T13:24:11Z</time>
      </trkpt>
      <trkpt lat="45.0941" lon="4.95211">
        <ele>173.17500305176</ele>
        <time>2009-05-20T13:24:14Z</time>
      </trkpt>
      <trkpt lat="45.09435" lon="4.95219">
        <ele>173.17500305176</ele>
        <time>2009-05-20T13:24:17Z</time>
      </trkpt>
      <trkpt lat="45.09461" lon="4.95227">
        <ele>173.17500305176</ele>
        <time>2009-05-20T13:24:20Z</time>
      </trkpt>
      <trkpt lat="45.09487" lon="4.95234">
        <ele>174.13600158691</ele>
        <time>2009-05-20T13:24:23Z</time>
      </trkpt>
      <trkpt lat="45.09512" lon="4.95239">
        <ele>173.6549987793</ele>
        <time>2009-05-20T13:24:26Z</time>
      </trkpt>
      <trkpt lat="45.09537" lon="4.95242">
        <ele>174.13600158691</ele>
        <time>2009-05-20T13:24:29Z</time>
      </trkpt>
      <trkpt lat="45.09562" lon="4.95246">
        <ele>173.6549987793</ele>
        <time>2009-05-20T13:24:32Z</time>
      </trkpt>
      <trkpt lat="45.09586" lon="4.9525">
        <ele>174.61700439453</ele>
        <time>2009-05-20T13:24:35Z</time>
      </trkpt>
      <trkpt lat="45.0961" lon="4.95254">
        <ele>174.61700439453</ele>
        <time>2009-05-20T13:24:38Z</time>
      </trkpt>
      <trkpt lat="45.09634" lon="4.95258">
        <ele>174.61700439453</ele>
        <time>2009-05-20T13:24:41Z</time>
      </trkpt>
      <trkpt lat="45.09659" lon="4.95262">
        <ele>175.09700012207</ele>
        <time>2009-05-20T13:24:44Z</time>
      </trkpt>
      <trkpt lat="45.09684" lon="4.95266">
        <ele>175.09700012207</ele>
        <time>2009-05-20T13:24:47Z</time>
      </trkpt>
      <trkpt lat="45.09709" lon="4.95267">
        <ele>175.09700012207</ele>
        <time>2009-05-20T13:24:50Z</time>
      </trkpt>
      <trkpt lat="45.09735" lon="4.95266">
        <ele>174.61700439453</ele>
        <time>2009-05-20T13:24:53Z</time>
      </trkpt>
      <trkpt lat="45.0976" lon="4.95262">
        <ele>175.09700012207</ele>
        <time>2009-05-20T13:24:56Z</time>
      </trkpt>
      <trkpt lat="45.09785" lon="4.95255">
        <ele>175.09700012207</ele>
        <time>2009-05-20T13:24:59Z</time>
      </trkpt>
      <trkpt lat="45.09809" lon="4.95247">
        <ele>175.57800292969</ele>
        <time>2009-05-20T13:25:02Z</time>
      </trkpt>
      <trkpt lat="45.09832" lon="4.95238">
        <ele>175.57800292969</ele>
        <time>2009-05-20T13:25:05Z</time>
      </trkpt>
      <trkpt lat="45.09855" lon="4.95226">
        <ele>176.05900573731</ele>
        <time>2009-05-20T13:25:08Z</time>
      </trkpt>
      <trkpt lat="45.09879" lon="4.95213">
        <ele>175.57800292969</ele>
        <time>2009-05-20T13:25:11Z</time>
      </trkpt>
      <trkpt lat="45.09902" lon="4.95198">
        <ele>175.57800292969</ele>
        <time>2009-05-20T13:25:14Z</time>
      </trkpt>
      <trkpt lat="45.09925" lon="4.95185">
        <ele>176.05900573731</ele>
        <time>2009-05-20T13:25:17Z</time>
      </trkpt>
      <trkpt lat="45.09949" lon="4.95172">
        <ele>176.05900573731</ele>
        <time>2009-05-20T13:25:20Z</time>
      </trkpt>
      <trkpt lat="45.09974" lon="4.95161">
        <ele>176.53900146484</ele>
        <time>2009-05-20T13:25:23Z</time>
      </trkpt>
      <trkpt lat="45.09999" lon="4.95151">
        <ele>176.53900146484</ele>
        <time>2009-05-20T13:25:26Z</time>
      </trkpt>
      <trkpt lat="45.10024" lon="4.9514">
        <ele>177.02000427246</ele>
        <time>2009-05-20T13:25:29Z</time>
      </trkpt>
      <trkpt lat="45.10048" lon="4.95129">
        <ele>177.02000427246</ele>
        <time>2009-05-20T13:25:32Z</time>
      </trkpt>
      <trkpt lat="45.10071" lon="4.9512">
        <ele>177.02000427246</ele>
        <time>2009-05-20T13:25:35Z</time>
      </trkpt>
      <trkpt lat="45.10092" lon="4.95112">
        <ele>177.50100708008</ele>
        <time>2009-05-20T13:25:38Z</time>
      </trkpt>
      <trkpt lat="45.10114" lon="4.95106">
        <ele>178.46200561523</ele>
        <time>2009-05-20T13:25:41Z</time>
      </trkpt>
      <trkpt lat="45.10136" lon="4.951">
        <ele>178.46200561523</ele>
        <time>2009-05-20T13:25:44Z</time>
      </trkpt>
      <trkpt lat="45.10157" lon="4.95095">
        <ele>178.94299316406</ele>
        <time>2009-05-20T13:25:47Z</time>
      </trkpt>
      <trkpt lat="45.10178" lon="4.95089">
        <ele>179.42300415039</ele>
        <time>2009-05-20T13:25:50Z</time>
      </trkpt>
      <trkpt lat="45.10199" lon="4.95084">
        <ele>179.90400695801</ele>
        <time>2009-05-20T13:25:53Z</time>
      </trkpt>
      <trkpt lat="45.10219" lon="4.95078">
        <ele>180.86500549316</ele>
        <time>2009-05-20T13:25:56Z</time>
      </trkpt>
      <trkpt lat="45.10239" lon="4.95072">
        <ele>180.86500549316</ele>
        <time>2009-05-20T13:25:59Z</time>
      </trkpt>
      <trkpt lat="45.10258" lon="4.95067">
        <ele>180.86500549316</ele>
        <time>2009-05-20T13:26:02Z</time>
      </trkpt>
      <trkpt lat="45.10276" lon="4.95062">
        <ele>181.82600402832</ele>
        <time>2009-05-20T13:26:05Z</time>
      </trkpt>
      <trkpt lat="45.10295" lon="4.95056">
        <ele>182.30700683594</ele>
        <time>2009-05-20T13:26:08Z</time>
      </trkpt>
      <trkpt lat="45.10312" lon="4.95051">
        <ele>182.78799438477</ele>
        <time>2009-05-20T13:26:11Z</time>
      </trkpt>
      <trkpt lat="45.10329" lon="4.95047">
        <ele>182.78799438477</ele>
        <time>2009-05-20T13:26:14Z</time>
      </trkpt>
      <trkpt lat="45.10347" lon="4.95043">
        <ele>183.74899291992</ele>
        <time>2009-05-20T13:26:17Z</time>
      </trkpt>
      <trkpt lat="45.10364" lon="4.95041">
        <ele>184.71099853516</ele>
        <time>2009-05-20T13:26:20Z</time>
      </trkpt>
      <trkpt lat="45.10379" lon="4.95041">
        <ele>186.15199279785</ele>
        <time>2009-05-20T13:26:23Z</time>
      </trkpt>
      <trkpt lat="45.10398" lon="4.95044">
        <ele>187.59399414062</ele>
        <time>2009-05-20T13:26:27Z</time>
      </trkpt>
      <trkpt lat="45.10416" lon="4.95049">
        <ele>188.55599975586</ele>
        <time>2009-05-20T13:26:31Z</time>
      </trkpt>
      <trkpt lat="45.10424" lon="4.9505">
        <ele>189.0359954834</ele>
        <time>2009-05-20T13:26:33Z</time>
      </trkpt>
      <trkpt lat="45.10447" lon="4.95041">
        <ele>189.0359954834</ele>
        <time>2009-05-20T13:26:38Z</time>
      </trkpt>
      <trkpt lat="45.10452" lon="4.95037">
        <ele>189.51699829102</ele>
        <time>2009-05-20T13:26:39Z</time>
      </trkpt>
      <trkpt lat="45.10467" lon="4.95017">
        <ele>189.51699829102</ele>
        <time>2009-05-20T13:26:43Z</time>
      </trkpt>
      <trkpt lat="45.10487" lon="4.95005">
        <ele>190.47799682617</ele>
        <time>2009-05-20T13:26:47Z</time>
      </trkpt>
      <trkpt lat="45.10504" lon="4.95007">
        <ele>190.47799682617</ele>
        <time>2009-05-20T13:26:50Z</time>
      </trkpt>
      <trkpt lat="45.10528" lon="4.95013">
        <ele>190.95899963379</ele>
        <time>2009-05-20T13:26:54Z</time>
      </trkpt>
      <trkpt lat="45.10546" lon="4.95019">
        <ele>191.44000244141</ele>
        <time>2009-05-20T13:26:57Z</time>
      </trkpt>
      <trkpt lat="45.10565" lon="4.95026">
        <ele>191.44000244141</ele>
        <time>2009-05-20T13:27:00Z</time>
      </trkpt>
      <trkpt lat="45.10585" lon="4.95034">
        <ele>191.91999816894</ele>
        <time>2009-05-20T13:27:03Z</time>
      </trkpt>
      <trkpt lat="45.10604" lon="4.95043">
        <ele>191.91999816894</ele>
        <time>2009-05-20T13:27:06Z</time>
      </trkpt>
      <trkpt lat="45.10624" lon="4.95052">
        <ele>191.91999816894</ele>
        <time>2009-05-20T13:27:09Z</time>
      </trkpt>
      <trkpt lat="45.10645" lon="4.95062">
        <ele>191.44000244141</ele>
        <time>2009-05-20T13:27:12Z</time>
      </trkpt>
      <trkpt lat="45.10665" lon="4.95072">
        <ele>191.91999816894</ele>
        <time>2009-05-20T13:27:15Z</time>
      </trkpt>
      <trkpt lat="45.10685" lon="4.95083">
        <ele>192.40100097656</ele>
        <time>2009-05-20T13:27:18Z</time>
      </trkpt>
      <trkpt lat="45.10706" lon="4.95094">
        <ele>192.40100097656</ele>
        <time>2009-05-20T13:27:21Z</time>
      </trkpt>
      <trkpt lat="45.10725" lon="4.95106">
        <ele>192.88200378418</ele>
        <time>2009-05-20T13:27:24Z</time>
      </trkpt>
      <trkpt lat="45.10744" lon="4.9512">
        <ele>192.40100097656</ele>
        <time>2009-05-20T13:27:27Z</time>
      </trkpt>
      <trkpt lat="45.10763" lon="4.95137">
        <ele>192.88200378418</ele>
        <time>2009-05-20T13:27:30Z</time>
      </trkpt>
      <trkpt lat="45.1078" lon="4.95157">
        <ele>192.88200378418</ele>
        <time>2009-05-20T13:27:33Z</time>
      </trkpt>
      <trkpt lat="45.10798" lon="4.95177">
        <ele>193.36199951172</ele>
        <time>2009-05-20T13:27:36Z</time>
      </trkpt>
      <trkpt lat="45.10815" lon="4.95197">
        <ele>193.36199951172</ele>
        <time>2009-05-20T13:27:39Z</time>
      </trkpt>
      <trkpt lat="45.10833" lon="4.95218">
        <ele>193.36199951172</ele>
        <time>2009-05-20T13:27:42Z</time>
      </trkpt>
      <trkpt lat="45.10851" lon="4.95238">
        <ele>193.36199951172</ele>
        <time>2009-05-20T13:27:45Z</time>
      </trkpt>
      <trkpt lat="45.10869" lon="4.95259">
        <ele>192.88200378418</ele>
        <time>2009-05-20T13:27:48Z</time>
      </trkpt>
      <trkpt lat="45.10888" lon="4.95281">
        <ele>192.88200378418</ele>
        <time>2009-05-20T13:27:51Z</time>
      </trkpt>
      <trkpt lat="45.10905" lon="4.95305">
        <ele>193.36199951172</ele>
        <time>2009-05-20T13:27:54Z</time>
      </trkpt>
      <trkpt lat="45.1091" lon="4.95314">
        <ele>193.36199951172</ele>
        <time>2009-05-20T13:27:55Z</time>
      </trkpt>
      <trkpt lat="45.10926" lon="4.95353">
        <ele>193.36199951172</ele>
        <time>2009-05-20T13:27:59Z</time>
      </trkpt>
      <trkpt lat="45.10934" lon="4.95384">
        <ele>193.84300231934</ele>
        <time>2009-05-20T13:28:02Z</time>
      </trkpt>
      <trkpt lat="45.10942" lon="4.95415">
        <ele>193.36199951172</ele>
        <time>2009-05-20T13:28:05Z</time>
      </trkpt>
      <trkpt lat="45.10948" lon="4.95446">
        <ele>193.36199951172</ele>
        <time>2009-05-20T13:28:08Z</time>
      </trkpt>
      <trkpt lat="45.10955" lon="4.95475">
        <ele>193.36199951172</ele>
        <time>2009-05-20T13:28:11Z</time>
      </trkpt>
      <trkpt lat="45.10963" lon="4.95503">
        <ele>193.36199951172</ele>
        <time>2009-05-20T13:28:14Z</time>
      </trkpt>
      <trkpt lat="45.10973" lon="4.95528">
        <ele>193.84300231934</ele>
        <time>2009-05-20T13:28:17Z</time>
      </trkpt>
      <trkpt lat="45.10984" lon="4.95553">
        <ele>194.32400512695</ele>
        <time>2009-05-20T13:28:20Z</time>
      </trkpt>
      <trkpt lat="45.10997" lon="4.95576">
        <ele>194.80400085449</ele>
        <time>2009-05-20T13:28:23Z</time>
      </trkpt>
      <trkpt lat="45.11012" lon="4.95598">
        <ele>195.28500366211</ele>
        <time>2009-05-20T13:28:26Z</time>
      </trkpt>
      <trkpt lat="45.11027" lon="4.95619">
        <ele>195.76600646973</ele>
        <time>2009-05-20T13:28:29Z</time>
      </trkpt>
      <trkpt lat="45.11045" lon="4.95639">
        <ele>195.76600646973</ele>
        <time>2009-05-20T13:28:32Z</time>
      </trkpt>
      <trkpt lat="45.11064" lon="4.95658">
        <ele>195.76600646973</ele>
        <time>2009-05-20T13:28:35Z</time>
      </trkpt>
      <trkpt lat="45.11084" lon="4.95677">
        <ele>195.76600646973</ele>
        <time>2009-05-20T13:28:38Z</time>
      </trkpt>
      <trkpt lat="45.11103" lon="4.95698">
        <ele>195.28500366211</ele>
        <time>2009-05-20T13:28:41Z</time>
      </trkpt>
      <trkpt lat="45.1111" lon="4.95707">
        <ele>195.76600646973</ele>
        <time>2009-05-20T13:28:42Z</time>
      </trkpt>
      <trkpt lat="45.11132" lon="4.95747">
        <ele>194.80400085449</ele>
        <time>2009-05-20T13:28:46Z</time>
      </trkpt>
      <trkpt lat="45.11148" lon="4.95778">
        <ele>194.80400085449</ele>
        <time>2009-05-20T13:28:49Z</time>
      </trkpt>
      <trkpt lat="45.11166" lon="4.95809">
        <ele>194.32400512695</ele>
        <time>2009-05-20T13:28:52Z</time>
      </trkpt>
      <trkpt lat="45.11185" lon="4.95838">
        <ele>193.84300231934</ele>
        <time>2009-05-20T13:28:55Z</time>
      </trkpt>
      <trkpt lat="45.11206" lon="4.95868">
        <ele>194.32400512695</ele>
        <time>2009-05-20T13:28:58Z</time>
      </trkpt>
      <trkpt lat="45.11227" lon="4.95898">
        <ele>193.84300231934</ele>
        <time>2009-05-20T13:29:01Z</time>
      </trkpt>
      <trkpt lat="45.11248" lon="4.95928">
        <ele>194.80400085449</ele>
        <time>2009-05-20T13:29:04Z</time>
      </trkpt>
      <trkpt lat="45.11267" lon="4.9596">
        <ele>195.28500366211</ele>
        <time>2009-05-20T13:29:07Z</time>
      </trkpt>
      <trkpt lat="45.11285" lon="4.95992">
        <ele>196.24600219727</ele>
        <time>2009-05-20T13:29:10Z</time>
      </trkpt>
      <trkpt lat="45.11303" lon="4.96024">
        <ele>196.24600219727</ele>
        <time>2009-05-20T13:29:13Z</time>
      </trkpt>
      <trkpt lat="45.11322" lon="4.96054">
        <ele>196.24600219727</ele>
        <time>2009-05-20T13:29:16Z</time>
      </trkpt>
      <trkpt lat="45.1134" lon="4.96084">
        <ele>197.20799255371</ele>
        <time>2009-05-20T13:29:19Z</time>
      </trkpt>
      <trkpt lat="45.11358" lon="4.96115">
        <ele>197.20799255371</ele>
        <time>2009-05-20T13:29:22Z</time>
      </trkpt>
      <trkpt lat="45.11373" lon="4.96148">
        <ele>197.68800354004</ele>
        <time>2009-05-20T13:29:25Z</time>
      </trkpt>
      <trkpt lat="45.11388" lon="4.9618">
        <ele>198.16900634766</ele>
        <time>2009-05-20T13:29:28Z</time>
      </trkpt>
      <trkpt lat="45.11404" lon="4.96212">
        <ele>198.64999389648</ele>
        <time>2009-05-20T13:29:31Z</time>
      </trkpt>
      <trkpt lat="45.1142" lon="4.96243">
        <ele>198.64999389648</ele>
        <time>2009-05-20T13:29:34Z</time>
      </trkpt>
      <trkpt lat="45.11434" lon="4.96272">
        <ele>198.64999389648</ele>
        <time>2009-05-20T13:29:37Z</time>
      </trkpt>
      <trkpt lat="45.11449" lon="4.96298">
        <ele>198.64999389648</ele>
        <time>2009-05-20T13:29:40Z</time>
      </trkpt>
      <trkpt lat="45.11454" lon="4.96306">
        <ele>198.64999389648</ele>
        <time>2009-05-20T13:29:41Z</time>
      </trkpt>
      <trkpt lat="45.11467" lon="4.96326">
        <ele>198.64999389648</ele>
        <time>2009-05-20T13:29:44Z</time>
      </trkpt>
      <trkpt lat="45.11487" lon="4.96352">
        <ele>197.68800354004</ele>
        <time>2009-05-20T13:29:48Z</time>
      </trkpt>
      <trkpt lat="45.11507" lon="4.96386">
        <ele>197.68800354004</ele>
        <time>2009-05-20T13:29:52Z</time>
      </trkpt>
      <trkpt lat="45.11523" lon="4.96412">
        <ele>196.72700500488</ele>
        <time>2009-05-20T13:29:55Z</time>
      </trkpt>
      <trkpt lat="45.11528" lon="4.96421">
        <ele>197.20799255371</ele>
        <time>2009-05-20T13:29:56Z</time>
      </trkpt>
      <trkpt lat="45.11551" lon="4.96454">
        <ele>196.72700500488</ele>
        <time>2009-05-20T13:30:00Z</time>
      </trkpt>
      <trkpt lat="45.11567" lon="4.96478">
        <ele>196.72700500488</ele>
        <time>2009-05-20T13:30:03Z</time>
      </trkpt>
      <trkpt lat="45.11571" lon="4.96485">
        <ele>196.72700500488</ele>
        <time>2009-05-20T13:30:04Z</time>
      </trkpt>
      <trkpt lat="45.11583" lon="4.96472">
        <ele>197.68800354004</ele>
        <time>2009-05-20T13:30:09Z</time>
      </trkpt>
      <trkpt lat="45.11584" lon="4.96457">
        <ele>197.68800354004</ele>
        <time>2009-05-20T13:30:12Z</time>
      </trkpt>
      <trkpt lat="45.11577" lon="4.96446">
        <ele>196.72700500488</ele>
        <time>2009-05-20T13:30:18Z</time>
      </trkpt>
      <trkpt lat="45.11577" lon="4.96446">
        <ele>197.68800354004</ele>
        <time>2009-05-20T13:30:43Z</time>
      </trkpt>
      <trkpt lat="45.11576" lon="4.96446">
        <ele>197.20799255371</ele>
        <time>2009-05-20T13:30:44Z</time>
      </trkpt>
      <trkpt lat="45.11566" lon="4.96447">
        <ele>197.68800354004</ele>
        <time>2009-05-20T13:30:50Z</time>
      </trkpt>
      <trkpt lat="45.11562" lon="4.96439">
        <ele>197.20799255371</ele>
        <time>2009-05-20T13:30:52Z</time>
      </trkpt>
      <trkpt lat="45.11565" lon="4.96425">
        <ele>198.16900634766</ele>
        <time>2009-05-20T13:30:58Z</time>
      </trkpt>
      <trkpt lat="45.11566" lon="4.96426">
        <ele>198.16900634766</ele>
        <time>2009-05-20T13:30:59Z</time>
      </trkpt>
      <trkpt lat="45.11566" lon="4.96428">
        <ele>198.16900634766</ele>
        <time>2009-05-20T13:31:03Z</time>
      </trkpt>
      <trkpt lat="45.11567" lon="4.96429">
        <ele>198.64999389648</ele>
        <time>2009-05-20T13:31:04Z</time>
      </trkpt>
      <trkpt lat="45.11568" lon="4.96429">
        <ele>198.64999389648</ele>
        <time>2009-05-20T13:31:07Z</time>
      </trkpt>
      <trkpt lat="45.11568" lon="4.96431">
        <ele>198.64999389648</ele>
        <time>2009-05-20T13:31:08Z</time>
      </trkpt>
      <trkpt lat="45.11567" lon="4.96433">
        <ele>198.64999389648</ele>
        <time>2009-05-20T13:31:15Z</time>
      </trkpt>
      <trkpt lat="45.11567" lon="4.96433">
        <ele>198.64999389648</ele>
        <time>2009-05-20T13:31:16Z</time>
      </trkpt>
      <trkpt lat="45.11568" lon="4.96432">
        <ele>198.64999389648</ele>
        <time>2009-05-20T13:31:17Z</time>
      </trkpt>
      <trkpt lat="45.11568" lon="4.96431">
        <ele>198.64999389648</ele>
        <time>2009-05-20T13:31:18Z</time>
      </trkpt>
      <trkpt lat="45.11573" lon="4.96427">
        <ele>198.64999389648</ele>
        <time>2009-05-20T13:31:34Z</time>
      </trkpt>
      <trkpt lat="45.11573" lon="4.96426">
        <ele>198.64999389648</ele>
        <time>2009-05-20T13:31:35Z</time>
      </trkpt>
      <trkpt lat="45.11574" lon="4.96426">
        <ele>198.64999389648</ele>
        <time>2009-05-20T13:31:37Z</time>
      </trkpt>
      <trkpt lat="45.11574" lon="4.96426">
        <ele>198.64999389648</ele>
        <time>2009-05-20T13:31:38Z</time>
      </trkpt>
      <trkpt lat="45.11576" lon="4.96425">
        <ele>198.64999389648</ele>
        <time>2009-05-20T13:31:41Z</time>
      </trkpt>
      <trkpt lat="45.11576" lon="4.96424">
        <ele>199.13000488281</ele>
        <time>2009-05-20T13:31:42Z</time>
      </trkpt>
      <trkpt lat="45.11576" lon="4.96424">
        <ele>199.61099243164</ele>
        <time>2009-05-20T13:31:43Z</time>
      </trkpt>
      <trkpt lat="45.11577" lon="4.96425">
        <ele>207.30099487305</ele>
        <time>2009-05-20T15:25:39Z</time>
      </trkpt>
      <trkpt lat="45.11577" lon="4.96425">
        <ele>206.82099914551</ele>
        <time>2009-05-20T15:25:40Z</time>
      </trkpt>
      <trkpt lat="45.11576" lon="4.96424">
        <ele>206.33999633789</ele>
        <time>2009-05-20T15:25:49Z</time>
      </trkpt>
      <trkpt lat="45.11576" lon="4.96424">
        <ele>206.33999633789</ele>
        <time>2009-05-20T15:25:50Z</time>
      </trkpt>
      <trkpt lat="45.11576" lon="4.96424">
        <ele>206.82099914551</ele>
        <time>2009-05-20T15:25:51Z</time>
      </trkpt>
      <trkpt lat="45.11575" lon="4.96424">
        <ele>206.82099914551</ele>
        <time>2009-05-20T15:25:52Z</time>
      </trkpt>
      <trkpt lat="45.11575" lon="4.96423">
        <ele>206.82099914551</ele>
        <time>2009-05-20T15:25:55Z</time>
      </trkpt>
    </trkseg>
  </trk>
</gpx>